GFSNGP_sfc_temp_000.txt.gz
Temp
44 47 46 46 46 45 43 41 41 41 44 47 51 51 53 53 49 49 49 49 46 44 43 43 43 43 44 44 45 45 44 44 43 44 44 44 44 45 46 46 46 47 47 47
42 47 46 43 46 46 45 45 45 44 47 53 54 49 46 44 48 48 48 47 46 45 44 42 40 42 43 43 43 43 42 42 43 43 43 42 43 43 43 43 44 45 44 45
37 42 43 40 43 43 42 44 46 41 48 50 50 50 47 46 48 48 46 45 44 43 42 42 42 42 41 41 42 41 40 41 41 41 41 41 41 41 41 41 42 42 43 44
35 37 30 41 47 49 46 47 47 48 49 48 47 46 45 46 47 46 46 44 43 42 42 41 41 41 40 41 39 39 38 39 40 40 39 40 39 39 39 40 40 40 41 42
33 31 39 42 45 46 44 42 46 46 46 46 47 44 43 45 45 44 43 42 42 41 42 41 40 39 39 37 37 37 37 37 38 38 38 38 37 37 38 38 38 39 40 40
27 27 30 40 46 49 47 36 46 46 46 45 44 39 42 43 44 43 43 43 42 44 43 41 38 37 36 35 34 35 36 37 37 37 37 36 36 36 37 37 38 39 38 39
31 29 34 44 48 48 35 36 43 45 45 45 42 44 43 44 42 43 43 45 44 41 39 38 36 36 34 33 32 35 36 36 36 36 35 36 36 36 36 35 36 35 36 37
30 28 27 45 45 40 43 43 44 45 44 44 43 43 43 42 43 43 42 41 42 37 40 40 39 35 32 31 34 34 34 34 34 34 36 37 34 34 34 34 33 33 33 35
36 35 45 44 46 46 48 46 44 43 46 45 45 43 44 42 42 43 42 41 42 40 40 40 35 33 31 32 33 33 32 32 33 34 34 34 32 32 32 33 32 32 32 32
41 41 42 45 44 45 46 46 47 46 45 44 44 44 42 41 40 42 41 40 40 39 38 35 34 34 32 32 33 32 30 31 32 31 33 33 33 33 32 31 31 31 31 31
38 42 43 42 44 44 45 44 42 42 43 44 42 39 37 37 38 40 39 39 39 37 33 32 32 31 32 33 31 29 29 30 32 32 32 32 32 32 32 33 34 33 33 33
35 42 42 41 42 44 42 42 43 42 41 37 36 37 37 37 37 37 38 37 33 32 30 30 30 30 31 31 30 29 30 31 31 31 31 31 30 31 36 37 38 38 38 37
41 43 44 42 41 40 39 40 40 38 36 36 39 37 40 39 39 40 33 32 30 30 29 29 28 29 31 31 31 29 28 30 30 31 30 29 29 28 27 32 36 36 37 37
41 43 39 39 39 38 37 36 38 39 39 40 40 39 39 37 33 32 30 30 30 29 29 28 28 29 31 31 30 28 28 33 30 29 29 29 29 29 29 28 27 28 34 35
39 39 40 37 35 35 38 37 35 35 36 36 35 34 33 31 30 29 29 30 29 28 27 28 27 29 31 31 31 30 29 29 29 29 30 31 30 29 29 28 28 28 29 32
35 32 29 33 32 34 36 37 34 34 32 31 31 31 31 30 29 28 28 28 26 27 28 28 28 31 31 30 29 29 29 32 33 30 29 29 29 28 28 28 27 27 27 28
32 29 24 25 33 31 34 35 33 35 34 33 30 30 30 29 28 27 27 27 27 27 28 29 30 31 31 30 29 29 29 29 32 29 28 28 28 28 27 27 26 26 27 30
34 31 32 34 34 33 33 33 33 33 34 30 30 28 27 26 25 25 26 26 25 25 28 30 30 31 30 30 30 29 29 29 29 28 28 28 28 29 28 26 26 26 26 28
35 35 34 34 34 33 33 32 32 32 29 29 27 26 26 26 25 25 25 24 23 23 28 30 32 32 30 31 32 30 29 28 28 28 28 30 28 27 26 26 26 26 27 27
33 32 33 32 33 32 31 30 29 28 27 27 26 25 25 25 25 25 24 23 24 26 29 29 30 29 29 29 32 29 28 28 27 28 28 29 28 26 26 28 27 27 26 26
32 32 31 31 30 30 30 28 27 26 27 26 26 25 24 24 24 24 22 22 26 28 30 32 29 28 29 30 31 30 28 27 27 26 26 26 26 26 26 26 26 26 26 26
30 30 29 29 28 28 28 27 26 26 26 25 25 25 23 22 22 21 24 23 27 31 30 28 28 30 30 33 30 28 27 27 26 26 25 24 24 23 22 22 21 23 23 23
30 30 29 28 27 27 27 26 26 25 25 25 24 24 23 23 22 21 22 27 28 29 29 28 30 32 32 30 28 26 25 24 24 24 23 22 22 21 21 21 22 23 22 22
29 29 28 28 26 25 24 25 24 25 24 25 25 24 23 21 22 23 25 29 30 29 28 28 28 32 32 27 24 24 23 24 22 21 22 25 21 21 21 22 22 22 23 23
25 22 18 17 22 25 21 19 18 18 22 22 23 24 24 23 21 24 24 24 28 27 25 28 30 30 26 24 24 24 23 22 22 23 24 22 21 21 22 22 22 22 23 23
24 25 24 24 25 24 23 23 23 23 21 21 22 22 22 23 22 24 23 25 25 26 24 24 24 25 25 24 23 24 24 24 24 23 24 22 22 22 22 22 22 22 22 21
18 24 18 22 23 23 22 23 21 20 21 20 20 22 22 22 22 24 25 22 22 23 23 23 24 24 24 24 24 24 24 23 24 24 23 22 21 21 22 22 22 22 22 21

GFSNGP_sfc_temp_003.txt.gz
Temp
41 44 43 43 43 43 41 41 40 39 41 44 46 49 50 52 49 49 49 46 45 43 42 41 41 41 41 42 42 42 41 40 39 39 39 39 39 40 41 41 41 41 42 42
37 42 43 40 42 43 42 42 41 42 43 49 49 48 48 46 45 47 46 45 44 43 41 41 38 40 41 40 40 40 39 38 39 39 38 38 38 39 39 39 39 40 40 40
34 38 39 37 42 42 42 43 45 41 47 48 47 47 44 44 46 47 46 44 43 42 41 40 39 40 38 38 40 39 38 38 38 38 37 37 37 37 36 36 37 37 37 38
35 37 30 42 46 48 45 45 48 47 48 48 46 45 45 45 46 46 45 43 42 41 39 39 39 39 40 41 38 36 36 36 36 36 36 36 35 35 34 36 35 36 36 37
36 34 37 40 45 44 44 41 46 46 46 45 45 43 43 45 44 42 42 41 40 40 39 38 38 42 40 36 34 34 34 34 35 35 34 34 33 33 34 34 34 35 36 36
29 29 32 41 46 49 48 35 44 45 43 42 42 37 40 41 41 41 42 42 40 40 39 41 41 37 35 34 32 32 33 33 34 34 33 32 32 32 34 33 34 35 34 35
34 32 37 45 47 48 36 37 42 43 43 41 40 43 44 42 41 41 41 40 40 41 39 37 39 36 35 35 31 32 33 33 33 33 32 32 32 32 32 32 32 31 32 33
32 30 31 44 45 41 42 42 44 44 44 43 43 42 41 41 40 40 39 38 39 37 38 40 40 38 35 30 32 32 32 31 31 30 32 35 30 31 31 30 30 30 30 31
37 36 43 42 44 44 46 44 44 42 44 45 44 42 42 40 40 39 38 38 38 37 38 39 38 36 30 31 31 31 29 29 29 30 30 31 29 30 29 30 29 29 29 29
39 38 40 43 44 45 44 45 44 44 43 43 41 42 40 39 38 37 37 36 37 39 38 36 33 31 30 30 30 29 27 27 28 27 31 31 30 31 30 29 28 28 29 30
38 38 40 41 42 43 44 41 41 41 41 41 39 37 36 37 37 36 38 39 38 37 33 31 30 29 29 30 29 28 27 28 28 28 28 29 30 30 30 31 32 32 31 31
36 41 41 40 42 42 41 40 40 39 38 36 36 37 36 36 39 39 38 38 34 31 30 29 28 28 29 30 29 27 28 29 28 29 28 29 28 29 35 35 37 37 37 35
41 42 43 42 41 39 39 37 36 36 35 35 35 36 36 39 39 39 35 31 30 29 29 27 27 27 29 29 29 28 26 28 28 30 28 28 28 27 26 31 35 35 36 36
40 42 39 39 37 35 34 37 39 39 39 37 38 40 40 38 37 32 30 30 29 29 28 26 26 27 29 29 29 27 26 32 29 28 27 28 28 28 28 27 26 27 33 34
39 38 38 36 35 33 34 36 35 36 37 37 38 37 35 32 30 29 29 29 29 27 26 26 26 28 29 29 30 28 28 28 28 28 28 30 30 28 28 28 27 27 28 31
32 31 32 32 33 30 30 30 34 35 35 34 30 30 30 30 29 28 28 27 26 26 27 27 27 29 29 29 28 27 27 32 32 29 29 29 28 27 27 27 27 26 26 27
32 31 26 24 24 29 31 32 35 36 31 30 29 30 29 28 27 27 27 27 26 26 27 28 28 31 30 28 27 27 27 27 31 29 27 28 27 27 27 27 25 25 26 29
34 31 31 32 33 32 32 33 32 31 31 31 30 28 27 26 26 26 26 25 25 24 27 29 29 30 28 29 29 28 28 28 28 27 28 27 27 28 28 26 25 26 26 27
34 35 33 33 33 32 32 32 32 31 30 29 27 26 26 26 25 25 25 23 22 22 26 29 31 31 28 29 31 29 28 26 27 27 28 29 28 27 26 26 25 26 26 26
34 33 33 32 33 32 31 31 30 28 28 26 26 25 25 25 25 24 23 22 23 25 27 28 29 28 27 27 31 28 27 27 27 26 26 27 26 25 26 26 26 26 25 26
33 33 32 31 30 30 30 29 28 27 26 26 25 25 24 25 24 23 21 20 24 27 29 32 28 27 27 29 30 28 27 26 26 25 24 24 23 23 24 24 24 24 24 25
30 30 30 29 27 27 28 27 26 26 25 24 24 24 23 22 22 20 24 22 26 31 29 27 26 28 29 33 29 27 26 25 24 24 23 22 22 21 20 21 21 22 23 22
30 30 30 28 27 26 26 25 25 25 24 25 24 24 23 23 22 20 21 25 26 28 28 27 29 32 32 29 26 24 23 23 23 23 22 20 20 20 20 20 21 22 21 21
29 29 29 29 26 24 24 25 24 25 24 26 25 25 23 21 21 22 23 27 29 28 27 27 28 31 32 26 23 22 22 22 21 20 21 24 21 21 21 21 21 21 22 22
24 20 18 17 20 24 21 19 17 17 22 22 24 24 24 22 20 22 21 23 27 26 24 28 29 29 24 23 23 23 22 21 20 22 23 21 20 20 21 21 21 22 22 22
24 25 24 24 23 23 23 22 22 22 21 21 22 22 21 22 21 22 21 24 23 25 23 23 23 24 24 23 22 22 22 23 23 22 23 21 20 20 21 21 21 21 21 21
17 23 17 22 23 23 22 23 22 21 21 19 20 21 21 21 21 23 24 21 21 21 21 22 22 23 22 23 23 23 23 22 23 23 22 21 21 20 20 20 20 21 21 21

GFSNGP_sfc_temp_006.txt.gz
Temp
40 42 42 42 42 41 40 41 39 40 40 43 45 47 46 46 47 46 45 45 44 43 41 40 39 39 39 39 39 39 38 37 37 37 37 36 36 36 37 37 37 38 38 38
37 41 40 39 41 41 40 40 38 40 41 45 44 44 44 42 45 46 46 45 43 42 40 39 37 38 39 38 38 39 37 36 37 36 36 35 35 35 35 35 35 36 36 36
34 38 37 36 41 39 40 41 43 39 44 46 44 47 45 46 46 47 45 43 42 41 39 38 38 38 37 37 38 38 37 36 35 35 34 34 34 34 34 33 33 34 34 35
32 33 28 39 42 44 42 42 44 45 45 46 46 45 44 44 43 45 43 42 40 39 38 38 37 37 37 38 40 36 34 34 34 34 33 33 32 31 31 32 32 32 33 34
34 31 37 39 42 42 43 39 44 45 45 44 44 42 42 44 42 41 42 40 39 39 38 36 36 38 38 38 33 33 33 32 32 32 31 31 30 30 31 31 31 32 33 33
27 28 30 39 45 48 48 38 46 47 44 43 42 38 41 43 41 39 40 40 38 38 37 37 36 36 34 32 32 31 32 31 32 31 30 29 29 30 30 31 31 32 32 32
34 32 36 44 47 48 37 38 44 44 44 44 41 43 43 40 38 39 39 38 38 38 36 35 35 38 33 31 30 31 31 31 31 30 29 29 29 29 30 30 30 29 30 31
31 30 31 44 45 41 42 42 44 44 44 43 43 43 41 40 39 38 37 37 37 35 34 36 39 33 31 32 30 30 30 29 29 28 30 33 28 29 28 28 27 28 28 29
37 36 43 41 43 43 45 44 43 43 45 45 43 41 41 40 38 37 37 37 37 35 34 34 33 32 29 29 29 29 28 27 27 28 29 29 28 28 28 28 27 27 27 28
39 39 41 43 44 45 45 45 45 43 43 42 40 40 39 39 37 36 36 35 36 34 35 36 34 30 28 28 28 27 25 25 27 26 29 28 27 29 28 27 27 27 28 29
36 37 40 42 42 45 44 43 42 41 40 40 38 37 36 36 36 35 35 36 36 37 35 32 29 28 28 29 27 27 26 27 26 27 25 27 28 27 28 29 30 30 30 30
36 41 41 40 43 42 42 41 39 38 36 36 35 36 35 35 36 35 35 37 35 34 30 28 27 27 28 28 27 25 26 28 27 28 26 28 27 27 34 35 36 36 36 35
40 40 40 40 40 39 38 36 35 34 34 33 34 35 35 35 35 38 35 34 32 29 29 26 26 26 27 28 27 27 25 27 27 29 27 27 26 26 25 30 34 34 35 35
40 41 38 37 37 34 35 37 38 37 37 38 36 38 39 37 35 32 32 30 29 28 28 26 25 25 28 27 28 26 25 31 28 27 26 27 27 27 27 26 25 27 32 33
36 36 37 35 34 33 33 33 31 33 34 36 38 37 37 35 31 29 28 29 28 26 26 25 25 26 28 27 29 27 28 27 27 27 27 29 29 28 27 27 27 26 28 31
32 33 30 31 33 29 31 28 30 31 33 36 35 33 31 30 29 28 28 27 25 26 26 26 26 27 29 28 27 26 26 30 31 28 27 28 27 27 26 26 26 26 26 27
32 31 26 26 24 30 31 32 32 32 34 30 29 30 29 28 27 26 26 26 26 25 26 27 27 30 29 27 26 26 26 26 30 28 26 27 27 26 27 26 25 26 26 29
35 32 34 35 33 32 32 31 31 31 30 30 30 28 27 26 26 26 26 25 24 24 27 28 28 29 27 28 28 27 27 26 26 26 27 27 27 28 27 25 26 25 26 27
34 35 34 34 32 32 31 31 31 30 30 29 27 26 26 26 25 25 24 23 23 22 26 28 31 31 27 28 31 28 26 25 26 26 26 28 26 26 25 24 25 25 25 25
33 33 33 30 31 31 31 30 28 28 28 27 26 25 24 24 25 24 23 22 23 24 27 27 28 27 26 26 30 27 26 25 25 25 25 25 24 23 24 25 24 24 24 25
33 32 31 31 29 29 30 29 28 27 27 26 25 25 24 24 24 23 21 20 24 27 28 31 27 27 26 28 29 27 25 25 24 23 23 22 22 22 23 23 22 22 23 24
30 30 30 29 28 28 28 27 26 26 25 24 24 24 23 22 21 20 23 22 25 30 28 26 24 27 29 33 28 25 24 24 23 22 21 21 21 20 19 20 20 21 22 22
30 30 29 28 27 27 26 25 25 25 24 24 24 23 22 22 22 20 20 25 25 27 28 26 28 31 32 29 25 23 23 22 22 21 21 19 19 18 19 20 20 21 20 20
29 28 28 27 25 24 24 25 23 24 23 25 24 24 23 21 21 24 23 27 28 27 27 26 27 31 31 24 22 21 21 21 20 19 19 23 20 20 20 20 19 20 21 21
22 18 16 17 21 24 20 18 17 18 21 22 23 23 23 23 21 21 20 22 26 26 23 27 28 28 23 22 22 22 21 19 18 20 22 21 19 19 20 20 20 20 21 21
23 24 23 23 23 22 22 22 21 20 21 22 22 23 22 21 20 21 19 23 22 23 21 21 21 23 22 21 21 21 21 21 21 21 22 21 20 20 20 20 20 19 20 20
17 23 17 21 22 22 21 22 21 19 21 21 21 21 20 19 19 22 22 19 19 20 20 20 21 21 21 21 21 21 21 21 22 22 21 20 19 19 19 19 18 19 19 19

GFSNGP_sfc_temp_009.txt.gz
Temp
40 43 44 43 42 41 42 46 43 44 42 48 49 50 51 53 52 50 48 46 46 45 44 44 44 44 43 43 44 44 43 42 41 41 41 41 41 41 41 40 40 41 40 40
38 41 42 41 42 45 44 41 42 43 43 50 51 50 50 51 49 48 47 46 46 45 44 43 43 43 42 42 42 43 41 40 40 40 40 39 39 39 39 39 39 39 39 38
36 40 41 37 41 41 43 42 48 42 51 48 47 48 49 49 50 49 48 47 46 45 43 42 42 42 42 42 42 41 40 39 39 39 38 38 38 38 37 37 37 37 38 38
34 37 29 42 43 45 44 43 45 45 46 48 47 48 48 48 49 48 48 46 44 43 42 42 41 41 41 41 41 39 38 38 38 37 36 37 36 36 36 37 36 36 36 37
33 32 38 40 42 41 43 41 45 44 44 45 47 47 47 47 46 45 46 44 43 43 41 40 40 41 41 40 38 37 37 36 36 36 35 35 35 35 36 36 36 35 36 35
30 30 33 42 45 49 48 39 46 46 44 44 45 42 45 45 44 42 42 42 41 40 40 40 40 40 38 38 37 36 35 35 35 35 34 34 34 35 35 35 35 35 34 35
35 33 37 45 47 48 38 42 45 46 45 44 44 46 45 44 42 41 40 40 40 40 39 39 38 39 38 36 35 35 34 34 34 35 33 35 35 34 34 34 33 32 32 34
32 31 33 46 46 43 44 43 45 45 45 45 45 44 43 42 40 40 38 39 39 37 37 38 40 39 35 35 35 34 33 33 33 33 34 35 33 33 33 32 31 31 31 32
38 37 42 42 44 44 46 44 44 45 45 46 45 44 42 41 40 39 38 38 38 37 36 36 36 36 34 34 33 32 31 32 32 33 33 33 32 32 32 32 30 30 30 30
39 39 40 42 44 45 46 45 45 46 45 45 44 43 42 40 38 38 37 37 37 36 35 36 37 35 33 32 32 31 30 31 32 32 34 33 32 32 31 30 30 30 30 31
35 38 41 42 42 43 43 43 43 43 43 43 42 40 39 38 37 37 36 36 37 36 36 36 34 32 32 33 31 31 30 31 31 31 30 30 31 31 31 33 33 32 32 32
37 41 41 42 43 43 42 40 41 41 39 38 38 38 38 37 37 36 36 36 34 36 36 33 31 30 31 31 30 29 30 31 31 31 30 30 29 30 33 34 35 36 36 34
41 41 38 39 39 40 38 37 37 36 36 36 35 36 37 36 36 38 36 34 33 34 32 30 29 29 30 30 31 30 29 29 30 31 29 29 29 28 27 32 34 34 34 35
39 41 38 37 38 36 36 37 39 36 36 37 38 40 39 38 38 35 32 32 31 31 31 29 29 29 30 30 30 29 29 31 30 29 29 29 29 29 30 28 27 29 33 33
35 36 39 35 34 34 34 33 32 33 34 34 37 39 38 36 34 31 30 30 30 29 29 28 28 29 30 30 30 29 29 29 30 30 29 30 30 29 29 28 28 28 29 31
33 31 32 33 32 32 32 30 32 33 33 33 33 37 36 31 30 29 29 28 28 29 29 28 28 30 30 30 29 29 29 31 31 30 29 29 28 28 28 28 27 27 27 28
31 27 29 25 25 29 31 33 33 33 32 34 31 30 29 29 28 28 28 28 28 28 28 28 29 31 31 29 28 28 28 28 30 29 27 28 28 27 28 28 26 26 27 29
38 35 36 36 33 32 32 31 31 31 31 31 30 29 28 27 28 27 27 27 26 26 28 30 30 30 29 30 29 29 28 28 27 27 28 27 28 29 27 27 26 25 26 27
35 35 34 34 33 33 32 31 31 31 30 30 28 27 27 27 27 27 25 25 24 24 28 29 31 31 28 29 31 30 28 27 27 27 27 28 26 27 26 25 25 25 25 25
33 33 33 32 32 31 31 30 29 29 29 27 27 25 25 25 25 25 24 24 25 26 28 28 29 28 27 27 30 29 28 27 26 26 26 26 25 24 25 25 25 25 24 24
32 32 32 32 31 30 30 29 28 27 27 26 26 25 25 25 24 24 23 22 26 27 29 31 28 27 27 29 30 28 27 26 26 25 24 24 23 23 23 23 23 22 23 24
29 30 30 30 28 28 28 27 26 26 25 24 24 25 23 22 21 20 24 24 26 30 28 26 25 27 30 33 29 26 26 25 24 24 23 22 22 21 20 20 20 21 22 23
30 30 30 28 28 27 25 25 25 25 24 24 24 23 23 23 22 22 22 26 25 27 28 25 28 31 31 29 26 24 23 23 22 22 22 21 20 19 20 20 21 22 21 21
29 28 28 27 26 25 25 24 24 24 23 24 24 23 23 21 22 23 23 26 28 28 26 26 27 30 31 25 23 22 22 22 21 20 20 23 20 20 21 20 20 21 21 21
22 18 16 17 22 23 19 16 17 18 21 21 22 22 22 22 21 22 20 21 25 25 22 26 28 27 23 22 22 22 21 20 19 19 22 20 19 19 20 20 20 20 21 21
23 23 22 22 22 22 21 21 20 20 20 20 21 22 20 20 20 20 20 23 21 23 20 21 21 22 22 21 21 21 21 21 21 21 22 21 20 20 20 19 19 19 19 19
20 23 17 20 21 21 20 20 20 18 21 21 20 19 19 19 19 20 21 18 18 19 19 20 20 20 21 21 21 21 21 20 21 21 21 20 19 18 18 18 18 18 18 18

GFSNGP_sfc_temp_012.txt.gz
Temp
51 53 55 53 51 52 51 54 50 56 54 61 66 63 64 64 63 63 61 58 58 57 57 57 55 55 54 52 52 52 51 50 48 49 49 48 48 48 48 48 47 47 47 47
48 49 53 50 54 54 54 55 56 57 56 66 65 65 62 64 62 61 60 58 57 57 57 55 54 53 51 51 50 51 49 47 47 47 47 47 47 46 46 46 46 46 46 45
45 48 49 45 52 52 55 58 57 52 61 62 58 59 62 62 60 60 60 58 57 56 55 54 53 53 52 51 50 49 47 46 45 46 45 45 46 45 45 45 46 45 45 45
44 45 35 54 54 60 56 59 60 60 59 61 62 61 59 61 61 59 58 57 56 56 53 53 53 51 51 50 49 47 45 45 45 44 44 45 45 45 45 45 44 44 44 44
41 43 49 50 49 51 51 54 58 58 58 57 56 58 54 55 56 56 56 57 56 55 53 51 50 51 50 48 46 45 45 44 44 44 43 44 43 44 44 44 43 43 43 42
40 38 40 51 53 57 58 50 57 58 56 54 55 52 55 54 53 51 51 51 51 51 51 51 50 50 48 46 43 45 44 43 43 43 43 43 43 42 43 43 42 42 41 42
43 36 48 54 55 57 47 50 54 57 56 55 55 56 52 51 48 50 50 49 49 50 49 50 49 48 44 42 43 44 43 43 43 43 43 43 43 43 42 41 41 41 40 41
45 37 38 54 52 51 53 54 55 55 56 53 52 51 51 50 48 47 46 46 48 48 47 47 47 45 41 42 44 43 42 42 42 43 42 42 40 40 41 40 39 39 38 38
50 49 49 51 52 52 58 54 53 54 54 53 51 51 51 49 48 47 47 46 47 47 45 45 44 43 42 43 42 41 41 41 42 42 42 42 40 39 38 39 37 36 36 36
46 47 47 49 51 54 56 53 54 54 53 54 51 51 50 49 48 47 47 46 46 45 45 43 43 42 43 42 41 40 40 41 41 41 40 40 40 39 38 37 36 35 35 35
43 45 48 50 52 52 51 52 51 51 52 52 52 50 50 48 47 47 46 45 45 45 44 44 43 41 41 41 40 39 40 40 40 40 39 39 39 38 37 37 36 34 34 34
50 53 54 53 52 52 51 50 51 49 47 46 49 48 47 47 47 46 45 44 43 43 43 41 41 40 40 40 39 38 38 39 39 38 38 38 37 36 38 37 37 36 36 35
53 54 50 54 52 52 50 48 48 48 48 45 44 45 45 44 45 44 44 43 42 42 42 40 39 39 39 39 38 37 37 37 38 37 37 36 35 34 32 36 37 36 36 36
49 49 45 49 47 48 47 46 45 44 44 44 44 44 44 44 44 43 41 42 41 40 39 39 38 38 39 38 38 37 37 35 36 36 36 35 35 34 34 32 31 33 36 35
46 45 51 47 45 43 43 42 40 42 42 42 43 43 43 42 41 41 40 40 39 38 38 37 37 38 38 38 36 36 36 36 36 36 35 34 34 34 33 33 32 32 34 35
39 40 41 40 37 36 37 40 42 42 41 41 41 41 42 42 41 39 38 38 37 37 38 36 36 38 37 36 36 36 36 34 34 34 34 34 33 32 32 32 32 32 31 31
36 33 33 32 33 36 42 43 44 42 41 41 40 39 38 38 37 37 36 37 37 37 36 36 36 37 36 36 35 35 35 34 33 33 33 33 32 32 32 32 30 30 30 32
48 46 46 45 42 41 40 41 41 41 40 40 38 37 37 36 37 37 36 35 35 34 35 36 36 36 36 35 35 35 34 34 33 32 32 32 32 32 31 30 30 29 29 30
46 45 45 44 44 43 41 40 40 39 38 38 37 36 37 37 37 36 35 34 34 34 36 35 33 34 34 34 33 34 33 32 32 32 32 31 31 31 30 29 29 28 28 28
42 42 42 40 40 41 40 39 39 38 37 37 36 35 35 35 34 34 33 34 35 36 34 34 34 34 33 33 32 33 33 32 31 31 31 30 30 29 29 28 27 27 27 26
40 40 39 39 39 38 39 39 38 37 36 35 35 35 35 34 33 33 31 33 34 33 33 33 33 33 33 32 33 34 32 31 30 30 29 28 28 27 27 26 25 25 25 25
39 39 38 38 38 36 36 36 36 35 34 33 32 32 31 30 30 30 31 32 33 31 32 33 33 31 32 33 33 32 30 29 29 29 28 28 26 25 24 24 23 24 24 24
39 38 37 37 36 36 34 34 33 33 32 31 30 30 31 32 32 31 30 31 32 31 32 32 31 31 32 32 31 29 28 28 27 27 27 26 25 24 23 23 23 24 23 23
36 37 35 34 33 33 32 29 31 31 30 30 30 30 30 30 30 31 30 29 28 29 30 30 30 30 30 29 28 27 27 27 26 25 25 25 24 24 23 23 23 23 23 24
32 29 28 29 31 30 27 26 26 27 27 27 27 28 28 28 29 29 28 28 27 27 28 28 28 27 27 27 27 26 26 25 25 25 25 23 23 23 23 23 23 22 23 23
30 31 30 30 31 30 29 29 28 28 28 27 27 27 27 27 27 27 27 26 26 26 25 26 26 26 26 25 25 26 26 25 25 24 24 23 23 22 22 21 21 22 21 21
27 28 27 27 28 28 28 28 28 26 27 28 25 25 25 25 25 25 24 24 24 24 24 25 25 24 25 25 25 25 25 24 24 23 23 22 21 21 21 21 21 21 21 21

GFSNGP_sfc_temp_015.txt.gz
Temp
57 58 56 53 53 53 52 55 52 57 57 65 68 67 67 67 66 65 64 63 63 62 62 62 60 59 59 57 56 55 53 52 50 51 51 51 50 50 50 49 49 49 48 48
50 54 56 54 56 57 56 57 57 59 59 71 72 72 69 68 66 65 64 63 63 62 62 61 60 58 56 55 53 54 52 50 49 49 49 49 48 48 48 48 48 48 47 47
47 52 52 46 55 56 57 59 59 54 62 70 64 65 66 67 67 65 65 64 63 62 61 60 59 57 54 54 53 52 50 49 48 48 47 47 47 47 47 47 48 47 47 46
46 49 36 56 60 62 59 61 63 63 66 65 66 67 68 69 66 65 64 63 63 62 61 59 58 56 55 53 51 49 48 48 48 47 46 47 46 46 46 47 46 45 45 45
43 44 51 57 55 56 56 56 64 63 66 65 63 59 56 61 64 62 62 63 62 62 59 57 55 54 52 50 49 48 47 47 47 46 45 45 45 45 45 45 44 44 45 43
44 40 39 52 57 61 63 50 67 67 64 61 58 53 55 57 57 56 57 58 57 57 55 53 53 52 50 49 48 46 46 46 46 46 45 44 44 44 45 44 43 44 43 44
38 41 49 57 58 61 47 51 58 63 64 59 56 59 56 56 54 55 54 53 53 53 52 52 52 51 49 47 45 45 45 46 45 46 45 45 44 44 43 42 42 42 42 43
42 38 36 58 55 52 55 58 60 61 61 58 54 54 54 53 50 50 49 49 52 51 50 50 51 50 46 44 45 45 45 44 44 45 45 44 42 42 42 41 40 40 40 39
53 50 53 57 55 58 61 58 59 58 58 56 54 52 52 50 50 49 49 49 51 50 48 49 48 48 45 45 45 44 44 43 44 44 44 44 41 40 40 40 39 38 37 37
52 52 52 55 55 58 61 59 59 58 57 57 53 53 51 51 50 49 49 48 50 48 47 45 45 44 46 44 44 43 42 43 43 42 42 42 43 41 40 38 37 36 35 34
50 49 50 53 55 56 56 56 55 56 56 55 54 53 53 52 51 50 49 48 48 48 47 45 45 44 44 43 43 41 42 42 42 42 41 40 41 40 39 39 38 34 34 34
52 56 57 55 56 56 54 52 53 51 50 52 54 51 52 51 51 50 48 47 46 46 45 44 44 44 43 43 41 40 39 40 40 39 40 40 39 38 41 40 40 39 38 37
57 59 57 57 55 57 54 53 54 53 51 48 50 50 51 49 49 48 47 46 45 44 44 43 43 42 42 42 40 39 38 38 39 38 38 37 36 36 33 37 39 39 38 38
56 55 51 53 50 54 52 51 51 50 50 50 48 49 48 47 45 45 44 45 45 43 41 42 41 41 42 41 39 38 38 38 38 38 37 36 36 35 35 33 32 33 37 37
53 52 55 55 52 50 49 47 45 46 47 46 48 47 46 44 43 43 43 43 42 42 41 40 39 40 41 40 38 37 37 37 37 36 36 36 35 35 34 33 32 33 34 35
46 47 47 45 42 41 42 45 46 46 47 46 45 44 44 44 44 42 41 41 39 38 39 38 38 40 39 38 37 37 37 37 36 35 35 34 34 33 32 32 32 32 31 31
38 34 34 34 37 42 47 49 49 46 46 45 44 42 41 40 40 39 39 40 40 39 39 38 37 39 37 37 36 36 36 36 36 35 34 33 33 32 32 31 30 30 30 32
52 48 47 45 46 46 45 46 45 45 44 44 42 40 39 38 39 39 38 38 37 37 37 38 38 36 37 37 36 35 35 35 34 33 33 32 32 32 32 31 30 29 29 30
50 50 50 49 48 46 44 43 44 44 42 41 40 39 40 40 40 39 38 36 36 36 37 37 34 34 35 36 34 34 34 33 33 33 33 33 32 32 31 30 29 29 28 28
47 46 45 44 44 44 43 44 43 42 41 40 40 38 37 37 37 36 36 36 37 37 35 35 34 35 35 34 34 33 33 33 32 32 31 31 30 30 29 29 28 28 26 26
43 43 41 41 41 43 43 43 42 40 39 38 38 37 37 36 35 35 34 34 35 34 34 33 34 34 33 33 33 33 33 32 31 30 30 29 29 28 27 27 26 26 25 25
43 42 41 41 41 39 40 40 39 38 37 36 35 35 34 32 33 32 33 33 34 32 33 34 34 33 32 33 32 32 31 30 30 29 28 28 27 25 24 24 23 24 24 24
43 42 41 40 40 38 38 37 36 36 34 33 33 33 34 35 35 33 32 32 33 32 32 33 33 32 32 31 31 31 29 29 28 28 27 26 25 24 23 23 23 23 23 23
40 40 40 38 38 37 34 32 34 34 33 32 32 33 33 32 31 32 32 31 30 30 30 31 30 30 30 29 29 28 28 28 27 26 25 27 25 24 23 23 22 23 23 23
34 32 32 33 35 34 29 29 28 30 31 30 30 30 31 31 31 30 30 29 29 29 28 30 29 29 28 28 28 27 27 26 25 26 25 24 23 22 22 22 22 22 22 22
36 35 35 36 35 33 32 32 31 31 31 29 29 29 29 29 29 29 29 28 27 27 27 27 27 27 26 26 26 26 26 26 26 25 24 23 22 22 21 21 21 21 21 21
31 32 31 30 31 32 32 32 30 29 30 30 27 27 27 27 27 27 26 27 26 26 26 26 26 26 26 26 25 26 25 25 24 23 23 21 21 20 20 20 20 20 20 20

GFSNGP_sfc_temp_021.txt.gz
Temp
38 40 43 45 43 43 42 44 40 43 45 47 50 51 51 54 54 54 54 53 52 50 49 49 48 46 46 45 45 45 43 42 41 41 42 42 41 41 41 40 40 39 39 38
42 47 45 43 46 48 47 49 46 47 45 51 49 51 50 52 55 54 54 54 52 51 50 49 48 46 47 44 43 43 42 41 42 42 42 41 40 40 39 38 38 37 36 36
36 45 45 38 45 46 48 49 51 45 51 51 51 53 52 51 56 54 54 52 52 52 51 49 48 47 44 43 43 42 41 42 42 42 41 41 40 38 37 36 35 34 34 34
38 39 29 45 51 52 50 51 51 51 54 52 50 46 47 49 53 54 54 54 53 52 49 48 46 45 44 43 42 41 41 41 42 42 41 39 37 36 34 34 33 33 33 33
34 34 40 44 47 46 46 46 50 51 52 50 48 47 45 47 49 50 51 51 49 49 47 46 45 44 43 42 40 40 40 40 41 40 38 37 35 33 33 32 32 31 32 32
33 28 29 42 48 50 49 39 48 48 50 49 48 43 41 44 47 46 47 48 46 46 45 44 44 45 42 40 39 39 40 40 40 39 37 34 33 32 32 32 32 32 33 32
35 33 36 47 50 51 38 40 48 48 50 48 45 44 44 45 43 44 45 45 45 45 43 42 42 42 40 38 38 39 39 39 39 37 35 34 33 32 31 30 30 29 29 29
37 34 30 48 47 42 46 46 45 44 45 43 43 44 43 43 43 43 42 42 43 42 41 41 42 41 37 35 37 38 38 38 36 34 36 38 32 31 31 29 27 27 27 28
40 42 49 47 47 49 50 48 44 44 45 45 43 42 42 41 41 42 42 41 43 42 40 38 38 38 35 35 37 37 36 34 33 34 34 33 32 31 29 28 27 28 28 28
43 45 43 46 47 49 49 47 47 47 46 46 42 42 41 41 41 42 43 41 41 39 37 35 36 37 36 36 36 35 33 32 32 31 33 31 31 30 29 27 26 28 28 29
41 41 43 45 46 47 46 47 46 46 46 45 44 42 43 42 41 41 40 40 39 38 36 35 35 35 35 35 35 32 31 31 30 30 29 28 29 29 29 29 31 32 30 30
42 48 47 45 47 48 48 46 47 46 43 43 45 43 42 41 41 40 39 39 37 36 34 33 33 33 34 34 33 31 30 29 28 28 27 27 26 28 35 37 38 38 38 36
50 50 48 48 47 47 45 44 45 45 45 43 43 44 43 41 40 43 38 36 35 34 33 33 33 33 33 34 32 30 27 29 27 29 27 26 26 25 26 31 36 36 36 37
49 50 44 45 43 46 45 45 45 43 43 43 41 41 40 38 38 36 35 35 34 33 32 32 32 32 33 32 30 29 28 34 28 26 26 26 26 26 27 26 26 27 33 34
44 45 47 45 44 42 43 42 40 39 39 38 39 38 38 35 33 33 33 33 33 32 32 32 31 31 32 31 30 29 29 27 27 27 27 29 27 27 27 27 26 26 28 31
39 41 42 41 38 38 38 38 38 37 37 36 36 35 34 33 32 31 32 32 31 29 30 30 29 30 30 30 28 27 27 33 33 27 27 26 26 26 26 26 26 26 25 26
37 32 35 34 36 36 38 39 39 38 37 34 33 32 32 30 30 29 29 30 30 30 29 29 28 30 31 30 28 26 25 25 32 26 26 26 26 26 26 26 25 25 25 28
40 39 41 41 39 38 36 37 38 37 34 33 33 33 31 30 29 28 28 28 27 27 28 29 29 29 29 29 29 27 26 25 25 24 26 26 26 27 26 25 25 25 25 26
40 39 39 39 39 39 37 37 35 34 34 33 32 31 32 30 29 28 27 27 26 25 26 28 34 30 28 31 31 27 25 24 24 24 25 28 24 24 24 24 24 24 24 24
41 41 40 37 38 38 35 35 34 34 33 34 32 31 28 27 27 27 26 24 24 26 28 29 28 27 27 28 32 25 24 23 23 23 23 24 23 24 24 25 24 23 23 23
40 40 39 37 35 36 36 35 35 33 32 32 30 27 26 27 27 27 25 23 25 29 29 31 27 25 26 28 26 24 23 22 22 21 21 22 22 21 22 22 21 22 22 23
40 38 37 36 34 32 32 32 32 30 29 28 27 27 27 25 24 24 26 25 26 31 27 25 25 30 28 30 24 22 22 22 22 21 20 20 20 19 18 20 20 20 21 20
38 36 34 33 31 29 28 28 27 28 27 27 27 27 27 25 25 24 23 26 25 29 24 24 30 32 32 23 22 21 21 21 21 20 19 17 18 17 19 19 20 20 19 19
35 33 30 30 29 28 25 24 26 26 26 27 26 26 26 23 22 24 26 30 31 27 25 26 28 31 29 21 20 19 19 19 17 15 17 23 17 16 17 18 18 19 18 18
29 28 27 26 26 24 23 23 22 23 24 23 24 24 24 24 24 22 22 23 28 24 22 27 28 28 21 20 19 19 18 15 13 19 18 17 18 17 17 17 16 17 18 16
29 28 26 26 26 26 25 26 24 24 24 22 22 22 22 23 24 21 22 24 22 24 20 21 21 22 20 20 20 19 18 17 18 17 19 17 16 15 15 15 15 15 16 16
27 29 26 26 27 26 25 25 24 23 24 23 21 21 21 21 23 21 23 19 19 20 19 20 20 21 21 20 19 19 17 16 18 18 17 14 15 14 15 15 16 16 17 16

GFSNGP_sfc_temp_024.txt.gz
Temp
37 37 37 41 41 41 33 38 33 41 44 44 49 49 49 51 50 50 49 49 49 48 47 46 45 45 45 44 43 43 41 40 40 40 40 40 39 39 39 38 38 37 36 36
32 38 38 37 41 42 38 37 36 38 47 54 48 47 46 48 50 50 50 50 50 49 47 46 46 45 45 43 42 42 40 39 40 40 40 39 39 37 37 36 36 35 34 33
34 42 40 36 42 36 37 42 39 42 49 47 48 50 47 48 52 51 51 50 49 48 48 48 45 45 43 42 41 40 39 40 40 40 39 39 38 37 36 34 33 33 32 32
36 39 28 45 49 51 47 50 50 50 50 49 49 44 45 46 51 51 52 51 50 50 48 46 45 44 42 42 40 39 39 39 40 39 39 37 36 34 33 33 32 31 31 31
33 32 38 43 46 44 44 45 46 49 48 46 46 46 44 44 47 49 50 51 51 49 46 44 43 43 42 40 39 39 38 39 39 39 37 35 34 33 32 32 30 29 30 29
31 28 30 41 47 48 47 37 45 46 46 46 47 43 43 41 43 44 45 46 45 44 44 42 42 43 41 38 37 37 39 39 38 37 36 34 32 32 31 30 29 30 29 29
32 32 35 45 47 47 35 39 45 45 47 47 45 43 42 41 41 43 43 42 44 44 42 41 41 41 38 36 37 38 37 37 37 36 34 33 32 30 29 28 28 27 28 27
34 29 27 46 48 41 45 43 42 41 41 40 41 41 41 41 41 41 40 41 42 40 39 39 40 40 36 35 35 36 36 36 35 33 35 35 31 30 30 27 25 25 25 25
39 37 45 44 44 46 47 45 42 40 42 43 41 41 41 39 39 39 40 40 41 40 37 36 36 38 34 33 35 35 34 32 32 32 32 31 30 29 28 26 25 25 25 25
41 42 42 45 46 47 47 44 43 44 44 44 40 41 39 39 39 39 39 38 39 38 35 33 34 35 34 34 35 33 31 30 29 29 31 28 28 29 27 25 24 25 27 28
41 40 42 44 44 44 43 44 43 43 44 42 41 40 40 39 38 38 38 37 38 36 34 32 33 33 33 33 33 31 29 29 29 29 27 27 27 26 27 27 29 29 27 28
40 47 47 45 45 46 45 43 43 43 41 42 43 41 40 39 39 39 37 37 35 33 33 31 32 31 32 32 31 30 29 29 27 27 26 26 25 25 33 36 37 37 37 34
48 47 46 46 45 45 44 44 44 43 43 41 41 42 41 38 37 41 36 35 33 32 31 31 31 30 31 31 30 29 27 28 27 28 26 25 24 23 24 29 35 35 35 35
47 49 45 45 43 45 44 44 44 42 42 41 40 40 39 38 37 35 33 33 32 31 30 30 30 30 30 30 29 28 27 34 26 25 25 25 24 25 25 25 24 26 31 33
43 44 45 43 42 41 42 42 39 37 38 36 37 37 37 34 32 31 31 31 31 31 30 30 29 28 30 30 30 28 28 27 27 26 25 28 26 26 25 25 25 25 26 29
38 40 42 40 38 38 38 37 37 35 35 35 35 34 32 31 30 29 30 31 31 28 29 29 28 28 29 29 28 26 26 31 31 26 26 25 25 24 24 24 24 24 24 24
37 32 34 34 35 35 37 38 38 36 37 38 34 31 30 29 29 28 29 29 29 28 28 28 28 30 30 28 28 26 25 25 31 25 24 24 24 24 24 24 23 24 24 26
40 40 40 40 38 36 35 35 36 39 37 35 32 30 29 30 29 27 26 27 26 26 27 28 29 29 28 29 28 27 26 25 25 24 24 24 25 25 24 23 24 23 23 25
40 39 39 39 39 37 36 35 38 37 35 32 31 30 29 29 29 27 26 26 25 25 26 29 33 29 27 30 30 26 25 23 23 23 23 26 23 23 23 23 23 22 22 23
37 39 38 37 38 38 37 37 36 34 32 32 31 30 28 27 27 26 25 24 25 26 27 28 28 27 27 28 31 24 23 22 22 21 21 22 22 22 21 23 23 22 21 22
37 38 39 38 37 38 37 37 34 32 31 31 30 28 27 25 25 25 24 23 24 28 28 30 26 26 26 27 25 23 22 21 21 19 19 20 20 19 20 20 20 21 21 21
39 38 37 36 34 31 32 32 31 30 29 27 27 26 25 23 23 23 25 24 26 31 27 25 25 30 28 28 23 21 21 20 20 19 18 18 18 17 17 18 18 19 19 18
38 37 36 35 32 28 28 28 28 28 27 26 26 25 25 24 23 24 22 25 26 29 24 24 30 32 29 22 20 19 19 19 19 18 17 14 15 13 15 16 18 18 17 17
36 34 31 30 30 29 25 24 25 25 25 26 25 25 25 22 21 23 26 30 30 26 25 26 28 30 27 19 18 18 18 17 15 13 15 21 13 15 17 16 15 15 15 17
31 29 28 27 26 24 22 22 22 23 23 22 22 22 23 23 23 21 21 24 28 23 20 27 28 27 20 19 18 17 16 13 11 15 15 14 16 14 14 14 14 15 17 15
30 28 26 27 26 26 25 26 23 23 23 21 21 22 22 22 23 20 21 23 21 23 19 19 20 21 19 18 18 17 16 15 16 15 17 14 14 12 13 14 14 14 15 15
27 28 25 25 25 25 24 25 24 23 24 23 20 21 21 20 21 20 21 17 18 18 18 18 18 20 19 19 17 17 15 14 16 17 15 12 13 13 14 14 15 15 16 16

GFSNGP_sfc_temp_027.txt.gz
Temp
35 37 38 35 36 36 32 37 32 39 39 45 49 49 48 48 47 46 46 46 46 45 44 43 42 42 43 42 42 41 40 39 38 38 38 38 38 37 37 36 35 35 34 34
32 37 36 35 37 38 38 38 39 40 39 52 49 49 46 47 48 47 46 47 47 46 45 43 43 43 43 41 40 41 39 38 38 38 38 37 37 36 35 35 34 33 32 32
30 38 37 32 36 37 40 43 41 33 41 47 48 49 47 47 49 48 48 47 47 46 46 45 44 44 41 41 40 39 38 38 38 38 38 37 37 36 35 33 31 31 31 30
32 36 29 40 44 44 40 41 41 42 44 47 51 45 47 48 50 49 49 48 48 47 45 44 43 43 41 41 40 38 37 38 38 38 37 37 35 33 31 31 31 30 30 29
34 32 38 42 44 39 38 39 43 41 46 48 46 46 45 45 48 47 49 49 48 47 44 43 42 42 41 38 38 38 37 37 38 37 36 34 32 31 31 30 29 28 28 28
35 29 28 38 44 47 47 37 47 48 49 46 46 45 46 41 44 45 47 47 44 43 43 41 41 42 40 37 37 36 37 37 37 36 34 32 31 31 30 28 28 28 29 27
34 32 34 43 46 46 35 38 43 45 46 45 45 41 38 40 40 41 43 41 42 43 41 40 41 41 37 36 36 36 36 36 35 33 32 31 30 29 28 27 26 25 26 25
32 29 27 44 46 40 43 41 41 40 41 39 38 39 39 39 39 40 39 39 40 39 37 38 40 40 36 35 35 35 35 34 32 31 34 34 30 29 28 25 24 24 24 25
36 36 44 43 43 44 45 43 39 38 40 41 39 38 38 37 37 38 38 38 39 38 36 35 36 39 35 32 34 33 32 30 29 30 30 30 29 28 27 24 23 23 23 24
40 40 40 42 44 45 44 41 40 41 42 43 38 38 37 38 38 38 38 37 38 38 35 32 33 34 33 33 33 32 29 28 28 29 28 27 28 29 26 23 23 24 25 26
39 42 42 42 43 44 42 43 42 42 42 41 41 39 39 37 37 36 36 37 37 36 34 31 32 31 31 32 31 29 28 29 27 27 26 26 26 25 26 26 27 27 26 27
40 47 47 45 45 43 43 42 42 41 40 41 42 39 39 37 37 36 35 35 34 32 32 30 30 30 30 31 30 29 28 28 27 26 24 25 24 25 33 35 36 36 36 34
47 44 43 43 44 44 42 42 43 42 42 39 39 40 39 37 35 39 34 33 32 30 30 30 29 29 29 30 30 29 27 28 26 28 25 24 24 23 23 29 34 34 34 35
44 46 42 43 43 43 43 43 42 40 40 40 39 39 38 37 36 33 32 31 31 30 29 29 29 28 29 29 29 27 26 33 25 24 25 25 24 24 24 23 23 24 30 32
41 43 46 43 43 41 41 41 38 37 37 36 36 36 36 34 32 30 29 31 31 29 28 28 28 27 28 29 29 27 28 26 26 25 25 27 25 25 24 23 23 23 24 28
38 40 41 40 38 37 38 38 37 35 35 34 33 33 31 30 29 28 28 30 30 28 28 28 27 27 28 28 27 26 26 31 30 25 24 24 24 23 23 23 22 22 22 23
37 33 35 34 35 36 38 38 38 36 36 38 34 31 30 29 28 28 28 28 28 28 28 28 27 29 29 27 27 25 24 25 30 24 23 23 23 22 23 22 22 22 22 25
40 40 40 40 37 35 34 35 36 38 37 35 33 30 29 29 28 26 25 26 26 26 27 28 28 28 27 28 27 26 25 23 24 22 23 23 23 23 22 22 22 22 22 24
39 39 38 38 38 37 36 35 37 36 35 34 31 28 27 27 27 26 26 26 25 24 25 28 33 28 27 30 27 25 23 22 22 21 22 24 21 21 21 21 21 21 21 21
36 38 38 36 37 37 35 36 37 34 33 30 29 28 27 27 27 26 25 23 24 25 27 28 27 26 25 27 29 23 22 21 20 19 19 20 20 20 20 21 21 20 20 21
36 37 37 37 36 37 37 37 36 33 29 31 29 28 26 25 25 25 23 22 23 27 28 29 26 25 25 25 23 21 21 19 19 17 17 18 18 18 18 18 18 19 19 20
37 36 36 37 35 33 34 34 33 30 29 27 26 26 25 23 22 22 23 23 25 30 26 24 24 30 27 26 21 20 19 19 18 17 16 16 16 15 15 15 15 17 18 16
37 36 35 34 31 29 30 29 28 28 27 26 25 25 25 23 23 23 22 25 25 28 24 24 30 32 28 20 19 18 18 17 17 16 14 12 13 12 14 14 16 15 14 14
36 34 32 31 31 30 25 24 25 25 25 25 25 25 25 22 21 23 27 30 31 26 24 25 27 29 26 18 17 16 16 16 13 11 13 19 11 13 14 14 13 13 14 15
31 30 30 28 27 24 22 23 22 23 23 23 23 23 23 23 23 21 21 24 28 22 20 27 28 26 18 17 17 16 14 11 9 12 13 12 13 12 12 12 12 14 16 16
31 29 27 28 26 25 25 26 23 23 23 21 20 21 21 22 23 19 20 22 20 22 18 18 19 19 18 17 16 15 15 14 14 13 16 13 12 11 11 12 13 13 14 15
27 28 25 25 26 26 25 25 24 23 23 22 20 20 20 20 21 19 21 17 18 17 17 17 17 19 18 17 16 15 13 12 15 15 12 10 11 11 12 13 13 14 14 15

GFSNGP_sfc_temp_030.txt.gz
Temp
35 37 36 34 34 34 31 33 29 36 36 41 47 47 44 45 44 44 45 44 44 42 42 41 41 41 41 41 41 41 40 39 37 36 36 36 36 36 36 36 36 34 34 33
31 37 35 33 35 36 35 35 34 37 36 47 47 47 47 42 44 45 45 46 45 44 42 41 41 41 41 40 39 41 39 37 37 37 36 35 35 35 35 35 34 32 31 31
30 36 34 32 35 36 36 38 37 32 41 48 44 46 48 45 47 47 47 46 45 44 43 42 42 42 40 40 39 39 38 37 37 36 36 35 35 35 34 33 31 30 29 29
31 34 29 39 44 43 39 42 43 44 46 46 46 48 46 47 47 46 47 47 45 44 43 42 42 41 40 40 39 38 37 37 36 36 35 35 35 33 33 31 29 28 28 28
32 32 36 41 41 38 36 37 44 44 45 47 44 44 42 44 47 47 48 48 46 45 43 42 41 41 40 38 37 37 36 36 36 35 35 34 33 32 29 28 27 26 27 26
33 30 28 40 44 45 44 38 43 44 45 43 44 40 42 42 45 47 47 46 43 42 42 41 40 41 39 36 36 35 35 35 35 35 34 32 30 29 28 27 27 27 28 26
35 32 34 43 45 45 35 37 45 45 45 44 42 44 40 42 40 42 43 41 42 42 41 39 40 41 37 36 35 35 36 35 34 33 31 29 28 27 26 26 25 24 25 24
35 31 26 44 44 38 42 41 41 40 42 43 39 39 39 39 39 40 39 39 40 38 37 38 40 40 36 34 33 35 34 32 31 30 33 32 28 28 27 24 23 23 23 24
36 35 43 42 42 44 44 42 38 38 39 40 37 36 37 36 37 37 37 37 38 37 36 35 37 39 34 31 33 32 30 29 28 29 29 29 29 27 25 23 22 22 23 23
39 40 40 42 43 42 42 39 39 40 40 40 36 36 35 36 36 36 36 36 37 37 35 32 34 34 33 32 32 31 28 27 27 27 26 26 27 28 25 23 22 23 24 26
38 41 41 43 40 39 39 41 41 41 41 39 39 37 36 35 35 36 36 37 38 36 33 31 33 31 31 31 31 29 27 27 26 26 25 25 25 24 25 25 26 26 26 26
39 45 44 42 42 42 41 40 41 40 39 40 40 37 37 36 37 36 35 35 33 32 31 30 30 29 29 30 29 28 27 27 26 25 23 24 23 24 32 34 36 36 35 33
45 43 42 42 43 42 40 40 41 41 40 38 38 39 38 35 35 38 34 34 32 30 29 29 28 27 28 29 29 28 26 26 25 27 25 23 23 22 22 28 33 34 34 34
42 43 41 41 41 42 42 41 41 40 39 39 38 38 37 35 35 33 31 30 30 30 29 28 27 26 27 28 28 26 26 33 24 23 24 23 22 23 22 22 21 23 29 31
41 43 44 41 41 40 41 41 39 37 37 35 37 36 36 33 31 28 29 30 30 28 27 27 26 25 27 28 28 26 27 26 24 24 23 26 24 23 22 22 22 22 23 26
37 39 40 39 38 38 38 38 37 35 35 35 33 32 30 29 28 28 28 30 30 27 27 27 26 26 27 28 26 25 25 31 30 24 23 23 23 22 21 21 21 21 21 22
38 34 35 34 35 36 38 38 38 36 35 36 32 30 30 29 28 27 26 27 28 27 28 28 27 29 28 26 26 24 23 24 29 23 22 22 22 21 21 21 21 21 21 24
40 39 41 42 39 36 35 35 36 36 35 34 33 30 30 29 26 25 25 26 26 26 28 28 28 27 27 27 26 25 24 22 23 21 22 21 22 22 21 20 20 20 21 22
39 39 39 39 39 37 36 35 34 35 35 33 30 27 27 27 27 26 26 26 25 24 25 28 32 28 27 29 26 24 22 21 21 20 20 23 19 19 20 20 20 20 20 20
36 37 38 36 37 37 34 36 36 34 33 30 28 27 26 26 27 26 25 23 23 24 26 27 26 25 25 27 27 21 21 20 18 18 18 18 18 19 18 20 20 18 18 19
34 36 36 36 35 36 37 37 35 32 31 30 29 27 25 24 25 25 24 22 23 27 27 29 25 24 24 24 22 20 19 18 18 16 16 16 16 16 16 16 16 17 17 18
35 35 35 36 35 34 35 35 33 31 28 27 27 26 25 23 23 23 23 23 25 30 25 24 24 28 26 25 20 18 18 18 17 16 15 15 15 14 13 14 13 15 16 15
36 35 35 35 33 30 30 31 30 29 27 27 26 25 25 24 24 24 22 25 24 28 23 24 30 30 27 19 18 17 16 16 16 15 13 11 12 10 12 12 14 14 12 13
34 34 32 32 31 30 27 25 26 25 25 25 25 26 25 23 21 23 27 30 31 26 23 25 27 28 25 17 16 15 15 15 12 10 11 18 10 11 12 12 12 12 13 14
30 29 31 30 28 25 23 23 23 23 23 23 23 23 23 23 23 21 22 24 28 22 19 27 28 25 17 16 16 15 13 10 8 11 11 10 11 10 11 11 11 12 16 15
31 31 29 30 28 27 26 27 24 24 24 21 20 21 21 22 24 19 20 21 19 22 17 17 19 19 17 16 16 14 13 12 13 12 15 12 11 10 11 11 12 13 13 13
28 29 26 25 26 26 25 26 25 24 24 23 20 19 20 20 21 19 20 16 17 17 16 16 16 18 17 16 15 14 12 11 14 14 10 9 9 9 11 12 12 13 13 13

GFSNGP_sfc_temp_033.txt.gz
Temp
35 37 38 34 33 34 31 33 28 35 32 39 44 47 48 48 48 44 43 43 44 43 44 44 44 46 46 45 44 45 44 44 42 42 42 42 41 41 41 42 41 40 40 39
32 37 38 32 35 35 34 34 33 35 34 46 48 48 47 49 47 45 44 44 43 43 44 44 44 44 44 44 44 45 43 41 41 41 41 40 40 40 40 39 39 39 38 37
30 39 36 32 36 37 36 37 37 31 40 46 46 48 47 48 47 47 47 45 44 44 44 44 44 45 43 43 44 43 41 41 41 41 40 39 39 39 39 38 38 37 36 36
30 34 28 39 45 43 40 39 40 41 43 47 48 49 48 48 47 48 47 45 45 45 43 44 45 44 43 43 42 41 40 40 40 40 39 39 39 38 38 38 37 36 35 35
31 32 38 42 43 41 38 39 44 41 45 48 46 45 45 46 48 48 48 47 46 46 44 44 43 43 42 41 41 40 40 40 39 39 38 38 37 37 36 36 35 34 34 33
33 29 27 39 45 46 45 38 44 45 45 44 45 40 43 42 46 46 47 46 44 44 44 43 43 43 42 40 40 39 39 38 39 39 38 37 37 35 34 34 34 34 34 34
33 32 34 43 44 44 36 39 44 45 46 45 43 42 41 42 41 44 45 43 44 44 43 42 43 43 40 40 38 38 38 38 38 37 36 36 35 34 33 33 32 32 32 33
35 32 28 42 44 39 43 43 43 43 45 44 40 39 39 39 39 41 40 40 41 40 40 42 43 42 39 36 37 38 37 36 35 35 37 35 34 33 32 31 31 30 30 32
37 36 43 43 44 44 42 41 40 40 41 42 39 37 38 37 37 38 38 38 40 39 38 39 41 41 36 35 37 36 34 33 33 34 34 34 34 32 32 30 29 29 30 30
40 43 42 44 43 41 41 39 39 39 39 40 36 36 36 36 37 37 38 37 39 38 36 34 37 37 36 36 36 34 32 31 32 32 31 31 32 33 31 30 29 30 30 30
38 42 42 42 41 40 40 40 40 39 39 37 37 35 36 35 36 36 37 38 38 36 34 33 35 34 35 34 34 32 31 31 31 30 30 30 31 30 31 31 31 32 31 31
39 45 44 43 42 42 41 40 40 40 38 39 39 37 37 36 36 36 35 35 34 33 33 32 33 32 32 33 33 32 31 31 30 30 29 29 29 29 33 35 35 35 35 34
45 42 42 42 43 43 41 41 41 41 40 38 39 38 37 35 36 37 34 34 33 31 31 31 31 30 30 31 32 31 29 30 31 29 29 28 28 27 26 30 32 33 33 33
43 43 41 41 41 42 42 41 41 40 40 39 38 38 37 35 35 33 31 31 32 31 30 30 29 28 29 30 31 30 30 32 28 28 28 28 27 27 26 25 24 26 30 31
41 41 43 41 40 39 41 41 38 37 37 36 37 36 35 33 30 29 30 31 31 29 28 29 28 27 29 30 30 29 29 29 28 28 27 29 27 26 26 25 24 24 26 27
38 39 41 39 38 38 39 39 37 36 36 35 34 33 31 30 29 29 30 31 30 28 28 28 27 28 29 29 28 27 28 32 30 27 26 26 25 25 24 24 23 23 23 24
37 34 35 35 36 37 39 40 39 36 35 34 31 31 30 29 29 28 27 29 29 28 29 29 28 29 29 28 28 27 26 27 29 25 25 24 24 24 23 23 22 22 23 24
41 40 41 42 39 37 36 36 36 36 34 32 31 30 30 30 27 26 26 27 27 27 28 28 28 28 28 28 27 26 26 25 25 23 24 23 25 23 22 22 22 21 22 23
39 39 40 40 40 38 36 35 35 34 34 33 31 28 28 27 27 26 26 26 25 25 26 29 32 29 28 30 27 25 24 23 22 22 22 24 21 21 21 21 21 21 21 21
36 37 38 37 38 37 34 35 36 35 33 31 29 28 26 25 26 26 26 23 24 26 27 28 27 26 26 28 27 23 22 22 21 20 20 21 20 20 20 20 20 19 19 20
34 36 36 36 35 36 36 37 35 32 32 31 30 27 26 24 25 25 24 23 24 28 27 29 25 25 25 24 23 22 21 20 20 18 18 18 18 17 18 17 17 18 18 19
34 34 34 35 34 33 35 36 34 31 29 28 27 27 26 23 23 23 24 24 25 30 26 24 24 28 26 25 21 20 20 19 18 18 17 17 16 15 15 15 15 16 17 17
34 35 34 34 33 31 31 31 31 30 28 28 27 27 26 24 25 25 22 25 25 29 24 25 30 29 27 20 19 18 18 17 17 16 16 15 15 14 13 14 15 16 14 15
33 33 31 31 32 31 26 26 27 27 26 26 25 26 26 23 22 24 28 30 31 26 24 25 28 28 24 18 17 17 17 16 15 13 14 19 13 13 13 14 13 14 14 15
29 31 30 30 30 27 24 24 23 23 24 23 23 24 24 24 24 22 23 25 29 22 20 28 28 25 18 17 17 16 15 14 12 14 15 13 13 12 12 13 13 14 17 17
30 32 31 31 28 27 27 28 25 24 24 22 21 21 22 24 24 20 21 22 20 22 18 18 19 18 17 17 17 15 15 14 14 13 15 14 12 11 12 12 13 14 14 14
26 29 27 26 28 28 27 27 25 24 25 24 20 20 20 20 21 20 20 17 17 17 16 16 16 18 18 17 15 15 14 13 14 15 14 11 11 10 11 12 12 13 14 14

GFSNGP_sfc_temp_036.txt.gz
Temp
40 42 41 37 36 36 32 34 30 38 38 43 48 49 54 57 57 56 54 50 51 52 54 54 52 51 49 48 49 49 48 48 49 53 52 51 50 51 51 51 50 49 48 46
32 41 40 33 38 37 36 36 34 35 36 50 54 56 55 56 56 53 50 50 51 51 52 49 48 47 46 46 47 48 46 46 49 50 49 49 49 49 48 47 47 47 46 44
32 39 39 35 38 38 39 39 38 33 44 52 50 50 51 50 51 52 51 49 50 50 48 48 47 47 45 46 48 47 46 48 49 49 47 48 48 48 46 46 46 45 44 44
32 35 29 45 49 46 41 43 42 45 48 50 48 50 52 51 50 51 51 50 51 48 46 47 48 48 47 48 48 48 48 48 48 48 46 47 47 46 46 46 45 45 44 44
31 32 40 47 49 45 38 39 45 43 46 48 50 51 48 48 52 53 53 52 52 48 47 50 50 51 51 50 49 48 47 47 47 47 46 46 45 46 45 44 44 44 43 42
34 30 31 47 51 50 47 36 42 44 44 46 48 48 47 48 49 47 52 52 50 51 52 52 51 52 50 48 48 45 45 46 47 48 47 46 45 43 43 44 43 43 42 42
34 32 41 53 53 51 41 40 48 45 46 47 46 45 45 49 49 46 48 50 51 51 50 49 50 50 46 47 44 45 46 47 46 47 45 44 43 43 42 42 42 42 41 42
36 35 33 51 55 47 51 52 51 50 48 45 45 43 43 43 43 45 46 47 47 44 44 47 48 48 47 44 44 44 44 43 42 43 43 43 41 41 41 41 41 40 40 40
45 47 53 53 53 54 51 49 49 47 48 45 42 41 41 42 44 43 43 44 47 47 46 48 49 46 41 41 42 42 41 40 42 42 42 42 41 40 41 40 39 39 38 38
47 54 53 53 53 49 48 46 45 46 47 48 42 42 41 42 42 43 44 44 46 45 44 44 44 41 40 41 41 41 41 41 41 41 40 40 41 40 40 39 38 38 37 36
48 53 55 51 50 48 46 46 45 46 46 45 43 42 42 40 40 41 42 43 45 43 42 41 42 40 40 41 43 42 41 40 40 40 40 39 39 39 39 39 37 36 36 36
50 54 53 52 49 48 46 44 45 44 42 44 44 41 42 40 41 40 40 41 40 40 40 40 41 40 41 43 43 42 40 40 40 39 39 39 39 38 35 34 35 35 35 34
55 52 49 49 48 47 45 45 45 44 44 41 43 42 41 39 40 40 40 40 39 38 39 40 40 40 41 42 42 41 39 38 38 38 37 37 36 35 34 37 36 35 34 33
54 51 48 48 47 47 46 45 44 43 44 43 42 42 41 39 39 38 38 38 39 39 39 40 39 38 40 41 40 39 37 35 37 37 36 36 35 34 34 32 31 32 34 33
51 50 50 48 46 44 44 44 41 40 41 40 41 40 40 38 37 36 39 39 39 38 38 38 37 36 39 39 37 37 37 36 36 36 35 34 33 33 32 31 30 31 32 32
45 45 45 44 42 42 43 43 41 39 40 40 39 39 38 37 37 37 38 39 38 36 36 36 35 36 37 37 36 36 36 33 34 34 33 32 32 31 30 30 30 29 29 29
41 37 37 36 38 41 43 44 43 41 41 39 37 36 36 36 36 36 37 38 37 36 36 35 34 35 35 36 35 35 35 34 31 32 32 31 30 30 29 29 28 28 28 29
48 47 44 45 44 43 42 42 41 41 39 37 37 37 37 37 35 34 34 35 34 34 34 35 35 34 34 34 34 34 33 32 31 30 30 29 29 29 28 27 27 26 27 28
46 46 47 46 46 44 41 40 41 39 38 37 37 36 36 35 34 33 35 34 33 32 32 35 33 33 33 32 33 33 32 30 30 29 28 28 28 28 27 26 26 26 26 25
42 44 45 44 43 42 40 40 39 38 38 37 35 34 32 32 32 32 34 33 34 34 34 33 33 32 32 31 30 31 30 29 28 28 27 27 26 26 25 24 24 24 24 24
41 41 41 41 40 41 41 41 39 36 36 36 35 33 32 32 32 32 30 29 31 33 33 32 32 31 31 30 30 30 28 28 27 26 25 25 25 24 24 23 23 23 23 23
41 40 40 40 40 39 40 40 38 36 36 35 33 31 30 29 30 29 32 31 32 32 31 31 31 30 30 28 29 28 26 26 26 25 25 24 23 22 22 22 21 21 22 22
40 40 39 39 38 37 37 37 36 35 33 32 31 31 31 31 32 30 27 30 32 31 31 31 31 29 27 28 27 26 25 24 24 24 23 22 22 21 21 21 21 21 21 21
38 39 37 36 36 35 31 33 34 34 33 32 31 31 30 29 29 32 32 32 32 31 31 32 30 28 26 26 26 25 25 24 23 22 22 22 21 21 20 20 20 21 21 21
34 33 33 33 34 32 29 29 28 29 29 29 29 30 31 32 31 30 31 31 31 29 29 30 28 25 25 25 25 24 24 23 22 23 22 20 20 19 20 20 19 20 21 22
34 34 35 35 32 32 31 32 30 30 29 27 27 28 28 29 30 28 28 27 27 26 25 25 26 25 24 24 24 23 23 22 22 21 20 20 19 18 19 19 19 19 20 20
32 32 30 30 32 32 33 31 29 29 29 28 25 26 26 26 27 26 26 25 25 24 24 23 23 23 24 24 22 22 21 21 20 20 20 19 18 18 18 18 18 19 19 19

GFSNGP_sfc_temp_039.txt.gz
Temp
43 45 45 42 40 41 34 35 30 36 36 45 49 52 52 53 56 58 60 59 57 56 59 60 60 61 59 57 57 57 55 53 52 52 52 52 53 53 53 52 51 51 50 49
33 42 43 37 43 42 38 38 36 37 36 49 54 55 53 55 56 58 57 55 55 55 57 56 55 54 52 52 52 51 51 49 49 50 50 51 50 50 50 48 49 49 48 46
32 42 42 36 40 40 40 43 40 34 45 53 51 51 49 48 49 51 53 52 52 53 53 51 49 49 48 49 48 47 46 47 47 48 48 49 49 49 47 47 48 47 46 46
32 38 31 47 54 51 44 43 44 46 49 50 48 49 47 48 49 50 53 50 52 51 49 48 47 47 47 47 46 45 45 46 46 46 46 48 48 47 47 47 46 46 45 45
31 34 43 50 52 48 43 39 44 42 46 48 51 50 43 47 50 51 52 53 51 50 47 46 46 47 47 46 45 45 44 44 46 48 48 48 46 46 46 46 45 45 44 44
36 30 32 50 56 54 49 40 46 43 46 48 49 43 39 44 46 51 50 47 46 47 46 45 44 47 45 43 44 43 47 49 50 49 48 47 46 44 45 45 44 44 43 44
33 31 42 56 56 55 42 43 52 45 45 49 45 45 47 44 42 46 45 43 45 45 43 43 45 46 46 48 47 48 49 49 48 47 46 45 44 44 44 43 43 43 42 44
34 32 33 56 57 48 53 55 54 49 46 44 45 44 44 45 43 45 48 51 52 51 51 53 53 51 47 44 45 46 45 44 44 44 45 44 42 41 42 42 42 42 41 42
43 46 60 61 57 58 54 52 52 50 46 44 41 42 43 40 40 41 44 44 46 45 46 48 48 45 42 43 44 42 42 42 43 43 43 42 41 40 41 41 41 40 39 38
49 56 58 60 60 55 52 50 50 51 52 50 45 44 44 45 45 45 46 47 48 47 45 42 43 42 41 41 42 42 42 42 42 41 41 42 41 40 40 40 39 38 37 36
52 57 59 55 53 52 50 50 49 50 51 48 46 44 44 44 44 45 46 47 48 45 42 40 40 39 41 42 44 42 42 41 41 41 41 40 40 40 39 40 37 34 34 34
51 56 55 53 53 51 49 47 48 47 46 48 47 44 45 43 44 44 44 45 43 41 39 39 40 40 43 45 44 42 40 41 41 40 40 40 39 39 36 36 35 35 35 34
58 56 55 53 51 51 48 47 47 46 46 44 45 45 44 42 43 44 43 42 40 39 39 40 41 42 44 45 44 43 40 39 38 39 39 37 37 36 34 37 38 37 36 35
60 56 52 52 50 49 48 47 47 46 46 45 44 44 43 42 42 41 40 40 41 41 41 41 41 40 43 43 41 40 38 39 39 37 36 36 35 34 34 33 31 33 36 35
57 57 55 53 49 46 46 45 42 41 43 42 44 42 42 40 39 39 41 41 41 41 40 40 39 38 41 41 39 38 38 37 37 36 35 34 34 34 33 32 31 31 32 34
53 51 50 48 45 44 44 45 43 42 42 42 42 41 40 39 39 39 40 41 39 37 38 37 37 38 39 39 38 37 35 34 35 34 34 33 33 32 31 31 30 30 29 29
44 40 40 39 41 44 45 46 45 43 43 42 39 39 38 38 38 38 39 40 39 38 37 36 35 37 37 37 37 36 35 34 32 33 32 31 31 31 30 29 28 28 28 30
52 51 49 47 46 46 46 46 45 44 42 41 40 39 38 38 36 36 37 37 37 35 35 35 36 36 36 36 36 35 34 33 32 31 31 30 30 29 29 28 28 27 28 29
51 50 50 49 49 48 45 44 45 43 41 40 40 39 39 37 36 36 36 35 34 32 32 34 34 35 33 33 34 34 33 32 31 31 30 30 29 29 28 27 26 26 26 26
46 49 50 49 48 46 44 45 43 41 41 41 40 37 36 35 36 36 37 35 36 34 35 33 35 34 32 32 33 32 31 30 30 29 29 28 28 27 27 27 26 25 25 25
44 45 45 44 44 45 45 44 42 40 41 40 38 36 34 35 36 34 32 30 32 35 34 34 34 32 32 31 32 31 30 29 29 28 27 26 26 26 25 25 24 24 24 24
45 44 44 44 43 43 43 44 43 40 40 39 37 35 34 32 33 33 35 32 33 34 33 33 32 32 30 30 30 29 28 28 27 27 26 25 24 23 22 23 22 23 23 23
44 44 44 43 43 42 43 41 40 40 37 35 34 33 33 32 33 30 28 33 33 33 33 33 31 30 29 30 29 28 27 26 26 25 24 24 23 22 22 21 22 22 21 22
43 43 43 43 41 39 36 37 37 36 35 35 34 34 33 31 31 34 34 34 33 33 33 31 30 28 28 28 27 26 26 26 25 24 24 25 22 22 21 21 20 21 21 21
37 35 36 36 37 36 33 33 32 32 33 32 32 33 34 35 32 31 32 32 33 32 30 30 28 27 27 27 26 25 25 24 23 23 23 22 21 20 21 20 20 20 20 21
36 37 37 38 35 33 32 34 32 32 31 30 30 30 30 31 32 31 31 30 29 29 27 27 27 26 26 25 25 25 24 24 23 22 22 21 21 20 19 19 19 19 20 20
36 37 33 33 34 34 35 33 32 31 32 30 27 29 29 29 29 29 29 27 27 26 26 25 25 25 25 24 24 24 23 23 23 21 21 20 19 19 19 19 18 19 19 19

GFSNGP_sfc_temp_042.txt.gz
Temp
39 41 41 38 38 40 33 35 31 35 36 41 44 45 48 53 51 50 52 55 53 49 50 55 55 55 55 54 50 50 48 49 50 51 51 51 50 50 49 49 48 46 44 44
28 39 38 34 40 41 40 40 38 38 37 48 50 51 48 46 48 49 51 50 50 50 50 53 52 50 50 49 48 49 49 48 50 49 49 48 48 47 46 46 45 45 43 42
30 38 37 32 40 42 41 43 41 35 42 49 48 48 45 45 46 47 49 49 48 50 49 48 48 48 45 45 48 48 47 47 47 47 46 45 45 44 42 43 42 42 41 42
30 33 24 43 49 48 45 46 44 44 46 46 47 44 43 45 43 47 50 50 51 48 47 46 47 46 47 47 46 46 45 45 46 45 45 45 44 44 42 44 42 41 41 41
30 28 37 44 47 44 41 40 46 43 45 47 50 44 42 43 46 47 49 48 47 46 45 45 45 46 45 45 44 44 43 43 43 45 44 43 41 42 40 40 39 40 41 40
31 26 27 42 48 50 46 35 45 44 44 45 45 39 38 41 44 44 45 45 44 45 45 44 45 45 43 41 41 39 40 39 40 39 37 39 40 39 39 40 40 40 39 37
32 30 35 48 51 51 35 36 45 45 44 43 38 40 41 42 40 41 42 43 43 42 39 40 41 41 39 38 36 38 38 38 40 41 40 41 40 40 39 39 38 36 36 36
33 31 27 51 51 41 44 46 47 45 45 42 41 42 41 41 40 39 39 40 40 39 39 40 40 38 34 33 35 38 41 41 41 41 43 40 37 36 36 35 34 33 33 32
38 38 50 54 49 49 47 45 44 43 44 43 41 40 39 39 39 42 43 44 45 43 42 43 43 43 40 40 41 41 40 39 40 40 39 37 34 33 33 34 33 31 30 29
43 49 51 49 51 48 46 44 45 46 45 45 40 41 40 39 38 38 40 41 41 40 39 39 41 41 40 40 42 41 38 37 36 34 35 35 35 34 32 31 29 28 27 26
44 49 49 48 47 46 46 46 46 46 46 44 42 41 41 41 42 43 43 42 41 39 37 36 38 38 41 42 41 37 36 34 34 35 33 32 32 31 30 30 30 27 26 26
41 49 48 45 46 48 45 44 45 43 43 43 43 41 41 40 42 42 40 39 38 38 37 38 40 40 41 40 38 36 33 32 32 30 30 30 30 30 37 37 37 36 36 32
48 48 48 47 46 46 43 43 44 43 43 41 42 42 41 40 41 42 39 39 37 37 38 39 40 39 38 38 36 34 30 30 30 30 29 28 28 27 26 31 38 39 38 37
52 50 45 46 43 44 43 44 45 43 43 42 41 42 41 40 40 37 36 38 39 39 38 38 36 35 36 35 32 31 30 37 28 27 27 27 27 27 26 25 24 25 33 35
50 50 48 46 43 42 42 41 38 38 39 39 40 39 39 37 36 36 37 40 39 37 36 35 33 32 34 33 31 29 29 28 27 26 26 28 27 27 26 25 25 24 24 29
45 46 45 42 40 40 40 41 39 39 39 39 38 37 37 36 36 35 35 36 34 30 30 30 29 30 32 31 29 28 28 35 32 27 26 26 26 25 25 24 23 23 22 23
39 35 36 34 37 40 42 43 41 40 40 38 36 36 35 35 35 33 33 33 32 30 29 30 29 31 31 30 29 27 26 26 33 26 25 25 25 24 24 23 23 22 22 26
45 43 42 42 44 43 42 42 42 41 38 37 36 36 35 33 31 31 30 31 30 29 29 29 29 29 29 29 29 27 26 25 26 24 25 25 24 24 23 23 23 22 23 25
46 45 46 46 47 46 44 42 41 39 38 37 36 35 34 33 32 31 31 29 27 26 26 29 34 29 27 32 29 26 25 25 25 24 24 27 23 23 23 22 22 22 21 23
44 46 47 46 45 44 42 42 39 38 38 38 36 34 32 31 31 31 30 28 27 28 29 30 28 26 26 29 31 25 24 24 23 23 23 22 22 22 21 24 23 22 21 23
42 43 43 43 42 43 43 40 39 37 38 37 35 32 30 30 30 30 28 26 27 31 30 32 27 26 26 27 26 23 23 22 22 20 21 20 20 20 20 20 21 22 22 22
40 40 41 41 41 39 40 40 39 37 36 34 33 31 30 28 28 28 29 28 29 34 28 26 25 30 27 30 24 22 22 22 21 20 19 19 19 17 15 15 15 18 19 17
40 40 39 39 38 38 38 37 36 36 35 33 32 31 30 30 29 27 24 28 27 32 26 25 30 31 31 23 22 22 21 21 20 19 15 13 14 11 12 13 15 15 14 16
38 38 38 38 37 36 32 31 31 31 32 32 32 32 31 27 25 27 30 32 33 31 26 27 28 30 29 21 20 20 20 19 15 12 15 22 11 12 12 13 13 14 15 17
28 28 28 29 30 29 28 28 29 30 30 30 30 30 30 29 27 27 28 29 34 28 25 31 30 29 22 20 20 19 17 13 9 11 13 11 10 11 12 13 13 15 16 15
30 31 30 31 30 29 31 32 30 29 30 28 28 27 27 29 30 28 27 28 26 28 22 23 22 22 21 21 19 19 17 15 15 14 15 12 12 11 12 13 14 15 16 15
27 31 25 28 30 32 32 31 30 29 31 30 26 27 27 27 27 26 27 24 24 23 22 22 21 22 20 20 19 18 15 13 19 15 11 9 10 10 12 13 14 15 15 16

GFSNGP_sfc_temp_045.txt.gz
Temp
35 37 37 34 35 36 32 35 29 35 37 43 47 47 48 47 49 47 48 49 51 48 49 49 49 48 48 49 49 49 48 48 47 49 50 50 49 49 49 47 45 43 42 41
23 36 36 30 37 37 37 37 36 37 36 49 51 51 49 46 47 47 46 48 48 49 46 45 49 49 49 47 48 49 47 47 47 48 49 47 47 46 46 45 44 43 41 41
22 35 34 29 36 38 39 40 39 36 43 49 47 47 41 41 42 43 47 50 46 43 42 44 47 47 46 47 48 47 47 47 47 47 45 43 43 42 40 39 39 37 37 39
23 29 22 40 47 46 42 43 43 44 46 47 46 42 41 42 40 43 48 48 46 45 44 45 46 46 47 46 46 45 44 44 44 43 41 42 41 39 38 39 38 38 39 41
27 25 34 42 43 43 39 38 44 42 45 46 47 44 40 42 43 42 43 43 43 44 44 44 44 45 44 44 43 41 41 40 40 40 39 38 37 36 35 34 36 38 40 39
31 24 25 39 46 47 45 33 43 42 44 44 44 38 37 39 42 42 43 43 43 44 44 43 43 43 40 39 38 38 38 37 39 39 37 36 36 38 38 39 40 40 39 37
31 30 33 43 48 47 33 36 42 43 44 42 39 39 39 41 39 41 41 40 42 41 39 40 41 41 37 36 35 36 38 37 37 37 35 35 36 38 39 38 37 36 34 33
33 29 27 47 46 39 43 43 43 43 44 41 41 40 40 40 39 39 39 39 40 37 35 36 38 38 36 34 36 35 36 35 34 36 40 39 37 36 36 34 32 31 32 31
36 36 46 46 45 44 44 43 41 42 44 43 40 39 39 38 39 40 38 37 37 35 34 34 36 38 35 33 34 36 38 38 38 39 38 34 32 31 31 32 31 28 27 26
39 46 46 45 43 43 43 41 43 44 43 42 40 40 39 39 39 40 39 40 41 40 39 38 40 40 39 40 40 40 38 37 35 33 33 33 33 32 30 28 26 26 25 24
41 46 44 43 42 43 43 44 44 44 43 41 41 38 38 39 40 40 40 41 40 38 36 36 39 39 41 41 40 37 35 32 32 32 30 28 29 28 27 27 28 25 25 26
40 47 46 43 43 45 43 42 44 42 40 41 41 40 40 39 40 40 38 39 37 37 37 38 40 39 39 40 38 34 31 30 29 28 27 27 26 27 37 37 37 37 36 33
47 46 46 44 44 43 42 41 42 41 42 39 40 40 41 38 38 40 38 38 37 37 38 39 39 38 37 37 34 32 28 29 29 28 26 25 24 24 24 28 36 36 37 37
49 48 43 43 41 42 42 41 42 41 41 41 40 40 41 39 38 37 37 38 39 38 37 37 35 32 33 33 31 30 30 34 26 25 25 24 24 24 24 24 23 23 31 33
45 46 46 42 40 39 39 39 37 37 38 37 38 38 38 35 34 35 38 39 38 37 35 35 33 30 32 31 29 27 27 26 24 24 25 27 25 25 24 24 23 22 23 28
43 42 41 39 37 37 36 37 36 37 37 36 36 36 35 35 34 34 36 37 34 30 30 30 29 29 29 28 27 27 28 34 29 25 25 25 24 24 23 22 22 21 21 22
40 35 33 31 35 36 37 40 41 39 38 36 34 35 34 34 32 31 30 31 30 29 28 29 28 29 29 28 27 25 25 26 31 25 24 24 23 23 22 22 21 21 20 25
42 43 42 40 41 39 40 41 40 40 37 37 36 35 34 33 30 29 28 29 28 27 28 28 28 28 28 28 27 25 25 24 25 23 24 24 23 23 22 22 21 20 21 24
43 45 42 43 43 44 42 41 40 37 36 36 35 33 33 31 29 29 29 28 27 26 26 28 33 29 28 30 27 25 24 24 23 23 23 25 22 21 21 21 20 20 20 22
43 45 45 43 43 41 41 41 39 37 37 36 34 32 30 29 29 29 28 26 26 26 28 29 27 27 27 30 29 24 23 23 22 21 22 20 20 20 19 22 22 21 20 21
40 42 42 42 41 42 41 40 38 36 36 35 34 32 30 29 29 28 26 25 25 30 29 30 26 25 26 27 24 22 22 21 21 18 19 18 19 18 18 18 19 20 20 20
39 40 40 40 39 38 38 38 38 36 35 34 33 31 29 27 27 26 28 28 28 34 27 25 24 29 27 29 22 21 21 21 20 18 17 17 17 15 13 13 13 17 17 16
38 39 39 38 37 36 36 37 36 36 33 32 32 31 31 31 29 27 24 27 28 30 25 24 31 33 32 21 21 20 20 20 19 18 14 11 12 9 10 11 12 14 13 14
35 37 37 36 35 34 31 30 31 31 31 32 31 32 31 28 26 27 29 32 32 31 25 27 30 32 28 20 20 19 18 18 13 10 13 21 9 9 10 11 11 13 13 15
28 28 27 28 29 29 27 26 26 28 30 29 29 30 32 31 29 27 29 29 33 28 25 33 32 31 22 20 19 18 15 11 7 9 11 9 8 8 10 10 11 12 13 12
29 30 30 30 29 28 28 30 29 30 29 28 27 28 28 29 29 27 27 29 28 29 24 25 24 23 22 21 19 18 16 13 14 13 14 10 9 9 10 11 12 12 14 13
26 30 23 27 28 29 31 31 29 29 31 29 27 28 28 28 27 27 28 26 25 23 23 23 23 24 21 20 18 17 13 12 17 13 10 8 8 8 10 11 12 13 14 14

GFSNGP_sfc_temp_048.txt.gz
Temp
33 35 35 33 33 34 27 34 27 34 36 41 45 48 50 49 48 47 48 50 47 46 44 44 43 42 42 44 45 46 45 45 46 48 50 49 48 48 47 46 44 43 42 40
23 34 34 29 34 35 35 37 37 38 36 48 51 51 44 44 43 44 45 48 47 43 41 42 42 43 44 45 46 47 46 46 46 46 47 46 45 44 43 41 41 40 39 39
22 33 32 26 34 36 36 37 40 34 42 48 47 45 40 39 40 40 44 47 45 44 44 44 44 43 42 44 46 45 45 44 45 44 43 42 42 40 39 37 38 37 36 37
21 28 20 38 45 45 40 41 42 42 46 47 46 42 40 41 40 40 42 43 41 40 40 43 44 44 43 41 41 40 40 40 41 41 40 39 38 37 36 37 36 35 34 36
26 25 32 42 44 41 38 38 42 41 43 46 47 44 39 41 42 41 41 42 42 43 43 43 44 44 42 41 40 39 38 38 39 39 37 37 34 33 34 33 33 34 36 36
30 23 26 39 43 46 43 32 43 42 44 44 44 39 38 38 41 40 42 43 42 43 42 42 42 42 41 39 38 37 37 36 37 36 34 34 33 33 32 35 36 38 38 37
31 29 33 42 44 45 31 36 42 42 43 43 40 39 39 41 39 40 40 40 41 40 39 39 41 41 37 36 34 34 34 34 36 36 34 33 33 35 35 36 37 35 33 32
33 30 25 44 44 38 43 41 42 41 41 41 40 40 40 39 39 39 39 38 37 35 34 36 39 37 34 32 34 34 35 35 33 34 36 35 35 35 35 33 31 29 29 28
36 35 44 45 44 43 43 42 41 40 42 41 40 39 39 39 37 37 37 36 36 35 33 34 36 37 33 34 35 34 34 33 33 36 37 34 32 30 29 29 28 27 26 24
40 44 45 47 43 42 41 40 42 42 42 41 40 40 39 39 39 39 39 38 38 37 35 34 37 37 34 35 35 36 36 34 33 32 31 31 31 30 28 27 25 25 25 23
41 43 42 42 43 42 42 42 42 43 42 41 40 38 39 39 39 39 39 40 40 37 37 37 38 38 37 37 36 33 31 30 30 30 29 28 28 27 27 26 27 25 24 26
40 48 45 44 43 44 42 41 42 41 40 40 41 39 39 40 41 40 38 38 37 37 37 38 38 38 37 36 35 32 30 29 29 27 26 26 26 26 37 37 38 37 36 32
46 46 45 42 42 41 40 40 41 40 40 39 39 40 39 38 40 40 38 37 37 37 37 38 37 36 37 33 32 30 27 27 27 27 25 24 24 23 24 27 34 35 35 35
48 46 42 42 42 41 41 40 42 39 39 39 39 40 40 38 39 37 37 38 38 38 37 37 36 34 31 31 30 28 28 33 25 24 24 23 23 23 23 23 21 22 29 32
43 44 42 40 39 38 37 37 36 35 36 37 39 39 38 36 35 36 38 39 38 37 35 35 33 28 30 30 29 27 26 24 23 24 24 26 25 24 23 22 22 21 21 26
42 40 40 38 37 36 35 35 34 34 36 36 34 34 34 34 35 37 37 37 35 32 32 32 28 28 29 28 27 26 27 31 27 24 24 24 23 23 22 21 20 20 19 20
39 36 33 32 34 35 35 36 37 38 37 36 34 33 33 32 32 34 34 34 34 32 30 29 28 29 28 28 27 25 25 26 30 24 23 23 22 22 21 21 20 19 19 23
39 40 41 41 40 39 39 41 40 40 37 37 36 35 33 32 31 30 30 29 28 28 28 28 28 28 27 27 26 25 24 24 24 22 23 23 22 22 21 20 20 19 19 22
40 41 42 42 43 43 41 40 40 39 37 36 35 33 33 31 30 29 29 28 27 26 26 28 33 29 27 29 27 25 24 23 23 22 22 24 21 20 20 20 19 19 19 20
42 43 44 43 44 42 40 40 39 37 36 36 34 31 29 28 29 28 28 27 27 27 28 29 28 27 27 29 29 23 22 22 21 20 20 19 19 19 18 21 20 19 18 20
39 41 41 41 40 40 40 37 37 36 36 34 34 32 30 29 29 27 25 25 25 30 28 31 26 25 25 27 24 22 21 20 20 18 18 17 18 17 17 17 17 19 19 19
37 38 40 40 39 38 38 38 37 36 35 34 33 31 28 26 26 26 28 28 28 34 29 25 24 28 26 29 22 21 20 20 19 17 16 16 16 14 12 12 12 15 16 14
35 37 37 38 37 37 36 36 36 36 34 32 31 31 30 29 29 27 25 27 28 31 25 24 29 34 33 21 21 20 19 19 19 17 13 10 11 8 8 9 11 12 12 13
32 33 33 35 35 34 31 31 32 32 31 32 33 32 31 28 27 27 30 32 32 32 25 26 32 34 29 20 19 18 18 18 13 9 11 20 8 7 8 9 10 12 12 14
28 27 27 26 29 31 27 27 27 27 29 29 30 30 30 31 31 28 29 30 34 29 25 34 34 33 22 20 19 18 16 11 9 10 10 8 7 6 8 9 9 11 12 12
27 28 28 29 29 29 28 28 28 28 29 28 28 27 27 27 29 29 28 30 29 29 24 26 25 23 21 20 19 18 17 14 15 14 13 9 7 7 9 10 10 11 13 12
26 31 24 27 28 28 28 28 27 28 31 30 28 28 28 28 29 28 30 28 27 25 24 23 24 23 21 20 19 18 15 15 18 13 9 6 6 6 9 10 10 12 12 13

GFSNGP_sfc_temp_051.txt.gz
Temp
32 34 34 33 32 32 25 32 22 29 31 40 45 48 49 46 45 45 45 46 47 43 40 40 39 39 40 41 42 45 44 45 45 47 49 48 47 46 47 45 44 43 41 40
24 33 32 28 33 34 33 34 34 36 36 47 50 50 46 43 42 42 42 45 47 42 39 38 37 39 41 40 41 43 44 43 45 45 44 43 42 42 42 41 40 40 39 38
22 31 31 25 32 34 34 35 39 33 40 48 45 46 41 40 40 40 41 43 41 40 39 38 38 39 38 40 40 40 40 41 41 40 40 40 40 39 38 37 37 36 36 36
21 27 19 36 42 41 39 42 41 42 46 47 46 43 40 41 40 40 40 41 41 41 41 41 42 40 40 39 38 38 38 38 38 39 38 38 38 37 36 36 35 34 33 33
25 26 30 37 42 40 37 38 41 39 42 47 46 42 39 40 42 40 40 40 41 42 43 42 42 42 41 39 38 38 37 37 38 38 37 36 34 33 33 33 32 32 32 32
30 25 23 37 42 43 42 33 42 41 42 45 44 39 39 39 40 40 40 41 39 40 41 40 41 42 40 38 37 36 36 36 37 37 35 33 33 32 32 32 32 34 36 35
31 27 31 42 43 44 32 36 41 41 42 44 42 41 40 40 39 40 40 39 39 38 37 38 39 38 35 34 33 34 35 36 35 35 33 32 32 33 33 32 35 34 32 30
32 29 25 43 42 37 43 41 42 41 41 43 41 40 40 39 39 38 36 37 37 35 35 37 38 36 34 32 35 35 34 34 33 34 35 34 33 34 33 32 29 28 26 26
34 34 44 44 46 46 44 42 41 41 41 43 40 39 40 38 38 38 36 35 35 35 35 35 37 36 33 34 35 35 34 33 33 35 35 33 30 28 27 27 25 25 25 24
38 43 44 46 45 44 44 43 42 42 42 42 41 40 39 39 38 38 38 37 37 36 35 35 36 36 35 35 36 36 33 31 30 29 29 28 29 29 27 25 24 24 25 23
39 44 44 43 43 44 43 42 42 41 41 40 39 39 40 39 38 39 39 38 36 37 36 36 37 37 37 35 33 31 30 30 29 28 27 26 27 26 26 24 26 24 23 26
39 46 43 43 42 43 41 41 41 40 39 40 43 40 40 39 40 39 37 36 36 37 37 37 35 33 33 34 32 30 29 28 27 26 25 25 25 25 37 36 38 37 37 32
42 45 45 44 41 41 40 40 40 40 39 38 38 38 38 39 39 40 38 37 36 35 35 34 33 32 32 32 32 30 27 27 27 26 24 23 23 23 23 27 34 34 35 35
45 43 41 41 42 41 40 39 41 38 38 38 37 37 38 38 38 37 37 37 38 37 36 33 31 30 30 31 30 28 27 32 24 23 24 23 23 23 23 22 20 21 28 31
42 41 40 40 38 37 37 36 35 34 35 35 36 39 38 35 34 36 37 38 38 36 35 34 30 28 30 29 29 27 26 25 23 23 23 25 24 23 22 21 20 19 20 25
40 41 40 39 38 36 35 34 34 33 34 33 34 35 37 37 36 36 37 37 35 33 33 32 28 28 29 28 27 26 27 31 27 24 24 23 22 22 21 20 19 19 18 19
34 35 36 33 35 35 35 36 36 35 35 35 33 33 34 34 34 34 34 35 34 33 33 31 28 29 28 28 27 25 25 26 29 23 22 22 21 21 20 20 19 18 18 22
35 37 38 39 40 40 38 39 39 38 38 37 36 35 33 32 32 32 31 31 30 29 30 28 28 28 27 27 26 25 24 23 23 21 22 22 21 21 20 19 19 18 18 21
40 39 39 40 41 42 41 40 40 40 37 36 34 34 33 31 32 32 31 31 29 26 27 28 33 29 27 28 27 24 23 22 22 21 21 24 20 19 19 19 18 18 18 19
38 40 42 42 42 41 40 41 40 37 37 35 34 32 30 28 28 29 30 28 29 28 28 28 28 26 26 29 31 23 22 21 20 19 19 18 18 18 17 20 20 19 18 19
36 38 39 41 40 40 40 38 37 36 36 34 33 31 29 27 28 28 26 27 26 30 27 32 26 25 25 27 25 21 21 20 19 18 18 17 17 17 17 17 17 18 18 18
35 35 37 38 38 38 37 37 36 36 35 32 32 31 29 27 27 27 29 30 27 34 29 25 24 28 25 32 21 20 20 20 19 17 16 16 17 15 12 11 11 15 15 13
33 34 34 35 36 36 35 35 35 35 33 32 32 31 31 30 30 28 27 28 28 32 25 24 28 33 33 21 20 20 19 19 18 17 13 10 11 8 8 9 10 12 11 11
31 31 31 32 33 34 32 32 32 32 33 33 33 33 32 29 27 29 31 32 32 33 25 26 31 35 34 20 19 18 18 18 13 10 11 20 8 7 8 9 9 11 11 13
27 27 28 28 29 30 28 26 27 27 29 29 30 31 31 32 32 29 29 30 34 31 26 33 35 35 22 19 19 19 16 11 7 8 11 8 8 7 8 9 9 10 10 11
26 28 27 27 27 28 28 28 28 28 28 27 28 29 28 29 29 29 30 31 31 29 26 28 28 26 22 21 20 19 18 16 18 14 14 12 10 8 9 10 10 10 12 11
25 33 30 27 28 28 28 27 27 27 29 29 30 29 29 29 29 29 30 30 29 27 27 26 27 26 22 21 20 20 18 16 19 15 15 13 10 7 10 10 10 11 12 12

GFSNGP_sfc_temp_057.txt.gz
Temp
33 35 34 33 33 32 27 30 25 31 30 39 42 43 46 45 44 43 42 43 42 41 40 40 40 41 42 42 43 43 44 44 43 44 44 44 43 43 43 43 43 42 41 41
25 33 32 29 34 33 33 34 33 35 35 47 49 50 48 43 42 40 41 43 41 40 40 40 39 40 41 41 41 43 41 41 42 42 41 41 40 41 42 41 42 42 41 40
24 31 31 26 32 34 33 34 37 30 39 46 45 47 45 42 41 40 41 41 40 39 39 40 40 41 39 40 41 40 40 40 40 40 39 39 39 39 38 38 39 39 39 39
27 27 18 35 40 39 37 39 39 40 42 46 46 45 42 42 40 40 40 40 40 41 41 41 41 41 41 41 40 38 37 37 37 37 37 37 36 36 36 36 35 35 34 34
24 27 29 35 37 37 36 38 41 40 43 45 46 42 39 41 42 40 40 40 40 41 41 41 41 41 40 39 38 37 36 36 36 36 35 34 33 33 33 33 32 32 33 33
27 25 22 35 41 44 43 35 43 41 42 46 44 39 40 39 41 40 40 40 39 40 40 39 39 40 38 36 36 35 36 36 36 36 35 33 33 32 32 33 32 33 32 34
26 25 30 38 44 45 34 37 43 43 44 46 42 41 40 39 37 38 37 37 39 38 37 38 38 38 35 35 34 35 35 35 35 34 33 33 33 32 31 32 32 32 31 33
29 28 22 42 41 40 45 45 43 43 43 45 43 40 40 38 36 36 35 36 38 37 36 37 38 37 35 33 35 36 35 35 34 35 35 34 34 34 34 33 31 30 31 31
32 32 43 45 45 49 48 45 44 42 44 44 42 40 40 38 36 37 36 36 37 36 35 36 37 36 34 35 36 35 35 33 33 33 33 34 33 32 31 31 30 29 30 29
36 42 42 46 48 47 45 44 45 44 43 42 42 42 40 38 36 36 36 36 37 37 35 35 36 36 36 36 37 36 33 32 32 32 31 31 32 32 30 29 29 29 29 28
36 40 44 47 47 47 45 44 44 43 43 42 41 41 41 39 37 38 37 37 38 37 36 35 36 36 37 37 34 32 31 31 31 30 30 30 31 31 31 29 31 30 29 30
38 42 40 43 46 46 44 43 44 42 40 40 41 40 41 40 39 38 36 37 37 37 37 36 37 35 34 34 33 32 31 30 30 29 29 30 30 31 37 37 37 36 34 33
39 38 39 42 42 41 41 41 41 41 41 39 39 40 42 40 40 39 37 36 37 37 37 37 34 33 33 33 33 32 30 30 31 29 28 28 28 28 27 30 34 34 34 34
42 41 38 39 38 38 39 39 40 38 39 39 38 39 41 40 40 38 37 37 37 38 36 34 33 32 32 32 32 30 30 32 29 28 28 27 27 27 27 26 25 25 28 31
36 38 39 41 39 38 37 37 36 36 36 35 36 37 37 38 37 37 38 38 38 37 35 33 32 31 31 31 31 29 29 28 27 27 26 27 26 26 25 24 24 23 24 27
35 35 38 37 38 39 38 37 35 35 34 34 34 34 37 39 38 37 37 38 36 34 35 33 32 31 31 31 29 28 29 30 28 27 27 25 25 25 24 23 23 22 22 23
33 33 32 34 36 37 39 39 38 36 35 34 34 34 34 36 36 35 36 37 37 35 35 34 32 31 31 30 29 28 28 30 29 26 25 25 24 24 23 23 22 22 22 23
35 36 37 37 35 35 36 41 40 39 37 38 36 35 35 35 35 34 33 33 34 33 33 33 32 31 30 29 28 27 27 26 25 24 24 24 24 24 23 22 22 21 22 22
37 37 38 38 39 36 37 39 41 41 39 38 36 35 36 36 34 33 32 33 32 31 31 32 34 32 30 30 29 27 26 25 24 24 24 26 24 23 22 22 21 21 21 21
34 36 37 38 40 39 37 38 39 38 37 36 36 35 34 32 32 31 31 31 34 34 32 32 33 30 29 31 32 26 25 24 23 22 22 22 22 22 21 23 23 21 20 21
33 34 35 35 35 37 38 38 38 37 37 36 35 34 33 32 31 32 30 30 31 34 32 34 30 29 29 31 29 24 23 23 23 22 21 22 21 21 20 20 20 20 20 20
32 32 33 34 33 35 36 36 36 35 35 34 34 33 31 29 28 28 31 32 31 36 33 31 30 31 29 34 25 24 23 23 23 21 20 20 20 19 19 18 17 18 18 17
31 31 31 31 31 32 35 34 34 34 32 32 32 32 31 30 29 28 28 31 31 35 31 30 31 34 35 26 25 24 23 22 22 21 19 18 18 17 16 16 16 16 16 16
27 28 29 30 30 30 29 29 29 30 31 32 32 32 31 29 28 31 32 33 34 35 29 30 34 36 36 25 24 24 23 22 20 18 18 23 16 15 15 15 15 15 15 16
22 23 23 27 26 26 26 26 27 27 29 30 30 31 31 33 32 31 31 31 35 34 29 34 36 36 29 25 24 23 23 21 18 17 18 17 16 15 15 15 14 14 14 14
21 21 23 25 25 25 25 26 26 26 27 27 28 28 29 30 31 31 30 32 31 33 28 31 33 33 26 25 24 24 23 21 23 23 19 18 17 16 15 15 15 14 15 14
17 25 17 22 23 23 23 25 28 26 27 27 27 28 28 28 28 30 31 30 30 30 27 29 31 31 26 25 24 24 23 22 23 20 20 18 17 16 16 15 14 14 14 14

GFSNGP_sfc_temp_060.txt.gz
Temp
39 39 39 38 38 38 32 38 33 41 40 51 53 53 55 54 50 47 49 49 48 49 49 50 49 50 50 50 50 50 49 48 46 46 44 43 43 43 44 43 43 43 42 42
32 38 38 34 39 40 39 40 39 42 42 55 57 57 54 50 46 44 44 46 47 47 48 47 48 48 48 48 47 48 45 44 45 43 42 40 41 42 42 40 41 41 40 41
33 36 36 32 37 39 41 43 43 36 47 54 53 52 50 47 46 44 44 44 46 46 47 47 46 46 45 46 47 45 43 44 43 41 39 38 39 38 37 37 38 38 38 38
34 35 27 41 46 46 43 46 47 47 50 52 53 50 48 48 47 46 45 44 45 48 47 47 47 47 47 46 42 39 38 37 37 38 37 38 37 36 36 36 35 35 34 33
32 33 40 43 42 42 41 44 50 47 51 53 51 49 47 47 47 46 46 46 46 45 44 46 46 46 45 43 41 38 37 37 37 37 36 36 34 33 32 32 32 32 33 34
33 27 30 43 48 52 50 42 51 50 51 51 50 47 50 47 46 45 46 46 45 44 43 43 42 45 43 40 39 36 37 36 37 36 35 34 33 33 33 33 32 34 33 37
35 33 40 49 50 51 37 43 52 50 51 52 49 52 47 45 44 45 44 44 44 43 40 40 42 40 37 36 35 36 36 36 36 36 34 34 34 34 34 36 37 37 38 39
34 31 29 50 48 43 49 52 53 52 52 50 49 43 43 43 42 42 41 42 42 41 40 41 39 38 36 35 36 37 37 36 36 38 39 39 39 41 41 41 39 38 38 38
41 42 51 52 50 54 52 53 53 52 53 51 46 43 45 40 40 41 40 39 40 39 37 38 38 38 36 36 37 38 40 39 40 42 42 42 41 40 40 41 40 39 39 37
43 50 51 53 54 52 52 52 53 52 52 51 50 47 43 42 39 38 40 39 42 40 38 36 38 38 38 38 41 42 41 41 42 41 40 41 41 41 41 40 39 39 37 36
46 49 51 54 54 51 51 52 51 51 51 50 50 48 47 43 40 39 39 40 41 40 39 37 38 38 41 42 43 42 41 41 41 40 40 40 40 40 39 38 38 38 36 36
45 53 52 52 49 46 49 50 51 50 49 49 50 49 48 45 43 40 39 41 40 42 40 38 38 39 42 42 42 41 40 40 39 39 39 39 39 38 38 38 37 36 34 36
50 48 48 50 49 47 46 48 49 49 49 48 48 50 49 47 43 41 40 39 40 42 42 41 40 41 41 40 41 40 40 38 38 38 38 38 37 38 35 35 34 34 34 34
48 47 47 47 47 48 46 46 46 47 47 48 48 48 48 46 44 42 39 39 42 43 41 42 41 40 40 40 40 39 39 37 39 38 38 37 37 36 35 34 33 34 31 32
43 43 44 45 44 45 46 45 44 45 46 45 45 46 47 44 42 42 41 40 41 44 42 41 40 39 39 39 38 38 38 37 38 37 36 35 35 34 34 32 32 31 32 31
40 41 42 42 42 43 43 42 42 45 45 45 43 43 45 46 44 42 40 39 37 39 41 38 39 40 38 38 38 38 38 36 36 36 35 34 33 33 32 31 31 30 30 30
37 37 37 36 38 41 42 43 43 42 42 44 44 44 43 43 41 39 39 39 38 39 42 39 37 38 37 37 36 37 37 36 36 34 34 33 33 32 32 31 30 30 30 30
39 39 40 40 39 40 42 43 44 44 41 42 42 40 40 40 38 38 37 37 35 36 39 38 37 36 37 36 36 36 36 36 35 34 33 32 32 32 31 30 30 29 29 29
38 37 38 38 39 39 41 42 44 45 43 42 41 39 41 40 40 38 36 34 34 33 36 38 36 36 35 35 35 35 34 33 32 33 32 32 32 31 30 29 29 29 28 28
35 35 36 37 38 38 38 41 43 43 43 42 41 40 38 35 37 34 33 33 34 34 33 36 36 35 35 34 35 34 33 33 32 32 30 31 31 30 29 28 28 28 28 27
35 36 36 36 35 37 37 38 39 40 40 40 39 37 36 34 33 33 30 30 32 33 34 36 35 35 35 35 35 33 32 32 31 31 30 31 29 29 28 28 27 26 26 26
35 35 35 36 36 37 38 38 36 35 35 35 35 34 32 31 31 31 33 34 34 37 36 36 35 35 35 36 33 32 31 31 31 31 29 29 28 27 27 27 26 26 25 25
34 34 34 34 33 34 37 36 35 36 34 33 32 32 32 32 32 31 32 36 35 36 35 36 35 35 36 35 31 31 31 30 30 29 29 28 27 27 27 26 26 24 24 23
32 32 32 33 33 33 31 32 33 34 34 35 35 34 32 30 30 32 36 36 36 36 34 35 35 36 36 33 31 31 30 30 30 28 28 28 26 26 25 25 23 24 23 22
28 29 29 30 30 30 29 30 31 33 33 34 34 35 35 36 35 33 32 32 35 35 34 35 36 37 36 31 31 30 30 29 28 27 26 25 26 25 25 24 23 22 22 22
29 30 30 29 29 29 29 30 30 31 32 31 33 34 34 34 35 36 34 32 32 34 32 32 35 36 34 32 31 30 30 29 28 27 25 24 25 24 24 23 23 22 22 22
26 28 29 29 29 28 28 29 29 29 30 30 30 33 33 33 33 34 34 33 32 32 30 31 35 36 31 31 31 30 28 28 28 26 25 26 25 24 24 23 22 22 21 21

GFSNGP_sfc_temp_063.txt.gz
Temp
43 43 43 41 41 42 33 39 35 44 45 53 56 57 58 58 56 52 52 52 52 53 54 53 53 53 53 52 52 52 50 49 48 48 46 45 45 44 44 44 43 43 42 42
34 41 41 37 42 43 41 41 42 45 44 57 60 60 58 57 52 50 49 49 50 51 51 51 51 50 51 50 50 51 48 47 47 46 44 42 41 41 41 41 40 40 40 41
35 39 39 34 40 42 43 45 44 37 49 56 54 55 55 54 52 50 50 49 50 50 50 50 49 50 48 49 48 46 44 45 44 43 41 40 40 39 37 36 36 36 35 35
36 37 28 42 49 49 45 47 49 50 53 56 56 56 52 54 53 52 50 49 48 50 50 50 50 50 50 46 42 40 40 39 40 40 39 38 37 36 36 36 35 35 34 33
33 36 43 47 45 44 43 45 51 50 54 56 57 52 52 54 52 52 51 51 50 50 48 49 49 49 48 45 42 40 38 38 38 38 36 36 34 34 33 33 33 33 33 34
34 29 31 44 50 54 53 41 53 54 54 54 53 46 51 52 51 50 50 50 49 49 47 46 46 48 45 42 38 37 37 37 37 37 36 34 33 33 34 34 33 36 35 39
35 32 41 52 52 53 38 41 54 54 54 55 51 53 51 51 49 50 49 48 48 47 44 45 45 43 37 37 36 36 37 37 37 36 35 35 35 35 37 39 39 39 39 40
37 31 30 53 49 45 49 55 55 55 55 53 54 47 47 47 46 46 45 45 47 45 43 43 41 39 36 35 37 37 38 38 38 40 41 41 41 42 43 43 41 40 40 38
42 43 53 55 54 57 56 54 55 54 55 54 49 46 47 45 43 44 45 45 46 42 38 39 40 39 36 36 39 40 41 40 42 44 44 43 41 41 42 43 41 40 39 37
46 52 53 55 57 56 55 53 55 55 54 54 53 50 47 45 42 42 43 43 44 41 38 37 40 40 39 41 43 44 43 43 43 42 42 43 42 41 41 41 40 38 37 36
48 53 55 56 58 57 53 55 54 55 54 53 53 52 49 46 43 42 42 44 45 42 40 38 39 40 43 44 45 44 43 43 42 42 42 41 40 40 39 38 38 37 35 35
46 55 55 54 55 52 52 53 53 53 53 52 53 53 52 49 47 44 42 43 43 42 41 39 39 42 44 45 45 44 42 41 41 41 41 41 39 37 37 37 37 36 36 35
52 53 53 53 51 50 50 50 51 51 53 52 52 53 53 51 49 45 43 42 42 42 41 40 40 42 44 44 44 43 40 40 40 40 39 39 38 38 35 34 35 34 34 34
53 51 49 52 51 51 51 51 50 50 51 51 52 52 53 52 49 45 43 42 43 44 43 42 42 42 43 43 41 40 40 40 40 39 38 38 38 37 36 34 34 34 32 32
50 49 49 49 49 49 49 49 47 48 50 50 50 50 50 49 47 45 45 44 42 43 43 44 43 43 43 42 39 39 39 38 39 38 37 37 36 35 35 33 33 33 33 33
45 44 44 44 46 46 46 47 45 47 49 49 48 48 49 50 49 47 44 42 39 39 42 43 42 43 41 39 39 39 39 39 39 36 35 35 34 34 33 33 32 31 31 31
41 41 40 38 40 44 45 47 47 46 46 47 47 48 47 47 47 45 41 41 41 41 40 41 40 41 39 39 38 39 38 36 37 36 35 34 34 33 33 32 31 31 31 32
41 42 42 42 41 41 42 44 46 47 46 48 45 44 43 44 44 42 39 39 38 36 37 38 40 38 37 38 38 38 37 36 35 34 34 33 33 33 32 32 31 30 30 31
40 39 38 38 39 39 39 40 44 46 47 47 44 41 44 44 43 41 39 36 36 35 35 36 38 37 36 37 37 36 36 36 34 34 33 34 33 32 31 31 30 30 30 30
35 36 35 36 38 37 37 39 40 44 45 45 44 42 41 41 41 39 38 37 38 36 35 34 34 36 36 36 37 36 35 34 33 33 32 31 31 31 31 31 30 30 29 29
37 38 38 37 36 36 35 37 37 38 41 42 42 41 39 39 37 35 33 32 34 34 33 34 32 32 35 36 36 35 34 33 33 32 31 31 30 30 29 29 29 28 28 28
38 38 38 38 38 39 40 39 39 36 35 35 34 34 33 32 32 31 33 33 33 36 33 32 31 32 33 37 35 33 33 33 32 32 31 30 30 28 27 27 27 27 27 26
37 37 37 36 36 36 39 37 37 37 36 35 33 32 32 32 32 30 30 34 34 35 33 32 33 34 34 34 34 33 32 31 31 31 30 29 29 28 27 27 27 26 25 24
36 36 35 35 36 36 33 33 34 35 35 36 36 36 34 31 31 32 33 35 37 36 36 36 37 38 38 35 33 32 32 31 31 30 30 31 28 28 27 27 25 25 24 24
31 31 32 32 34 33 32 31 32 33 34 35 35 36 36 37 35 36 33 32 35 35 34 36 37 37 36 34 32 32 31 30 29 29 29 27 27 26 26 26 25 24 24 23
33 34 33 32 32 31 31 32 31 32 31 31 33 34 35 35 35 35 36 35 33 33 31 31 33 35 34 33 32 32 32 31 31 30 28 27 26 25 26 25 24 24 23 23
29 30 32 32 32 31 30 30 30 31 32 31 31 33 33 34 34 34 35 35 34 33 32 31 32 34 34 33 32 32 32 31 31 29 28 26 25 25 25 25 24 24 23 23

GFSNGP_sfc_temp_069.txt.gz
Temp
38 40 38 35 36 36 29 34 26 34 36 44 44 45 47 48 48 47 47 47 47 45 43 43 42 42 42 42 42 42 40 39 38 39 42 42 41 41 41 39 40 41 41 42
24 38 37 33 37 37 36 36 36 36 35 46 49 50 48 47 47 45 45 46 46 45 43 42 40 41 42 40 40 40 38 38 39 41 41 40 39 39 38 38 38 37 37 39
23 33 32 25 34 37 36 38 40 32 40 44 45 49 47 46 47 47 46 45 45 44 42 40 41 41 37 37 39 38 38 38 41 40 38 38 38 37 36 36 36 35 35 36
22 27 16 35 42 42 40 41 41 41 43 46 48 48 47 47 46 46 46 45 44 42 41 41 41 39 38 38 41 39 39 39 39 38 37 37 36 35 35 35 34 34 33 32
24 23 31 35 40 39 36 37 43 42 44 47 47 45 43 48 48 47 45 44 43 42 41 40 40 39 38 38 39 38 37 38 37 38 36 35 34 33 33 33 33 33 27 27
30 22 23 38 42 47 45 34 44 46 46 46 45 39 42 45 45 44 44 43 40 40 39 39 39 38 37 36 38 37 37 37 38 37 36 34 33 33 33 26 31 33 33 28
27 27 32 44 45 46 33 35 45 47 47 47 43 46 45 46 44 44 42 41 40 39 37 37 36 36 34 36 36 37 38 38 37 36 34 34 33 27 25 28 29 28 28 28
29 28 23 44 43 39 44 46 47 47 47 48 45 44 43 45 44 44 41 40 39 36 35 36 37 36 36 35 37 38 37 36 34 33 35 33 30 30 30 29 27 26 26 26
33 33 43 45 44 47 48 50 48 46 48 48 45 44 45 43 43 43 42 39 39 35 34 35 39 38 35 36 38 37 37 34 33 34 34 33 30 29 29 29 27 26 26 25
38 42 44 46 46 47 48 46 48 49 49 49 47 45 44 44 42 42 42 41 37 35 34 36 38 39 38 38 39 37 33 33 33 33 32 32 31 30 28 27 27 26 27 26
37 42 44 46 46 47 46 47 47 47 47 47 47 45 45 42 41 42 42 40 38 35 35 37 38 38 39 40 36 34 33 32 32 33 31 29 29 28 27 27 29 27 26 27
35 43 43 42 43 46 45 45 45 44 44 45 46 46 45 42 41 40 39 40 37 36 36 38 39 39 40 39 35 33 31 30 30 30 29 28 27 27 37 36 38 37 36 31
42 43 44 45 44 44 44 43 43 42 43 43 46 46 45 43 42 42 38 39 39 39 38 39 39 39 40 37 35 33 31 30 30 31 29 28 26 25 25 30 36 36 36 36
45 44 41 43 42 43 44 44 45 42 43 43 44 45 45 45 43 40 38 39 40 41 40 39 39 38 37 37 34 32 31 37 29 28 28 27 27 27 26 26 25 26 34 34
42 42 42 42 42 41 41 42 39 40 40 41 43 43 44 43 42 40 39 39 40 40 40 39 39 39 38 36 33 31 30 29 28 27 27 29 28 28 27 27 26 25 25 31
39 40 40 39 39 38 38 38 37 38 39 40 40 41 42 42 42 41 38 38 37 37 40 39 38 41 39 35 33 31 30 35 32 28 28 28 27 27 26 26 26 26 25 25
37 34 34 32 36 35 36 38 38 37 38 38 38 39 40 40 40 39 37 38 39 38 41 39 38 38 37 36 34 33 31 31 36 30 29 28 27 27 27 26 26 25 25 29
39 40 39 40 38 35 35 36 38 40 38 37 38 38 37 37 38 38 38 38 36 36 37 36 37 37 37 36 35 32 32 32 31 30 29 29 28 27 27 27 27 26 26 28
39 38 37 38 38 38 38 38 39 40 40 40 38 36 37 37 37 38 38 37 35 32 36 36 38 36 35 35 35 34 33 32 32 31 31 32 30 28 27 27 27 27 26 27
36 36 36 36 38 37 36 37 37 38 39 38 37 35 35 34 34 34 34 34 36 36 35 36 36 35 35 35 37 34 34 33 32 32 31 30 30 28 28 30 27 27 26 27
34 34 34 34 35 36 37 37 36 36 36 36 35 32 31 31 32 32 31 30 35 36 35 36 35 35 34 34 36 32 32 33 32 31 30 31 29 28 27 26 27 27 27 26
36 36 36 36 35 34 34 34 33 33 32 32 32 33 32 32 31 31 33 33 34 37 34 33 33 35 33 36 32 30 29 30 32 31 30 29 29 28 27 25 25 26 26 25
34 34 33 32 31 31 31 30 30 30 29 29 29 29 29 30 31 30 31 32 32 33 33 32 33 35 36 34 31 30 29 28 28 30 30 29 28 27 26 25 24 25 23 23
31 31 30 30 30 28 27 27 26 27 27 29 29 29 28 26 27 29 30 34 35 34 32 32 34 35 36 33 30 30 29 28 28 27 26 31 26 27 26 25 24 24 22 25
27 23 23 22 26 25 22 21 22 23 25 25 26 27 28 27 26 27 27 29 33 33 30 35 37 36 34 32 30 30 29 28 28 27 26 25 27 26 25 24 23 22 21 21
25 25 25 25 25 24 24 24 23 24 24 24 25 25 26 27 26 26 26 30 28 31 28 28 30 32 32 32 31 30 29 28 28 28 25 26 26 25 24 23 22 23 22 21
19 26 19 23 24 24 23 23 23 23 25 24 24 25 25 26 26 27 29 26 26 27 27 27 28 29 28 28 28 28 30 29 30 28 28 25 26 24 24 23 23 22 20 20

GFSNGP_sfc_temp_072.txt.gz
Temp
35 37 36 34 35 35 30 35 30 36 34 43 46 46 47 51 49 47 47 47 46 44 43 43 41 41 41 40 40 40 39 37 37 41 42 41 40 40 40 40 39 40 41 41
24 36 35 31 36 35 35 35 35 35 36 46 50 45 45 46 46 45 45 45 45 44 42 42 40 40 40 39 39 39 37 37 38 41 40 39 39 38 38 38 37 38 38 39
23 32 31 27 34 36 35 37 39 32 42 44 45 49 48 46 46 46 45 45 44 43 42 40 40 40 37 37 38 37 36 37 40 40 38 38 38 37 36 35 36 36 36 37
21 26 14 34 41 40 39 40 39 40 43 46 46 47 47 46 46 46 47 46 44 42 41 40 39 38 37 38 38 40 39 39 39 38 37 37 36 35 35 35 35 34 31 28
23 22 29 34 38 37 35 36 42 42 42 44 46 43 42 47 46 47 46 45 43 41 40 39 37 37 37 37 39 39 38 38 38 38 36 35 34 33 33 32 26 24 23 25
28 21 21 34 39 43 42 31 42 44 42 43 42 36 40 45 45 44 44 42 40 39 39 38 37 37 36 36 38 37 37 37 38 38 36 34 33 33 33 33 30 27 26 26
28 28 29 40 43 45 30 34 43 44 45 43 40 43 45 44 44 43 42 40 40 39 38 38 37 37 34 34 36 38 38 38 37 36 35 34 33 27 23 25 26 26 27 26
31 28 23 43 42 37 42 43 43 43 44 45 45 43 43 44 42 43 42 40 39 37 35 35 36 35 33 34 38 38 38 37 35 35 36 34 29 29 28 27 26 25 25 25
33 32 42 44 43 46 46 47 48 46 46 48 45 44 44 43 43 43 42 41 38 35 34 34 35 35 35 36 38 37 37 35 33 32 32 31 29 29 28 27 26 25 25 24
36 41 42 45 45 46 47 46 48 48 48 48 47 45 43 43 42 42 42 41 39 34 33 32 34 37 38 38 39 38 37 31 31 30 30 30 32 32 29 27 25 26 25 26
35 40 43 46 45 45 45 46 46 46 46 46 46 45 46 44 41 41 40 41 39 35 34 34 36 38 39 39 39 36 35 30 29 30 30 29 30 29 29 27 28 26 26 27
35 43 42 43 42 45 44 44 44 45 43 44 44 45 45 43 42 40 41 38 36 35 35 35 37 38 39 40 37 33 30 29 28 28 27 27 27 26 36 35 39 38 36 31
42 42 44 44 43 44 44 43 43 42 42 41 43 45 44 43 41 41 39 38 38 37 37 36 37 38 39 40 34 33 30 29 28 30 27 25 25 25 26 31 38 37 37 37
44 43 39 41 44 46 45 43 45 41 41 42 41 43 43 44 41 39 38 39 40 39 38 38 38 38 40 40 34 32 30 36 29 27 27 26 26 26 26 26 25 26 34 35
41 40 41 41 40 40 40 41 38 39 40 40 41 41 42 44 42 40 39 39 39 39 38 38 37 39 41 39 34 33 31 29 28 27 27 29 27 27 26 26 25 25 24 30
38 38 39 39 39 38 37 37 36 37 38 38 38 39 40 40 41 42 39 39 38 37 37 37 38 41 40 37 36 34 33 35 33 30 29 28 27 27 26 25 25 25 24 25
36 34 34 33 36 35 35 36 36 36 36 36 36 37 37 38 38 38 38 37 39 40 39 37 38 38 38 37 36 36 32 32 37 30 29 30 29 28 28 27 26 25 25 28
38 38 39 41 39 37 36 36 36 37 37 35 36 35 35 36 36 37 37 36 36 36 36 37 37 37 38 38 37 36 34 33 33 31 30 30 30 30 29 28 27 26 26 28
39 38 38 38 38 38 38 38 38 39 40 39 38 36 35 35 35 35 36 34 34 35 37 35 38 38 37 37 37 35 34 33 33 32 31 33 32 30 29 28 28 27 27 27
36 37 37 37 38 37 36 36 37 37 38 37 36 35 34 33 32 32 33 33 35 36 36 36 36 36 36 36 38 35 34 33 33 33 32 31 31 30 30 31 29 28 28 28
35 35 35 34 34 34 33 35 35 34 35 36 34 33 33 32 32 31 31 30 33 34 35 36 35 34 34 34 36 33 33 32 30 32 31 33 29 31 30 29 29 28 28 27
35 35 34 34 34 34 34 33 33 33 32 31 31 30 31 31 32 32 32 31 32 37 34 33 33 35 33 36 33 32 30 30 30 29 28 29 28 27 28 29 27 28 27 25
33 33 33 32 31 31 31 30 29 30 29 29 28 28 28 28 28 28 29 32 32 33 33 32 33 35 36 34 32 32 30 30 29 29 28 28 28 27 27 28 28 28 26 24
31 31 30 31 30 29 27 27 26 27 27 28 28 28 27 25 26 27 28 31 34 34 33 33 33 35 36 32 31 30 30 29 29 29 28 30 27 27 26 27 26 27 25 27
28 25 23 23 27 26 23 21 22 22 24 24 26 26 26 26 25 26 25 27 31 31 28 33 36 37 33 32 31 30 30 29 29 28 28 27 27 27 27 26 26 26 25 25
25 26 25 26 25 25 24 24 23 23 23 23 24 24 24 25 25 25 25 29 26 30 26 26 27 28 28 29 31 30 30 29 30 30 28 27 27 26 26 25 25 26 26 25
18 25 18 23 23 23 23 23 22 22 24 23 22 24 24 24 25 25 27 24 25 25 25 25 26 27 26 26 26 27 26 28 30 28 28 27 26 25 24 25 26 25 24 23

GFSNGP_sfc_temp_075.txt.gz
Temp
33 35 34 33 33 35 33 36 29 35 33 41 45 45 47 48 46 45 45 45 46 44 43 42 41 40 40 39 38 38 37 36 36 41 42 41 40 40 40 40 40 40 41 40
24 35 34 31 35 34 35 36 36 37 34 46 47 43 46 47 46 44 45 46 46 45 43 42 40 40 40 39 39 38 36 36 38 41 40 39 39 38 38 38 38 39 39 39
22 31 31 25 34 35 35 37 37 30 42 42 43 46 46 45 45 47 46 46 45 46 44 42 41 41 39 38 38 37 36 37 40 40 38 38 38 37 36 36 37 36 36 36
21 26 16 33 39 39 38 42 40 41 41 45 46 46 47 46 46 46 46 46 45 44 42 40 39 39 38 38 37 37 37 38 39 38 37 37 36 35 35 35 34 33 28 27
23 22 28 35 35 35 34 36 42 40 44 44 45 42 42 46 46 47 46 46 45 43 41 39 38 37 37 36 36 37 38 38 38 38 36 35 34 33 32 28 24 22 21 25
23 21 20 33 38 41 39 30 41 42 42 41 41 36 39 45 46 45 45 44 42 39 39 37 36 36 35 35 35 37 38 38 38 38 36 34 33 33 32 26 22 24 26 25
28 28 28 38 41 42 28 32 42 41 41 41 38 41 45 44 43 43 41 40 39 38 38 37 36 36 34 34 34 38 38 38 37 37 35 34 33 31 31 31 32 25 26 25
29 27 24 41 40 36 40 41 42 41 40 42 43 42 41 42 41 42 41 39 39 36 35 35 36 35 33 33 36 38 38 37 36 35 36 35 33 28 27 25 24 23 24 25
31 31 41 41 42 44 45 44 44 45 44 46 44 42 42 42 43 42 41 41 40 36 35 34 35 36 33 36 38 38 37 36 35 35 35 33 28 27 26 25 24 24 25 24
35 40 40 42 42 44 46 44 47 47 48 49 47 43 42 42 41 41 42 41 40 37 34 33 34 35 36 38 39 38 36 35 34 32 29 28 29 29 27 25 25 27 27 27
34 38 40 43 44 45 44 44 44 45 45 46 46 45 45 43 41 41 41 40 40 38 36 34 34 34 36 39 39 37 36 34 30 29 30 27 28 27 28 27 28 26 26 27
33 41 42 43 42 44 44 43 44 44 43 44 44 44 44 45 44 42 41 39 37 37 36 36 35 35 38 39 38 37 36 32 29 27 27 27 26 26 36 36 38 38 37 31
42 42 42 41 41 41 44 43 44 44 42 41 42 44 44 44 42 42 39 39 38 37 38 37 36 36 38 39 38 35 34 30 28 29 26 25 25 25 26 30 39 38 38 38
43 43 39 40 41 42 45 45 45 41 41 41 40 42 41 42 41 39 39 39 38 38 37 38 37 36 38 40 36 35 31 36 29 28 27 26 25 26 26 26 25 25 34 36
41 40 42 41 40 39 39 40 38 39 39 39 39 39 40 40 40 40 41 38 38 37 37 37 37 37 39 39 36 34 31 30 29 28 28 29 27 27 26 25 25 24 24 30
37 37 38 39 38 38 38 36 36 36 37 37 37 37 37 37 38 39 40 38 37 37 39 37 37 40 39 37 36 35 34 36 33 30 29 29 28 28 27 25 25 25 25 26
36 33 34 33 36 36 36 37 36 36 35 35 35 35 35 36 36 36 38 37 37 38 39 39 38 38 38 38 36 37 35 35 37 31 30 30 30 29 28 27 27 27 28 29
37 37 38 38 37 35 35 37 37 35 35 33 34 34 33 33 34 35 35 36 34 34 35 36 37 37 39 38 37 37 36 34 35 32 32 30 30 30 28 28 29 29 28 27
37 37 38 38 39 38 38 38 38 38 39 36 37 36 36 36 33 33 33 34 33 32 34 35 38 37 36 37 37 36 34 34 34 33 33 34 32 30 30 30 30 29 29 28
36 37 37 36 37 37 36 36 37 37 37 36 35 35 34 34 33 32 32 31 32 33 34 35 35 35 36 36 39 35 34 34 33 33 32 32 32 31 31 32 30 30 29 29
35 35 35 35 34 34 34 35 35 34 34 34 33 32 32 33 33 32 32 31 31 32 34 35 35 34 34 35 37 34 33 33 32 30 29 30 29 31 30 29 30 30 29 29
34 33 34 34 34 33 33 33 32 32 32 31 31 30 30 29 29 31 32 31 32 35 33 32 31 34 33 37 33 33 31 31 31 30 29 29 29 29 29 28 27 27 27 28
33 33 32 32 31 30 30 29 29 30 29 29 28 28 27 27 27 27 28 30 31 33 33 32 34 35 36 34 32 32 31 30 30 30 30 30 30 30 29 29 28 28 27 26
31 31 30 30 30 29 28 26 26 27 27 28 28 27 26 24 25 27 28 30 33 34 31 32 34 36 36 32 32 31 31 30 30 30 30 32 29 29 29 29 28 28 28 28
28 23 22 23 27 27 23 21 22 23 25 25 26 25 26 25 24 25 24 26 30 29 27 31 34 34 29 31 31 31 30 30 30 29 29 29 29 28 28 27 27 28 27 26
25 26 26 26 26 25 24 24 24 24 23 23 24 24 24 24 24 24 24 27 25 28 24 25 26 27 26 26 29 30 30 30 30 30 29 28 28 28 28 27 26 27 28 25
18 25 18 23 23 23 22 22 22 22 24 22 22 23 23 23 23 24 26 22 23 23 23 24 24 26 25 25 25 24 23 28 30 29 27 24 24 27 26 25 25 25 25 25

GFSNGP_sfc_temp_078.txt.gz
Temp
35 36 34 33 34 36 33 36 30 32 33 41 46 45 45 45 44 43 43 43 43 43 43 42 41 40 40 40 39 38 37 36 36 41 42 41 40 40 40 40 40 41 40 39
25 34 33 31 33 34 35 36 37 38 37 46 48 43 43 46 46 45 44 45 44 43 43 41 39 40 40 39 39 39 37 36 38 41 40 39 39 39 38 38 39 39 39 39
23 30 30 24 33 34 34 36 38 33 41 42 42 45 46 44 45 47 47 46 45 45 44 43 41 40 38 38 38 37 36 36 39 40 39 38 38 37 37 36 37 36 36 37
22 25 17 32 38 38 37 40 39 39 42 44 46 46 46 46 47 46 48 47 46 45 42 42 41 40 38 38 36 36 36 36 38 39 38 37 37 36 36 35 34 32 28 27
26 23 27 35 33 34 33 35 40 40 44 45 43 42 44 46 47 48 46 47 47 45 43 41 40 39 38 37 36 36 36 37 38 38 37 36 34 33 33 31 23 23 23 25
25 23 19 31 36 40 38 29 39 40 40 39 40 36 41 43 44 45 46 45 44 42 40 39 37 38 36 36 35 35 36 38 39 38 36 34 33 33 32 25 23 24 26 25
28 27 28 37 40 39 26 32 39 40 41 39 37 41 43 43 42 43 42 41 40 39 38 38 36 37 35 34 34 36 38 38 38 37 35 34 33 32 26 27 27 25 26 24
29 27 24 40 38 34 39 40 40 40 39 39 41 41 40 41 40 40 39 39 40 37 36 35 36 36 34 33 35 36 37 37 36 36 36 35 33 32 31 30 24 23 23 24
31 31 40 40 41 42 42 42 42 41 41 43 42 40 41 40 39 40 40 39 39 38 35 33 34 35 33 34 35 35 37 36 35 36 35 35 32 28 25 23 23 23 24 24
34 39 38 40 41 42 43 43 43 48 47 46 44 43 41 41 40 41 41 40 39 36 37 34 33 34 35 35 39 37 36 35 35 34 33 32 29 29 26 23 23 24 25 25
32 37 38 42 42 44 43 44 43 43 44 44 45 44 44 43 42 41 40 40 39 39 38 37 35 34 35 37 38 37 36 35 34 33 34 27 27 26 27 25 27 25 25 27
33 40 41 42 43 43 43 43 44 43 41 42 44 43 42 43 44 42 42 40 38 37 36 36 36 36 36 37 38 37 35 34 33 32 29 27 25 26 35 36 38 38 38 31
39 40 41 39 39 40 42 42 42 43 43 42 40 43 42 43 44 43 40 40 40 39 37 36 36 36 36 37 38 37 36 34 33 31 28 26 25 24 25 30 39 39 39 39
40 40 37 39 40 40 41 45 45 40 40 40 39 40 40 41 40 39 38 39 38 37 36 36 37 37 37 37 37 36 36 38 33 30 28 26 26 27 26 26 25 26 35 37
41 40 40 39 39 38 38 39 38 37 37 38 38 38 38 38 39 39 39 38 37 36 37 37 36 38 39 38 35 35 33 33 32 29 28 29 27 26 26 25 25 25 24 30
38 38 38 37 37 37 37 36 36 36 36 35 36 36 36 36 36 37 37 37 35 35 39 38 38 40 39 38 36 34 35 36 34 31 29 29 28 28 27 26 26 26 26 26
37 34 34 33 36 34 34 36 36 35 35 34 34 34 34 34 34 35 36 37 39 38 38 37 37 38 39 38 36 36 35 35 38 32 30 31 31 29 29 28 28 28 28 30
37 37 39 39 37 35 35 35 36 36 34 33 34 33 33 32 32 32 33 34 34 33 34 34 35 35 37 38 37 37 36 35 34 35 33 32 32 31 30 29 29 29 29 29
36 36 36 37 37 37 37 37 37 38 38 37 36 35 36 35 34 33 30 31 31 31 33 34 36 36 34 35 37 36 35 34 33 34 34 34 33 31 30 30 31 31 30 30
36 37 37 37 38 37 35 36 37 36 36 36 35 34 34 33 33 33 33 33 32 32 32 32 34 33 33 35 39 33 35 34 34 33 31 31 31 29 31 33 31 31 30 30
36 36 36 35 34 35 35 35 35 33 33 32 32 30 29 30 29 31 31 30 31 33 34 33 32 32 33 35 36 35 34 33 33 31 31 31 30 30 29 28 29 30 30 30
34 34 34 34 33 33 33 32 31 31 30 29 29 29 28 28 28 29 31 30 31 35 33 32 32 33 33 37 32 32 32 32 32 32 31 30 30 30 30 29 29 29 29 28
34 34 33 33 32 30 29 28 28 29 28 28 28 27 27 27 27 27 28 29 29 32 31 31 35 36 36 33 32 32 31 31 31 31 30 30 30 30 30 30 30 30 29 29
32 32 30 30 29 27 26 26 25 26 26 28 28 27 26 24 25 26 27 29 32 33 30 31 33 36 37 32 31 31 31 31 31 30 30 32 30 30 30 30 30 30 29 29
29 24 22 22 27 27 23 21 21 22 25 25 26 26 26 25 24 25 24 25 29 29 26 30 32 33 27 27 30 30 31 30 30 30 29 29 29 29 29 29 29 28 28 27
25 26 26 26 26 25 24 24 23 23 23 24 24 24 24 24 23 24 23 26 24 27 23 24 25 26 25 25 25 27 30 30 30 30 30 29 29 27 26 26 25 26 27 28
19 26 19 24 24 24 23 23 22 22 24 22 22 24 23 23 23 24 25 21 22 22 22 22 23 25 24 24 23 23 19 20 26 28 29 29 28 28 25 25 24 22 23 25

GFSNGP_sfc_temp_084.txt.gz
Temp
41 41 41 40 41 42 35 39 34 42 44 49 55 58 60 61 59 58 57 56 57 57 58 58 57 57 56 56 54 53 52 51 50 51 51 51 49 49 47 46 46 48 47 46
33 39 40 36 41 43 43 42 43 44 43 56 59 60 58 58 58 56 58 58 58 58 59 58 58 56 56 55 53 52 51 50 50 50 49 48 47 45 44 43 43 44 44 44
32 35 33 31 38 41 42 45 44 38 47 55 54 54 55 57 59 58 59 60 59 59 59 59 59 58 56 55 54 51 51 50 49 49 47 46 44 42 41 41 41 41 42 43
34 34 25 43 45 46 44 47 49 48 50 53 54 57 56 59 58 59 60 60 61 61 60 61 61 58 58 54 51 49 49 47 47 47 45 43 41 40 40 39 39 39 38 38
31 32 39 43 43 41 41 43 50 48 51 52 54 52 51 57 58 60 62 63 62 63 63 61 58 57 54 51 50 48 47 47 46 46 44 41 39 37 35 34 33 34 36 38
31 29 28 43 46 48 47 39 49 48 49 50 49 44 53 55 57 59 62 61 59 60 59 58 57 56 52 50 49 47 47 47 47 46 44 40 37 35 35 35 33 37 36 39
32 31 38 48 48 49 37 43 51 50 51 50 46 52 52 53 53 52 55 57 57 56 56 56 53 52 50 48 46 48 47 46 45 44 42 39 35 35 34 34 37 38 39 40
35 30 29 47 45 42 51 51 52 52 52 50 51 51 51 50 50 49 49 49 52 52 51 49 49 49 47 44 46 45 44 43 43 42 40 37 36 35 35 37 38 38 38 38
41 42 48 50 53 56 54 53 53 53 53 52 50 51 51 50 50 50 50 49 50 49 45 45 47 49 45 45 45 44 44 43 42 41 39 37 35 34 34 37 38 38 37 38
40 49 48 50 53 53 54 54 55 56 54 49 49 52 51 50 50 50 49 49 50 49 48 45 47 47 49 46 46 45 44 43 42 39 36 36 36 36 36 37 37 38 37 37
41 46 50 52 53 55 53 52 53 54 54 54 53 52 52 51 50 50 49 49 49 49 48 47 46 46 46 45 46 44 44 42 40 38 37 35 36 35 35 40 40 39 39 39
39 44 46 51 52 53 52 51 52 52 51 52 53 52 52 52 51 50 49 45 42 42 42 44 42 44 45 46 44 44 42 40 39 37 36 35 35 34 38 39 38 39 39 39
45 47 46 50 51 52 50 51 51 51 52 50 50 52 51 50 50 49 48 46 46 47 45 43 41 41 43 44 42 40 39 39 39 36 35 34 34 34 33 37 38 38 39 39
46 47 44 48 48 50 50 50 49 47 47 47 48 48 49 48 47 47 46 46 46 46 46 46 42 41 43 43 40 39 40 39 37 36 36 35 35 35 37 37 35 36 39 40
46 48 46 47 47 46 47 48 46 45 44 44 45 45 46 46 46 45 45 45 44 45 45 45 44 42 43 42 39 38 37 39 39 39 37 36 36 35 36 35 36 38 38 38
44 44 44 44 45 44 45 45 46 44 45 44 44 43 42 43 43 43 43 44 43 44 44 44 44 44 42 40 39 39 38 38 39 39 37 36 35 35 35 35 36 36 37 37
40 39 41 40 41 42 44 45 46 44 43 43 41 41 41 42 42 42 42 42 42 42 43 42 43 44 43 40 37 37 37 36 39 35 34 34 35 34 36 37 36 36 37 38
43 43 43 43 44 41 40 41 42 42 41 40 40 40 39 39 38 38 38 37 39 41 39 39 40 39 41 41 39 38 37 37 37 36 34 32 32 32 32 33 35 36 36 37
40 38 40 40 42 42 41 41 41 41 40 40 40 38 38 36 36 35 37 36 35 37 35 38 37 38 39 38 38 38 38 38 37 37 35 35 33 32 31 31 31 32 34 32
39 39 39 39 40 39 38 39 39 38 38 38 38 37 36 34 34 35 37 34 34 34 35 35 35 36 36 37 38 38 37 37 36 36 35 34 34 33 32 32 31 31 32 32
37 37 36 36 35 35 35 37 37 35 36 36 35 34 34 34 34 35 36 36 35 36 36 35 34 34 34 35 37 36 35 34 34 34 33 34 33 33 32 32 31 31 31 31
35 35 35 35 34 33 35 36 36 35 34 33 33 33 33 32 32 33 33 32 34 34 35 35 36 37 37 36 34 34 33 33 33 33 33 33 33 32 32 32 31 32 32 32
33 35 36 35 35 35 34 34 33 33 32 32 31 31 31 32 33 33 33 34 34 34 34 34 35 36 35 34 33 33 33 33 33 33 34 34 34 34 33 34 34 34 33 33
32 36 35 34 34 33 33 31 31 31 32 31 32 31 31 32 32 32 32 31 31 33 32 32 34 34 33 32 32 33 33 32 32 32 33 33 33 33 33 33 33 33 33 33
32 32 31 31 32 33 30 29 28 28 29 30 31 31 31 31 31 31 30 30 30 31 30 30 31 32 31 31 31 31 31 32 32 32 32 32 31 31 32 32 32 32 33 33
29 32 34 33 33 32 31 30 30 30 30 30 30 30 30 30 30 30 29 29 29 29 28 29 29 30 29 29 30 29 29 29 29 30 30 30 30 30 30 30 30 30 31 31
30 31 30 30 30 30 30 30 29 30 30 29 29 30 29 29 28 30 29 28 28 27 27 28 28 28 28 29 28 28 28 28 28 28 29 28 28 28 28 29 29 30 30 29

GFSNGP_sfc_temp_087.txt.gz
Temp
43 44 45 42 43 44 37 40 35 43 45 52 56 58 62 66 65 63 62 62 61 61 61 62 61 60 61 60 58 56 55 54 54 54 55 54 53 52 50 49 49 50 49 48
33 37 43 39 44 45 45 44 43 44 45 57 60 62 61 62 62 61 61 62 63 62 62 62 61 60 60 58 57 56 55 54 54 54 53 51 50 49 48 46 45 46 46 45
31 36 34 31 39 43 45 48 47 40 48 57 56 57 58 59 60 60 62 63 63 63 62 63 63 62 60 59 58 55 54 54 52 52 51 50 48 46 44 43 43 42 43 43
32 33 26 45 49 51 48 50 52 51 53 55 57 59 60 62 60 60 62 64 64 66 65 65 65 64 63 60 57 54 54 53 52 51 49 48 46 44 42 41 40 40 39 38
31 32 42 46 44 44 43 45 53 51 55 57 58 57 55 61 62 61 62 65 67 67 67 66 65 64 61 58 56 53 52 51 51 50 48 45 42 41 37 35 34 34 36 38
33 28 29 43 48 52 52 40 54 53 53 53 53 45 53 56 57 57 62 64 65 66 66 66 64 62 58 55 53 52 51 51 50 49 47 43 40 37 36 35 33 36 37 40
34 33 40 51 50 52 37 43 53 53 53 53 49 54 56 56 56 55 55 62 62 62 63 63 62 59 55 54 51 53 52 49 49 48 45 42 37 36 35 35 36 38 39 41
34 31 30 52 48 43 51 54 55 55 55 53 54 55 54 55 53 53 52 52 57 57 58 58 56 55 53 49 51 50 49 47 46 46 43 40 38 36 36 36 36 39 39 39
42 42 50 53 55 57 58 57 57 56 56 56 54 54 55 53 54 53 53 52 54 52 48 49 51 54 50 49 49 47 46 45 45 44 42 40 37 35 34 36 36 38 38 38
42 49 52 54 56 57 58 57 59 59 58 56 53 55 55 54 53 53 53 53 53 52 50 48 51 52 53 50 49 47 46 45 45 42 40 39 37 36 35 35 36 38 37 36
39 46 50 55 55 55 56 58 56 57 57 56 56 55 55 54 53 53 52 52 53 53 52 50 51 50 51 50 49 47 47 46 43 41 39 36 36 35 35 38 40 39 38 38
39 45 45 50 53 54 53 54 56 55 54 54 55 54 55 54 54 51 52 50 49 48 49 49 49 48 48 47 48 47 46 42 42 39 39 36 34 33 39 40 41 42 42 40
44 47 48 49 53 54 52 53 54 54 55 52 53 54 54 53 52 49 51 49 48 49 47 44 41 40 43 45 44 43 42 39 38 38 37 35 34 33 32 36 40 39 40 40
46 44 45 50 47 51 51 52 52 52 52 52 50 51 52 51 50 50 48 48 49 49 48 48 46 43 43 41 40 39 40 40 38 38 35 34 34 34 35 35 35 34 39 39
45 47 47 49 48 50 49 50 48 47 46 46 48 48 49 49 48 47 47 47 47 47 48 47 46 46 47 44 41 39 38 38 37 37 37 36 35 34 35 35 36 37 37 39
46 45 47 43 44 47 47 47 49 48 48 47 47 46 46 46 46 46 46 46 45 45 46 46 45 47 46 44 41 40 38 39 39 36 35 36 35 34 34 34 34 35 36 36
41 41 43 39 44 46 46 48 49 48 47 47 45 44 45 45 45 44 44 44 43 44 43 42 41 42 43 43 40 39 38 37 39 36 35 35 34 34 35 35 35 35 36 38
45 45 45 43 43 45 43 44 45 45 45 44 43 43 42 41 40 40 40 41 41 41 38 39 39 38 41 42 40 40 38 37 36 36 34 33 33 33 33 32 33 34 35 36
42 40 39 40 41 42 43 43 42 43 43 43 43 41 40 38 38 37 38 38 36 36 34 36 36 38 38 39 38 38 37 37 36 36 35 36 34 33 32 32 32 32 32 32
39 39 38 37 38 38 38 40 41 40 39 40 40 39 38 36 36 37 38 35 35 35 36 36 35 34 35 36 38 36 35 35 35 35 34 34 33 33 33 33 32 32 32 32
36 36 36 36 35 35 36 37 37 37 38 38 38 36 35 35 36 35 36 36 35 35 36 36 36 36 37 36 35 34 34 34 34 34 33 33 33 34 33 33 32 32 31 31
35 35 34 35 34 36 38 38 38 37 37 36 35 34 34 33 33 34 34 32 35 35 35 36 36 35 36 36 34 33 33 33 32 32 32 32 32 32 33 33 32 32 32 32
32 34 36 37 37 37 37 36 36 36 35 34 33 33 33 33 34 34 34 34 34 34 34 34 34 35 35 34 34 34 33 32 32 32 32 32 32 32 32 32 33 33 33 33
34 33 35 36 36 36 34 34 34 34 33 33 33 33 32 33 34 34 34 33 32 32 32 32 33 34 34 32 32 31 32 32 32 32 32 33 32 32 32 32 32 32 32 32
33 33 32 33 33 34 33 31 30 29 31 32 32 33 33 33 32 33 32 31 31 31 31 32 32 32 31 31 31 31 30 30 30 30 31 31 31 31 31 31 31 31 31 32
32 32 32 32 34 34 33 32 31 32 32 31 32 32 32 32 31 31 31 31 30 30 29 29 30 30 30 30 29 29 29 29 29 29 29 28 29 29 29 30 30 30 30 30
33 33 31 32 32 33 32 32 31 31 32 31 31 31 31 30 30 30 31 30 29 29 29 29 29 29 29 29 28 28 28 28 28 27 27 27 27 27 27 27 27 28 28 28

GFSNGP_sfc_temp_090.txt.gz
Temp
40 43 40 37 39 41 35 37 32 38 41 48 52 53 50 53 55 55 55 55 53 51 50 51 51 51 51 51 50 50 49 48 48 49 50 48 47 46 45 44 44 45 45 42
33 38 36 34 40 43 42 41 40 41 41 52 54 55 54 54 55 54 53 56 56 54 53 52 50 51 52 51 49 49 47 47 48 47 47 46 45 44 43 41 40 40 41 43
28 34 32 29 34 40 42 45 43 35 44 51 50 52 52 52 54 54 55 55 56 55 53 53 52 52 50 49 49 48 47 47 47 47 45 44 42 41 41 38 38 38 41 42
30 31 23 39 44 46 44 46 47 47 48 51 50 51 52 52 50 52 55 55 56 55 54 55 54 53 52 51 49 47 46 46 46 46 44 42 41 40 40 37 37 39 38 37
28 27 37 39 40 41 39 38 47 46 48 50 51 47 47 52 50 49 51 54 55 56 56 55 54 53 53 49 48 46 45 45 45 45 42 40 39 39 36 34 34 34 35 36
30 25 25 37 42 48 46 31 47 48 47 47 46 36 42 48 50 50 50 51 53 54 56 54 53 54 51 47 45 44 45 45 45 44 41 39 39 37 35 34 33 35 35 37
29 28 35 43 45 47 29 33 47 48 47 45 42 44 47 49 48 48 48 48 51 52 51 53 52 50 47 45 44 45 46 45 44 42 40 37 37 35 34 34 34 35 35 36
31 26 26 44 44 37 43 46 48 48 47 47 48 48 47 48 47 48 47 48 49 48 46 47 49 48 45 43 44 44 43 43 41 40 40 39 37 35 35 35 34 35 35 33
34 35 45 46 45 49 50 48 48 48 48 49 48 48 49 48 46 46 46 47 46 43 42 43 46 46 43 42 43 42 41 40 39 41 40 38 36 34 34 35 35 35 35 32
35 43 44 46 48 48 49 49 50 52 51 49 46 48 49 48 47 46 46 45 45 43 41 41 44 46 44 43 43 41 39 39 38 40 38 38 36 35 34 34 34 34 34 32
33 39 44 46 45 46 47 49 50 50 50 50 48 49 48 47 47 46 45 45 46 44 43 42 43 43 44 43 43 41 40 38 37 39 38 35 35 35 34 36 38 36 34 32
30 39 38 40 45 48 46 47 48 48 46 47 48 48 48 46 46 47 47 44 42 42 42 42 42 42 42 44 45 44 42 39 38 38 37 35 33 33 39 39 41 42 42 36
36 38 39 42 48 46 45 46 47 47 47 46 46 48 48 45 45 48 44 43 45 45 44 42 40 41 42 43 43 43 41 39 38 37 35 33 33 32 31 35 40 41 41 41
41 40 38 44 41 45 47 46 47 45 44 45 46 46 46 45 44 42 41 41 42 43 42 41 40 40 42 42 41 40 39 40 36 36 35 33 33 33 33 32 32 33 39 39
39 41 40 43 44 44 46 45 43 42 41 44 45 44 44 42 41 41 41 41 42 42 42 42 41 41 41 40 38 37 37 36 36 35 34 34 33 33 33 33 33 33 33 37
38 40 42 41 41 43 42 43 42 42 42 42 43 42 41 41 40 40 40 40 38 38 39 39 39 39 40 40 39 38 37 38 38 35 34 34 33 33 33 33 33 32 33 34
34 34 36 35 38 41 42 43 43 42 42 40 38 39 39 39 39 37 37 38 38 37 36 36 37 37 38 39 37 37 36 37 39 35 34 34 34 33 33 32 32 32 33 35
38 40 41 37 39 40 41 40 41 41 39 39 39 38 37 35 34 34 35 38 38 35 33 36 36 36 37 36 36 38 36 35 35 35 34 33 33 33 33 32 33 32 33 33
40 38 38 38 39 40 39 39 39 40 41 41 39 36 35 34 33 32 33 33 32 30 30 32 35 35 35 35 37 36 35 35 34 34 34 35 34 33 32 32 32 33 33 33
38 38 37 36 36 36 35 35 36 35 37 37 37 36 35 33 34 33 34 31 31 31 31 31 32 31 33 34 38 34 34 34 34 34 34 34 33 33 33 33 32 32 32 32
36 35 35 35 34 35 35 36 37 36 37 36 34 32 32 32 32 32 31 30 30 31 32 34 31 29 30 33 34 32 32 32 32 32 32 32 32 33 32 32 32 32 32 31
34 35 35 34 34 35 36 35 35 34 33 32 31 31 31 30 30 30 30 28 29 35 30 28 26 32 34 34 25 32 32 32 32 32 32 32 32 32 32 32 32 32 32 31
30 32 34 35 34 34 35 34 32 32 31 30 30 29 29 28 28 27 27 29 28 31 28 26 32 35 35 25 23 23 25 29 31 31 31 31 32 31 32 32 32 32 32 32
33 33 33 33 34 33 31 31 30 30 30 30 30 29 28 27 27 28 28 32 33 31 28 28 29 34 34 23 22 22 23 22 22 22 25 31 25 28 30 30 31 31 31 31
32 31 30 29 30 31 30 27 25 25 27 28 29 29 29 28 27 27 26 27 31 29 26 31 33 33 27 26 24 24 23 21 19 21 22 22 24 25 24 26 27 29 30 30
32 32 32 32 31 30 29 30 28 29 28 28 28 28 28 28 27 27 26 29 27 29 25 26 26 27 26 25 25 25 24 23 24 22 24 21 22 23 23 23 23 24 25 26
27 33 27 29 29 29 29 30 28 28 30 29 28 29 28 28 27 28 29 26 26 26 25 25 25 26 25 24 24 24 21 21 25 23 19 19 20 20 22 21 21 25 26 24

GFSNGP_sfc_temp_093.txt.gz
Temp
34 38 37 36 37 38 33 35 31 37 39 46 49 49 50 50 52 49 51 50 49 49 48 47 47 47 48 49 48 48 47 46 46 47 47 47 46 45 45 44 42 43 42 41
29 36 36 34 39 39 39 38 38 38 38 50 53 49 50 49 51 51 52 53 52 51 49 48 46 47 48 47 47 48 47 46 46 46 45 44 43 42 41 40 40 40 40 40
26 34 32 29 33 37 40 42 40 33 43 51 48 49 49 50 50 50 51 52 53 51 51 51 49 50 48 47 46 45 45 45 45 45 44 42 41 40 38 37 38 37 38 39
24 31 22 37 44 44 41 44 46 45 46 49 50 50 50 50 49 50 51 52 53 52 50 51 52 52 50 48 47 45 44 44 44 44 42 41 39 38 37 36 36 36 37 36
24 27 32 39 42 39 36 38 45 43 46 48 48 45 43 47 47 46 47 49 49 51 51 51 52 52 50 47 46 44 44 44 44 43 40 39 37 36 34 33 32 34 34 37
27 24 24 36 41 46 44 32 45 44 44 44 44 36 40 45 47 47 47 47 47 48 50 49 50 51 49 46 45 44 43 43 43 43 40 38 36 35 36 35 34 35 36 37
27 27 31 43 44 46 31 32 44 46 45 43 40 42 45 46 46 45 45 46 47 46 47 49 48 51 48 44 44 44 44 43 43 41 39 37 35 36 35 34 34 35 35 37
29 24 23 44 42 36 41 44 45 45 44 44 44 45 45 45 45 45 44 45 44 42 41 43 46 49 44 43 42 43 42 42 40 39 39 37 35 36 35 35 34 34 35 34
33 32 40 42 43 44 44 45 46 46 46 47 46 45 47 46 44 44 44 43 43 41 41 42 44 45 42 41 42 41 41 39 38 37 37 36 35 35 34 35 34 34 34 33
32 40 42 40 43 43 44 44 46 49 48 47 45 47 45 46 44 44 44 44 42 41 40 41 42 44 42 41 41 41 39 37 37 36 36 37 37 35 34 34 34 34 34 33
30 35 38 40 43 42 44 45 45 47 49 47 47 47 45 45 46 45 43 43 43 41 40 40 40 41 41 41 41 39 38 37 36 38 37 35 36 35 35 36 37 35 35 35
26 33 34 36 42 44 43 43 45 45 47 46 47 46 45 45 45 45 46 44 41 39 39 39 39 39 40 40 40 39 40 39 39 38 37 35 34 34 39 39 40 41 41 37
32 35 36 39 41 45 42 43 46 45 47 45 44 45 44 42 43 45 41 40 41 42 42 41 39 39 40 44 44 42 40 39 39 38 35 34 33 32 32 35 40 40 41 42
39 38 34 39 38 43 45 44 46 45 44 44 44 44 44 42 43 40 39 40 41 40 40 39 38 39 40 40 40 40 40 40 37 36 35 34 33 33 33 32 32 33 39 41
35 35 35 38 39 41 43 44 42 42 41 41 42 42 44 41 39 39 39 39 40 39 38 38 37 36 39 38 37 37 38 37 37 36 35 35 33 33 33 32 32 33 33 36
38 36 36 36 37 39 42 42 41 42 41 40 40 41 41 41 38 37 37 37 37 36 36 36 35 35 37 37 36 35 36 39 38 35 34 34 33 33 32 32 32 33 32 32
34 31 33 33 35 36 40 42 42 42 41 40 38 38 38 37 36 35 34 36 35 34 34 34 34 37 38 37 35 35 34 36 39 35 34 34 34 33 33 32 32 33 33 33
39 37 35 35 37 38 40 40 40 40 39 39 39 37 36 35 33 32 33 34 33 31 31 32 33 36 36 36 36 37 36 35 35 34 34 33 33 34 33 33 32 32 33 33
40 38 38 37 37 39 38 38 37 38 38 39 39 36 35 33 32 32 32 30 29 28 29 31 34 33 31 35 37 35 34 34 34 34 34 35 34 34 32 32 32 33 33 33
38 37 37 36 36 36 35 35 35 34 33 33 37 35 33 32 32 32 32 29 29 29 30 31 30 29 30 32 36 33 33 33 33 33 33 33 33 32 32 33 32 32 32 32
35 35 35 35 34 34 34 35 35 34 36 35 33 31 30 30 31 31 30 29 30 32 32 33 31 30 30 31 32 33 32 31 32 32 32 32 32 32 32 32 32 32 32 32
34 35 35 34 33 34 35 34 34 32 31 30 30 30 30 29 29 30 30 29 29 34 30 28 27 32 31 31 22 26 31 31 31 31 30 31 31 31 30 31 31 32 32 32
31 30 31 32 31 32 33 32 31 31 30 30 30 29 29 28 28 28 27 29 28 31 27 26 31 35 34 23 21 20 20 21 23 24 26 28 30 29 29 30 31 31 31 31
32 32 32 33 32 33 31 32 30 30 29 30 29 29 28 27 26 27 28 32 33 31 28 28 28 34 32 22 19 18 19 19 18 16 20 27 20 21 22 23 23 24 27 28
32 32 31 30 31 31 29 27 26 26 28 27 28 29 29 28 27 28 26 27 32 30 26 30 33 32 26 24 23 22 20 18 16 18 19 18 19 19 21 22 22 24 24 24
31 32 32 33 32 32 31 29 27 29 28 28 28 28 27 27 27 28 26 29 27 29 26 26 26 26 25 25 24 24 23 20 21 20 21 18 17 17 19 19 20 21 22 23
22 31 26 28 28 29 29 29 27 28 30 29 28 29 28 28 28 28 29 27 27 26 26 26 25 26 25 24 24 23 19 18 23 20 16 14 15 14 17 18 17 18 20 22

GFSNGP_sfc_temp_096.txt.gz
Temp
34 36 35 34 35 36 33 35 29 34 35 43 45 46 45 47 49 48 49 48 48 48 47 45 45 46 47 47 46 46 46 45 45 45 47 45 45 44 45 44 44 43 41 41
26 34 35 33 36 37 36 37 38 35 36 47 51 48 42 45 49 48 48 49 50 50 48 47 45 46 47 46 46 46 44 44 45 45 44 43 42 41 40 40 40 40 40 40
19 32 32 27 33 36 36 39 38 33 41 48 47 48 48 48 48 49 49 50 50 50 49 47 47 48 47 46 45 44 44 44 44 44 42 41 40 39 38 37 37 37 37 38
17 29 22 37 42 42 40 42 44 42 43 47 49 51 49 46 46 48 49 49 50 49 49 49 49 48 47 46 46 44 43 43 43 42 41 40 39 38 37 36 36 35 36 35
21 24 31 37 39 38 36 38 42 42 45 48 47 43 42 46 46 44 46 48 48 48 49 49 48 50 48 46 45 44 42 43 42 42 40 38 37 36 34 33 32 33 34 35
26 24 23 34 41 43 42 32 43 42 42 43 43 36 40 44 45 45 46 46 46 46 46 47 48 48 47 45 44 44 43 43 42 42 40 38 36 35 35 35 33 34 34 36
20 19 30 37 40 43 27 31 43 44 43 43 40 42 45 45 44 44 44 44 45 44 44 45 45 48 46 43 44 45 43 42 42 41 39 37 35 35 32 35 35 32 34 37
27 21 22 38 39 32 35 40 45 44 43 43 44 44 44 44 43 43 43 43 42 41 41 41 44 47 44 43 43 42 42 42 41 39 39 37 36 33 35 36 35 34 34 35
30 29 38 39 37 42 42 41 41 42 46 45 45 44 45 44 42 42 41 42 41 40 40 40 42 43 41 39 42 41 40 40 38 37 36 35 33 33 35 35 34 34 34 34
30 35 40 36 40 41 42 41 42 43 44 47 44 45 44 44 43 42 42 42 41 40 39 39 40 42 42 43 41 41 39 38 37 36 35 35 35 36 35 34 34 34 33 33
28 32 34 36 38 42 42 43 43 43 44 45 46 45 44 43 45 44 43 42 41 40 39 38 39 39 40 40 40 39 38 36 36 36 36 35 36 36 35 37 37 35 35 34
25 31 31 33 38 43 43 42 42 41 42 44 46 46 45 44 44 43 44 42 40 39 39 38 38 38 39 39 39 38 36 36 38 38 37 36 35 34 40 40 40 41 41 37
30 34 34 36 38 41 40 41 44 43 43 42 45 45 45 43 42 43 40 39 39 39 40 42 41 41 41 40 42 41 40 39 39 38 35 34 33 33 32 35 41 41 41 41
37 36 32 35 34 39 40 42 45 45 44 43 43 44 44 42 41 40 39 39 39 39 38 38 37 36 38 39 39 40 40 41 38 36 35 34 34 33 33 32 32 33 39 40
36 35 34 34 36 39 39 41 42 42 41 41 42 43 43 41 39 38 38 39 38 37 37 36 35 34 36 37 36 36 37 37 37 36 35 35 34 33 33 32 32 33 33 36
37 37 33 33 35 38 37 41 41 41 42 39 40 41 41 40 38 36 36 36 36 33 34 34 33 34 36 36 35 34 35 39 39 35 34 34 33 33 32 32 32 32 32 33
34 33 32 31 34 37 38 41 41 41 41 40 39 39 39 37 36 34 34 34 33 32 34 33 33 34 35 36 36 36 36 37 39 35 34 34 34 33 33 33 33 33 33 34
38 38 38 36 36 37 39 39 39 39 38 39 39 38 37 35 33 32 32 32 30 30 30 31 32 35 35 36 36 36 35 35 34 34 34 33 33 33 33 33 33 33 33 33
38 38 38 37 37 37 38 37 37 37 37 38 38 35 35 34 33 31 30 29 28 28 28 30 34 31 30 34 35 34 33 33 33 34 34 35 34 33 33 32 32 33 33 33
37 38 37 36 36 35 35 35 35 34 34 35 34 32 31 31 32 31 30 28 29 29 31 31 30 30 29 31 34 33 32 32 32 32 33 33 33 32 32 33 33 32 32 32
35 36 35 35 34 35 35 35 34 33 33 34 32 31 31 30 29 30 28 28 30 32 31 32 30 29 30 31 31 30 31 31 31 30 30 31 31 31 30 31 31 31 31 31
34 34 35 34 33 32 35 34 33 32 31 30 30 30 29 29 28 28 29 29 29 34 30 28 27 31 29 30 24 25 24 24 25 26 28 29 29 29 30 30 30 31 31 31
32 30 31 31 30 30 32 32 31 31 30 30 30 30 30 30 29 28 27 29 28 31 28 26 31 35 33 24 23 21 21 20 21 20 18 17 19 18 18 20 22 25 26 26
33 33 32 32 30 30 30 32 32 32 30 31 30 29 28 26 26 27 28 31 32 32 28 27 29 34 31 23 20 18 18 17 16 13 16 25 14 15 17 18 19 21 21 23
32 32 31 31 31 31 31 29 27 27 29 29 30 29 29 28 27 28 26 27 32 31 27 31 33 33 26 25 22 21 20 17 14 15 18 16 15 14 16 17 17 18 17 18
28 30 32 32 32 32 31 30 29 29 28 27 30 29 29 28 27 27 26 28 27 29 27 27 27 27 26 25 25 24 23 20 20 20 20 16 13 13 14 15 15 16 17 16
21 29 24 27 27 27 27 27 27 29 30 29 30 31 30 29 28 29 29 27 27 27 26 26 25 27 25 24 24 23 20 19 22 19 16 14 14 13 15 15 14 15 16 17

GFSNGP_sfc_temp_102.txt.gz
Temp
32 32 33 32 32 33 32 34 27 29 33 41 43 42 43 42 46 46 45 47 47 48 48 46 45 45 45 45 45 45 45 44 44 44 44 43 43 43 43 42 42 41 40 39
19 29 29 29 33 35 35 33 34 33 32 41 46 40 43 44 44 44 45 48 49 48 47 47 46 45 45 45 44 45 44 44 44 43 43 42 41 40 40 39 39 39 38 38
17 27 29 20 30 34 35 37 38 32 39 45 43 43 43 45 45 45 48 49 49 49 48 47 46 46 46 45 44 43 43 43 43 42 41 40 40 39 38 37 37 36 36 37
18 25 13 31 39 38 36 38 41 39 40 44 44 47 50 47 46 47 47 47 47 46 46 46 46 45 45 44 43 43 42 42 42 41 40 39 38 37 36 35 36 35 35 33
20 21 25 33 34 33 34 32 38 35 39 42 45 42 42 45 45 44 43 45 45 43 44 44 44 44 43 42 42 42 42 42 42 41 39 38 37 36 33 33 33 33 34 35
18 18 16 26 36 37 35 27 38 37 37 38 40 34 41 45 44 45 44 43 43 43 43 42 43 43 42 41 41 41 42 42 41 41 40 38 37 34 36 35 34 35 35 34
17 15 23 33 37 38 28 28 37 38 38 37 36 41 44 46 45 45 42 42 42 40 40 42 42 42 41 40 41 43 42 41 41 40 39 38 35 36 35 35 35 35 35 33
23 20 16 35 35 31 34 36 37 37 39 38 40 42 44 43 42 42 42 42 41 39 39 40 41 42 41 40 41 42 42 41 41 39 39 37 36 36 35 35 33 33 34 35
25 26 34 38 34 36 37 36 37 37 39 39 40 41 43 43 40 41 40 40 40 38 38 38 38 41 40 40 41 40 40 39 38 38 37 36 36 34 33 33 33 32 34 34
29 30 31 34 35 38 37 36 38 40 38 40 38 39 40 43 42 41 40 39 39 38 37 37 37 38 39 39 40 40 40 40 37 36 35 35 34 35 34 32 32 34 34 33
25 28 30 32 32 33 36 37 38 39 40 41 39 40 40 41 41 41 41 40 39 38 37 36 37 37 38 39 40 40 41 39 38 37 36 36 35 35 34 35 38 36 35 32
25 29 29 30 33 35 34 35 37 37 38 42 41 39 40 41 41 41 40 39 40 38 37 37 36 36 37 40 42 41 39 38 38 38 36 36 35 35 41 41 42 42 41 37
29 29 31 32 33 34 33 35 36 36 37 38 42 42 40 43 42 42 39 38 38 37 37 37 36 38 39 41 41 41 39 38 37 36 35 35 35 34 34 36 41 41 41 41
35 33 29 31 31 33 34 36 38 37 38 40 41 43 43 42 41 40 39 38 38 37 36 35 34 33 34 37 38 38 39 41 38 37 36 35 35 34 34 34 33 34 38 40
36 37 37 37 32 33 38 39 36 39 40 41 43 41 43 41 40 39 38 38 37 36 35 35 34 33 34 35 35 35 34 34 35 36 35 36 35 34 34 33 33 33 34 36
38 37 37 34 31 32 36 38 38 39 40 40 40 41 41 40 38 37 37 37 36 33 33 33 33 34 34 34 34 33 33 38 36 33 34 34 34 33 33 33 33 33 33 33
34 33 34 34 33 37 36 39 39 38 39 38 38 38 38 37 36 35 34 33 33 33 32 32 34 36 36 36 36 35 35 36 39 35 34 34 34 33 33 33 33 33 33 34
36 38 37 37 36 36 36 37 37 37 36 38 37 37 36 36 35 34 33 32 32 31 32 32 32 32 32 34 35 35 35 34 34 34 34 33 33 33 33 32 33 32 33 33
36 38 38 38 37 36 36 35 35 36 36 36 36 34 33 32 32 32 32 31 31 30 30 31 33 31 30 32 32 34 33 33 33 33 33 34 33 33 32 32 32 32 32 32
37 38 37 37 37 35 35 35 35 34 34 35 35 33 33 32 32 32 31 30 30 31 31 30 30 29 29 30 33 28 31 32 32 32 32 32 31 31 31 32 31 31 31 31
35 36 36 35 34 34 34 33 33 31 30 30 28 28 28 29 29 29 28 27 29 31 31 32 29 28 28 30 29 27 27 27 28 28 28 28 29 29 28 28 28 29 29 29
34 34 35 35 33 32 33 30 29 29 28 27 28 28 28 28 29 29 31 30 30 35 31 28 26 30 28 30 23 22 22 21 21 21 21 22 22 22 22 21 21 24 22 20
33 32 31 28 26 26 27 27 28 29 29 28 28 28 27 28 28 28 28 31 30 32 29 27 30 34 34 23 21 20 20 20 21 21 19 18 19 17 18 18 19 19 17 18
33 33 33 32 33 32 31 30 30 31 30 29 29 29 28 26 28 29 29 32 33 32 29 27 29 34 35 23 20 19 20 19 18 16 17 24 15 14 14 15 15 16 17 18
32 32 31 30 31 31 31 31 31 30 30 29 29 29 28 29 28 30 28 28 32 32 26 31 34 35 29 25 24 24 24 23 21 21 21 19 17 15 16 17 17 17 17 16
30 30 31 30 30 31 30 29 28 29 28 28 27 28 29 29 27 30 28 29 27 29 28 27 27 28 27 27 26 26 25 23 23 21 20 18 16 14 15 16 16 16 16 14
26 28 26 24 24 24 24 24 23 24 26 26 26 28 28 28 28 29 29 27 28 27 27 27 27 29 27 26 26 25 23 22 23 20 18 15 14 13 15 14 13 14 14 14

GFSNGP_sfc_temp_105.txt.gz
Temp
29 30 31 31 31 32 26 31 29 31 33 40 43 46 47 48 48 48 50 51 51 51 51 50 50 49 49 50 50 50 49 49 49 49 49 48 48 48 48 48 48 48 46 46
16 30 29 27 31 32 32 34 33 33 34 42 46 46 46 46 48 48 49 50 51 51 51 51 51 50 49 49 48 49 48 48 48 48 47 47 47 46 46 45 45 45 44 44
16 26 27 20 32 32 34 36 36 29 40 45 43 44 43 45 46 47 49 50 51 51 50 50 51 51 51 50 48 47 48 47 47 47 46 46 45 44 43 43 43 43 42 43
20 20 12 31 37 38 35 35 36 38 40 41 42 46 47 47 47 48 48 49 49 49 49 50 50 50 49 48 47 46 46 46 46 45 45 44 43 43 41 41 41 40 40 39
19 21 24 31 33 32 32 33 36 35 38 39 41 42 43 48 47 47 47 47 47 47 47 47 47 48 48 47 46 45 45 45 46 45 44 42 41 40 37 35 34 35 37 38
18 15 17 29 35 37 35 28 37 37 36 37 39 35 41 44 46 47 46 46 45 45 45 45 45 45 45 45 44 45 46 45 45 45 44 42 40 38 37 37 35 37 37 38
18 16 23 32 36 37 28 29 37 38 38 38 36 39 43 45 46 46 45 45 44 43 42 43 43 43 43 43 43 46 45 45 44 44 42 41 37 38 37 37 37 37 38 38
23 20 17 35 35 31 35 37 38 38 39 38 39 41 42 43 45 44 43 43 43 42 41 41 41 42 42 42 43 44 44 43 42 42 41 39 38 37 38 37 37 37 37 38
26 26 34 36 35 37 37 36 36 37 39 40 40 40 41 40 43 43 42 42 41 40 40 40 39 40 41 43 42 42 42 42 42 41 40 39 37 36 36 37 37 37 37 37
29 30 32 34 36 40 36 35 37 38 38 38 39 41 40 41 41 42 41 40 40 40 39 38 38 39 39 41 42 42 42 41 40 40 38 38 38 37 37 37 37 37 37 37
26 29 30 32 34 34 35 35 36 37 38 38 39 41 40 40 41 42 42 41 40 39 38 37 38 38 39 41 42 41 41 40 40 40 37 37 38 38 38 40 40 39 38 37
26 30 30 31 32 34 33 34 35 35 35 38 39 40 42 42 42 43 43 41 40 39 38 38 37 38 40 42 43 42 40 39 39 39 38 38 37 36 40 41 42 42 41 39
30 29 31 32 33 33 33 34 35 35 35 35 38 40 42 42 42 43 41 39 38 38 37 37 36 38 38 41 42 41 40 39 39 39 37 36 35 35 35 38 42 42 42 42
33 32 29 31 30 33 33 34 37 36 39 37 38 40 43 43 42 41 39 39 38 38 36 36 35 34 35 37 39 39 40 40 39 38 37 36 37 36 36 35 34 35 39 41
33 36 34 33 31 32 34 36 37 38 40 41 42 41 42 41 40 39 39 39 38 37 36 35 35 34 35 36 36 36 36 37 38 38 37 36 35 35 35 34 34 35 34 37
34 37 35 35 32 32 36 38 38 38 39 39 39 39 40 40 38 37 37 37 37 35 34 34 34 35 36 35 35 35 35 39 37 35 35 35 35 34 34 34 34 34 34 34
32 30 34 35 35 37 37 38 37 37 38 38 37 38 38 38 37 36 34 34 35 34 32 33 34 35 37 37 36 36 36 37 40 36 35 35 35 34 34 34 33 33 34 34
34 36 38 37 36 37 36 37 37 36 36 37 37 37 36 36 35 35 34 33 32 31 32 33 33 33 33 34 34 36 35 35 34 35 34 34 33 34 33 33 33 32 32 33
36 39 37 38 37 36 36 36 35 36 36 36 36 35 34 33 34 33 33 32 31 31 32 32 34 33 32 33 33 34 34 33 33 33 33 35 33 33 32 32 32 32 32 32
37 39 38 37 37 36 35 36 35 34 33 33 34 34 33 33 32 32 32 31 32 32 32 32 32 31 31 32 33 31 32 33 32 32 32 32 32 31 31 32 31 31 32 32
36 37 36 36 35 35 33 34 33 29 29 29 28 28 28 28 29 29 28 28 32 32 32 33 31 31 30 31 31 29 29 29 29 30 29 30 30 29 28 28 29 29 28 28
35 35 35 35 32 31 29 27 27 28 27 27 28 28 27 27 27 28 30 30 31 35 32 31 30 31 31 32 27 27 26 26 25 24 23 24 25 24 23 23 24 25 24 24
33 31 30 28 26 26 28 27 27 28 28 28 29 28 27 27 27 26 27 31 31 32 31 30 30 33 35 27 26 25 24 24 24 23 23 22 23 22 22 22 22 22 21 21
34 32 32 32 28 31 31 32 32 32 31 31 31 31 28 26 28 29 28 32 35 33 31 30 31 35 36 26 24 23 23 23 22 21 22 26 21 20 20 20 20 20 20 21
35 32 31 30 30 29 27 29 27 25 27 28 29 28 29 28 27 30 28 28 32 32 29 32 34 35 30 26 24 24 24 23 22 23 24 23 22 21 21 20 20 20 20 19
30 31 31 32 31 30 27 26 24 23 28 27 27 25 27 28 28 29 28 29 27 28 28 28 28 28 28 27 26 26 26 26 27 27 24 23 22 20 19 19 19 19 19 17
28 30 27 25 23 23 23 24 23 23 25 24 24 26 26 26 27 29 30 27 28 27 27 27 27 28 27 27 27 27 26 25 26 24 23 22 21 19 19 19 18 17 16 16

GFSNGP_sfc_temp_108.txt.gz
Temp
35 36 36 34 34 36 31 35 29 35 34 46 50 51 53 56 56 57 58 59 60 60 61 62 62 62 60 60 60 61 60 59 59 59 59 58 57 57 57 58 57 57 55 54
26 35 35 31 36 37 37 37 37 38 37 49 54 54 54 54 53 54 56 59 60 59 60 59 60 60 59 59 59 59 59 58 57 56 56 55 56 56 56 55 55 54 54 52
28 33 29 28 36 38 38 40 38 32 43 48 47 49 51 53 55 55 56 57 58 59 59 60 59 59 60 60 59 58 58 57 56 56 55 54 54 53 52 52 52 52 51 51
29 30 24 37 43 42 38 36 37 38 39 41 45 48 50 54 54 56 57 57 57 57 57 57 58 59 58 57 58 56 57 57 56 55 54 54 53 52 52 52 51 50 49 48
28 30 33 37 39 39 37 35 36 35 39 42 46 48 48 52 53 54 55 56 55 56 55 55 56 56 56 57 57 56 55 56 56 55 54 53 51 50 48 43 42 44 46 45
29 24 26 38 41 43 42 35 39 38 39 40 45 41 44 48 50 52 54 54 54 54 54 55 55 54 54 56 56 55 56 55 55 55 54 52 50 47 47 42 38 42 43 47
30 29 35 43 43 44 32 36 42 42 40 39 38 40 44 47 48 48 49 50 52 53 52 52 52 52 52 53 53 55 54 53 53 52 51 50 43 44 41 40 41 42 44 47
29 26 28 44 42 38 42 44 44 43 43 42 42 44 47 47 47 49 47 47 48 48 49 49 48 48 50 50 52 52 52 52 51 51 49 47 46 43 43 43 43 43 43 44
37 40 43 45 44 45 45 43 43 43 44 44 44 45 44 46 48 48 48 48 48 46 45 46 46 46 46 49 50 50 51 51 51 51 50 49 44 41 41 43 42 43 46 45
36 42 42 44 45 46 45 43 43 44 44 45 44 45 46 44 47 48 48 47 47 47 47 46 46 45 46 48 50 50 51 50 50 49 48 47 44 41 42 41 45 46 45 43
38 41 40 42 44 44 42 42 42 44 44 43 44 45 46 46 46 48 48 47 46 46 44 44 46 46 47 47 49 49 49 48 48 47 44 42 43 42 42 44 47 46 45 43
42 43 44 42 43 41 40 40 42 41 42 44 44 44 46 47 45 45 45 44 44 43 42 44 45 45 44 44 47 49 45 44 43 42 40 40 39 38 41 41 42 42 42 41
43 42 41 41 41 41 40 41 42 42 43 42 45 45 46 47 44 44 44 44 42 41 43 44 44 43 43 45 45 43 44 41 41 41 39 38 38 37 35 38 41 42 42 42
42 41 37 38 39 41 40 41 42 43 43 41 44 46 47 46 44 43 43 42 41 40 41 42 42 41 42 43 43 45 45 41 41 39 38 37 37 38 36 36 35 36 41 42
40 42 41 41 40 40 41 41 40 41 42 41 42 43 43 43 42 42 40 40 40 38 37 37 39 39 40 41 41 41 42 43 44 43 40 38 38 36 36 36 35 35 35 38
40 41 40 39 39 39 40 40 39 39 40 39 39 39 40 39 39 39 39 39 38 38 37 37 37 38 39 39 39 40 41 39 40 40 39 38 36 35 35 35 34 35 35 36
37 34 36 37 38 39 39 40 39 38 39 39 39 39 39 38 38 37 37 36 36 37 38 38 38 39 39 40 39 38 40 40 40 39 39 39 37 36 35 34 34 34 35 35
43 42 43 43 41 39 38 39 38 38 37 37 38 37 37 37 37 36 35 34 33 32 33 34 34 36 38 38 38 39 38 37 36 37 36 35 35 35 34 34 33 33 33 33
41 41 41 42 41 40 38 38 37 37 37 37 36 35 35 35 34 35 35 34 33 32 34 34 33 33 34 35 36 37 37 36 35 35 34 35 35 34 33 33 33 33 33 33
39 40 41 40 39 37 37 37 37 36 35 35 35 35 35 36 35 35 35 34 35 36 34 34 34 34 35 35 35 35 35 36 35 34 34 34 33 33 33 33 33 33 33 33
39 39 38 39 37 37 37 38 37 35 36 35 34 34 35 36 36 35 34 34 39 37 36 35 36 35 35 35 35 34 34 35 35 35 34 34 33 33 33 33 32 33 32 32
39 37 37 37 35 36 35 35 35 34 34 34 34 34 34 34 34 34 35 35 38 35 36 36 35 34 34 34 32 32 32 32 32 31 31 32 32 31 31 31 30 30 30 30
36 36 36 35 34 34 34 35 35 34 34 34 32 32 32 33 33 32 32 36 36 35 36 36 34 33 34 33 30 30 30 31 31 30 30 30 30 30 30 29 29 28 28 27
36 35 35 35 34 34 34 36 35 34 33 33 33 33 32 31 34 35 34 34 34 35 35 35 34 34 34 31 29 29 29 29 30 29 30 29 28 28 27 27 26 26 25 25
36 35 34 33 34 36 32 31 31 31 32 32 32 33 33 35 31 34 33 33 32 32 33 33 34 35 34 32 29 29 30 29 28 28 29 28 27 27 26 25 25 25 25 25
36 36 36 35 34 33 33 32 31 31 31 31 33 33 33 34 33 33 33 32 32 31 31 31 30 31 30 31 31 30 30 30 30 30 29 28 27 26 25 25 24 25 25 24
33 34 31 30 29 30 30 30 28 30 30 30 30 32 32 32 32 33 33 33 32 32 31 31 30 30 30 29 29 29 29 29 30 29 28 28 27 25 25 25 24 24 23 23

GFSNGP_sfc_temp_111.txt.gz
Temp
37 39 38 36 36 39 32 35 30 38 37 46 50 53 55 58 59 59 59 61 61 62 63 64 63 62 63 62 63 63 62 62 61 62 62 61 59 58 57 56 56 55 54 53
29 38 37 34 39 40 39 40 39 41 40 52 53 55 55 56 56 56 58 60 61 62 63 62 63 61 61 61 60 63 61 60 59 59 58 58 57 57 56 54 54 53 52 51
30 37 32 29 38 39 41 42 39 34 44 48 47 49 51 52 55 56 58 59 59 60 60 61 60 61 62 61 61 61 60 59 58 57 56 56 56 55 54 53 54 53 52 51
32 32 27 39 46 44 41 40 40 41 40 42 47 51 52 54 54 55 56 57 58 58 59 59 60 61 61 60 60 58 59 58 57 57 55 55 54 53 52 52 52 50 49 49
31 35 37 40 42 42 40 38 38 37 42 46 49 51 48 50 52 53 55 56 57 58 58 58 58 58 59 60 60 59 57 58 57 56 54 53 51 50 50 44 43 46 47 47
33 28 29 42 45 47 46 35 43 39 41 42 48 42 41 48 51 52 54 54 54 56 58 58 57 57 56 57 58 58 59 58 58 56 55 52 51 49 48 43 40 46 46 48
35 32 39 47 47 48 33 36 45 45 43 43 41 42 45 49 50 51 50 51 52 54 55 55 54 54 54 55 55 58 58 58 57 56 53 52 46 48 45 42 44 45 45 48
35 30 30 49 45 39 45 48 48 46 45 44 46 48 47 48 49 50 49 48 49 49 51 51 51 51 51 51 54 54 55 54 54 54 52 50 48 45 45 46 44 44 45 46
41 42 48 51 49 50 49 48 47 46 47 47 46 47 49 49 49 51 51 51 51 50 48 48 49 49 47 50 52 52 53 53 53 53 51 49 47 44 44 46 46 46 46 45
40 48 47 48 49 50 49 47 47 47 47 47 45 47 48 49 50 49 51 50 50 50 49 49 49 49 49 49 51 51 52 53 53 52 50 50 47 44 45 46 46 46 46 45
43 47 45 47 49 49 46 45 45 47 46 45 45 45 48 48 50 48 50 50 49 48 46 46 48 48 48 48 50 50 51 51 51 51 49 48 46 44 45 47 48 47 46 43
45 51 49 47 49 47 44 44 45 44 44 46 46 45 47 48 50 48 46 47 46 45 45 46 47 47 46 47 47 49 48 48 48 45 43 42 41 39 42 43 44 43 44 42
49 49 48 47 46 46 44 44 45 44 45 44 45 47 47 48 50 46 45 44 44 42 44 46 46 45 44 45 47 44 43 43 42 41 41 40 40 38 35 38 42 42 42 42
49 46 42 43 43 44 44 44 44 44 45 45 43 48 47 47 48 44 43 44 44 43 43 44 44 43 44 44 44 45 46 42 44 42 39 37 37 36 36 36 35 35 41 41
46 48 47 46 44 43 44 43 40 42 44 43 44 43 44 43 42 42 41 41 40 40 38 38 39 40 42 42 42 42 43 43 44 44 41 38 36 36 36 35 35 35 35 39
45 45 44 42 42 42 43 42 39 41 41 41 41 41 40 40 39 39 39 39 37 38 39 38 38 38 39 39 40 41 42 40 41 40 39 39 38 37 36 35 35 35 34 35
40 38 39 39 40 42 42 42 41 40 40 40 39 40 40 40 39 39 37 37 37 37 36 36 37 38 40 41 40 40 39 40 40 39 38 38 37 36 35 34 34 34 35 35
47 47 45 45 43 43 41 41 40 40 38 39 39 38 37 37 36 36 36 35 35 35 35 34 34 34 36 37 38 38 39 39 38 38 37 35 35 35 35 34 34 33 33 34
46 45 46 46 46 44 41 39 39 39 39 39 38 37 36 36 37 36 35 34 34 34 37 35 34 34 35 36 35 36 37 37 37 35 35 35 35 34 33 33 33 33 33 32
43 45 44 43 42 40 39 39 38 38 38 37 37 37 36 37 37 37 37 36 37 37 36 36 36 35 35 36 35 35 34 35 35 36 34 33 33 33 33 33 32 32 32 32
41 41 41 40 38 39 40 40 40 38 39 38 36 37 36 37 38 37 36 35 39 37 37 37 36 36 36 36 35 35 34 34 34 35 34 33 32 32 32 32 32 32 32 31
42 40 39 39 38 37 39 39 38 37 37 37 37 36 35 35 36 35 37 35 37 38 37 37 37 36 35 35 33 32 32 32 32 31 31 32 32 32 31 31 30 30 29 29
40 39 37 37 36 38 38 37 37 37 36 36 34 33 33 33 33 31 32 37 36 36 35 36 37 35 35 34 33 31 31 31 30 30 29 29 30 30 30 29 28 28 27 27
37 37 38 38 38 37 35 38 38 37 35 34 34 35 34 33 35 37 36 36 35 35 35 36 36 36 35 33 33 31 30 30 30 30 29 31 29 28 28 27 26 26 25 25
36 36 36 35 34 36 35 33 33 33 34 34 34 35 35 35 33 35 35 34 35 34 32 35 35 35 34 34 33 31 30 29 29 29 28 28 28 27 27 26 25 25 24 24
36 37 38 37 37 37 36 34 33 34 33 33 34 35 34 34 34 34 35 35 33 33 32 33 32 32 31 31 31 32 31 30 30 30 29 28 28 27 27 26 26 26 26 25
36 37 35 33 32 32 33 33 32 32 32 32 31 34 33 33 33 33 34 33 33 33 33 33 33 32 32 31 30 30 30 30 31 29 29 28 27 27 26 26 25 25 25 24

GFSNGP_sfc_temp_114.txt.gz
Temp
33 36 36 33 33 36 23 30 20 31 32 41 44 45 47 49 51 53 53 53 53 52 53 54 53 54 54 55 55 56 56 56 56 57 56 55 53 55 54 54 53 53 53 52
19 35 34 30 37 37 37 37 35 36 36 44 48 50 45 48 50 50 51 54 54 53 53 53 52 54 55 54 54 55 54 54 55 54 54 52 51 51 52 51 51 51 51 51
21 30 27 20 35 37 39 42 38 33 36 40 41 46 47 45 48 49 50 51 51 52 51 50 51 53 52 53 55 54 53 53 53 52 51 50 50 50 50 50 50 49 49 49
21 23 15 34 43 42 39 39 38 38 39 43 46 47 46 45 45 46 48 49 50 49 49 51 52 52 52 53 53 53 53 52 52 51 50 49 48 47 46 47 48 48 47 46
20 20 30 36 39 38 36 35 38 36 38 41 45 46 42 45 46 45 46 47 48 50 52 51 50 50 51 52 53 52 52 51 51 51 49 48 46 45 44 41 40 43 43 43
23 20 21 34 41 44 42 27 39 38 38 38 40 37 39 45 46 46 46 47 46 47 49 49 49 49 49 49 50 50 51 51 51 50 49 46 45 44 42 41 39 41 42 42
23 21 31 41 43 44 25 30 41 41 40 39 37 42 41 47 45 46 46 47 47 46 45 45 46 46 45 46 46 48 49 50 51 50 48 46 43 42 39 39 40 40 40 41
26 22 19 42 40 33 38 41 44 42 41 41 41 42 43 44 45 47 45 45 46 43 43 45 44 44 43 43 45 47 47 48 48 48 47 44 42 40 39 39 38 38 39 39
32 31 42 44 42 43 44 42 42 40 42 42 41 42 43 43 42 46 49 45 45 43 43 43 44 43 41 42 44 45 45 45 46 47 44 43 41 39 38 39 39 39 40 41
34 39 40 43 43 44 44 41 42 42 41 41 40 41 41 42 43 43 47 44 46 45 42 41 42 43 42 44 45 45 44 44 46 48 46 44 43 40 40 40 40 42 43 42
34 39 37 41 43 43 42 42 41 41 41 40 40 40 41 41 42 43 43 47 46 43 40 40 42 42 42 42 43 43 45 47 48 48 46 44 43 42 39 42 44 44 41 40
31 41 39 38 42 44 41 40 41 39 38 41 41 40 43 41 42 42 41 43 44 44 42 42 42 40 40 40 41 41 41 43 44 43 41 42 41 39 42 44 45 45 45 43
40 40 41 41 41 41 40 40 41 39 39 39 42 43 45 44 42 44 41 41 42 41 42 43 43 42 41 41 41 41 41 41 41 41 40 39 38 36 35 38 42 42 43 43
41 40 36 38 36 39 40 41 42 39 40 40 42 44 45 45 45 41 42 42 42 41 41 41 41 40 41 41 41 41 41 42 41 39 38 38 37 36 36 35 35 35 41 41
40 41 40 40 39 39 40 39 37 40 43 41 42 41 41 39 40 40 40 40 40 39 38 38 38 39 39 39 38 38 38 36 36 37 36 37 36 35 35 35 35 35 36 40
41 40 39 37 37 38 38 37 38 41 41 41 40 40 40 39 39 38 38 38 37 37 37 38 38 38 39 39 38 38 39 39 40 36 36 36 35 34 35 35 35 35 35 35
37 34 35 34 35 36 37 38 40 40 40 40 39 39 39 39 39 38 37 37 37 36 36 35 36 37 37 38 37 37 36 37 40 36 35 35 35 35 35 34 34 34 35 35
40 40 39 38 37 37 37 40 40 39 39 39 39 38 37 37 36 36 35 35 35 34 35 35 35 34 34 36 36 36 35 34 34 34 35 33 33 34 34 34 34 33 34 34
41 40 40 41 40 39 38 39 39 39 39 38 37 36 36 36 36 35 35 34 34 33 33 35 35 34 33 34 34 33 33 33 33 33 33 35 34 34 33 32 32 33 33 33
40 40 40 39 39 39 39 40 38 37 37 33 32 31 30 31 32 31 31 29 30 31 33 34 35 32 31 31 35 31 31 31 31 32 32 32 32 32 32 33 32 32 32 32
38 38 37 37 38 38 38 39 38 34 32 33 31 30 30 31 31 31 28 27 31 33 33 34 31 29 30 32 32 28 28 28 28 27 29 32 32 32 31 31 31 31 31 31
37 36 35 35 35 36 35 34 33 32 32 31 31 30 31 32 33 33 34 33 30 37 32 30 29 32 30 35 25 25 24 24 23 23 23 25 28 29 29 29 29 29 29 29
35 35 34 36 36 37 32 31 31 31 30 30 30 30 30 28 28 26 27 31 30 32 30 29 33 37 37 28 24 26 24 23 23 22 22 22 24 24 25 26 26 26 25 24
34 36 37 38 37 32 29 30 31 31 33 33 30 30 29 26 27 29 29 34 35 33 30 30 32 36 37 25 24 25 25 24 23 21 22 29 25 26 26 26 25 25 24 25
35 35 32 28 29 29 28 28 28 25 27 27 29 29 29 28 27 28 27 28 33 32 31 34 34 34 33 27 25 25 26 25 25 25 25 23 25 26 25 25 24 24 23 22
31 31 31 30 30 30 29 27 25 24 25 27 27 27 27 28 27 27 27 30 28 30 27 29 32 32 31 30 28 27 27 27 28 27 27 26 26 25 25 25 24 24 24 23
32 35 29 28 28 28 28 28 26 26 28 27 26 27 27 27 27 28 30 26 26 26 25 25 25 29 32 31 30 29 28 27 28 26 26 26 26 26 25 24 24 24 24 24

GFSNGP_sfc_temp_117.txt.gz
Temp
29 33 33 31 31 33 20 27 19 28 31 35 39 40 44 42 47 48 48 49 49 48 48 50 50 52 53 53 53 55 55 55 55 56 54 54 55 54 54 54 54 54 53 53
17 32 31 30 35 34 35 35 32 33 34 39 43 42 39 41 45 44 46 47 48 48 47 48 48 50 51 52 52 53 52 53 53 53 54 52 51 51 51 51 51 51 51 51
18 29 23 18 33 34 35 37 35 26 33 37 40 42 39 39 41 43 45 45 46 45 46 47 47 49 49 51 51 51 51 51 52 52 51 50 50 49 48 47 47 46 47 47
16 19 11 32 40 40 37 37 37 36 36 42 44 44 41 41 40 41 43 44 45 44 45 46 46 47 48 50 50 50 50 50 50 50 49 49 48 47 46 46 46 45 45 46
17 15 28 32 36 36 33 33 37 35 37 39 41 43 38 42 42 41 42 43 43 43 45 45 44 45 46 47 48 49 49 49 49 49 47 47 46 45 44 41 41 45 46 45
19 18 20 33 38 42 39 27 37 37 36 36 38 32 38 40 43 43 43 43 43 43 44 42 42 43 44 44 45 45 47 48 49 48 47 45 44 43 43 41 40 41 43 44
18 17 27 38 40 41 24 30 38 38 38 37 34 39 40 43 43 43 43 44 43 42 41 42 42 42 41 42 41 44 46 47 47 48 46 45 43 41 40 40 40 40 40 40
21 18 19 39 37 33 37 38 40 39 39 39 39 39 40 41 42 44 44 43 43 41 41 42 42 41 40 39 42 43 44 44 44 45 46 44 42 40 39 39 38 38 39 38
28 28 38 40 39 41 41 40 40 39 40 41 40 38 40 40 40 42 43 45 43 41 40 40 40 40 38 39 41 42 42 42 43 44 43 42 40 38 37 37 37 37 38 38
33 35 38 40 41 42 42 40 40 40 40 39 37 38 37 39 39 40 42 43 44 44 39 39 39 40 38 39 41 41 41 42 42 43 45 44 43 40 37 37 37 38 38 39
30 35 37 40 40 41 40 40 40 41 40 39 37 37 38 38 39 40 41 42 44 44 39 39 39 38 38 39 39 39 40 41 45 46 45 43 43 42 42 41 41 41 42 42
31 37 37 37 39 40 38 38 39 39 38 38 39 38 40 41 39 39 39 40 40 43 42 43 41 39 38 39 38 38 39 39 42 42 41 42 41 40 43 43 45 45 45 44
39 37 39 37 38 39 38 38 39 38 38 37 38 40 43 45 41 44 39 39 42 41 42 43 43 41 41 42 41 41 41 40 39 41 40 39 38 37 36 39 42 42 43 44
39 38 34 36 36 38 38 39 42 38 38 38 38 43 43 43 43 41 40 41 42 41 41 40 41 40 40 40 40 39 40 40 39 39 37 37 37 36 36 35 35 36 41 42
38 38 38 38 36 36 37 37 35 36 38 40 39 39 41 39 37 40 40 40 40 40 39 39 38 39 39 39 38 38 38 38 37 35 35 37 36 35 35 35 35 35 36 39
37 37 36 36 35 35 35 35 34 36 42 41 41 38 39 38 39 38 38 38 37 37 38 38 38 38 39 38 38 38 38 39 39 37 36 35 35 35 35 34 34 34 34 35
34 31 32 32 34 34 35 35 36 38 41 40 40 40 39 38 38 37 36 37 36 36 36 36 36 38 37 37 36 36 36 37 39 35 33 34 34 34 34 34 34 34 35 36
40 42 39 37 36 35 34 35 36 40 40 40 39 38 37 36 36 35 35 35 35 35 35 33 33 34 35 34 33 32 32 32 33 33 33 32 33 34 34 34 34 34 34 34
38 39 38 38 38 37 35 36 37 40 39 39 38 36 35 34 36 34 31 30 28 26 30 33 35 35 33 34 34 30 30 30 30 30 32 34 33 33 32 32 33 33 33 33
37 38 38 37 37 37 36 36 39 38 38 36 32 29 28 29 30 29 29 28 28 29 30 31 32 31 32 30 34 29 28 28 28 27 29 31 32 31 33 33 32 32 32 32
37 37 36 36 35 36 36 37 39 38 36 31 29 28 28 29 30 30 28 28 30 32 32 34 30 29 29 31 31 28 27 28 27 25 26 29 32 32 32 31 31 31 31 31
36 35 35 35 34 33 35 36 36 33 30 29 29 29 29 28 30 31 31 28 29 35 31 28 27 31 31 35 24 24 24 24 24 22 22 23 23 25 27 29 29 29 29 29
35 35 33 33 33 33 32 30 30 30 29 29 29 28 28 28 26 26 26 30 29 31 30 27 31 35 37 28 23 23 23 24 24 24 23 21 21 20 20 21 22 25 24 25
34 34 34 34 34 35 30 29 29 29 29 30 32 31 28 26 26 26 27 31 33 32 30 31 34 34 35 31 29 27 22 24 23 23 23 29 23 22 22 23 22 21 23 25
33 32 31 31 34 31 27 27 25 25 27 27 28 28 28 27 26 27 25 26 31 31 27 32 35 34 32 30 30 29 27 24 25 24 25 24 24 22 22 21 23 24 24 24
33 34 35 32 29 29 28 27 25 23 24 26 26 26 26 26 26 26 25 28 26 29 24 24 25 27 28 30 31 30 30 28 28 27 27 25 24 24 24 24 25 25 25 24
28 31 27 27 28 28 28 27 26 25 27 26 25 26 26 26 26 25 27 23 24 24 22 22 22 24 24 24 27 30 30 30 30 28 25 26 25 25 26 25 25 25 25 24

GFSNGP_sfc_temp_123.txt.gz
Temp
27 29 30 30 30 31 19 25 17 24 26 30 33 34 36 36 40 41 41 42 42 42 41 42 44 46 47 49 50 53 54 54 54 56 57 57 55 55 55 55 55 56 56 58
16 30 29 28 32 31 32 31 30 30 30 35 34 33 34 37 39 39 39 40 41 42 41 41 40 42 45 46 47 49 49 50 53 54 54 53 52 52 52 51 51 51 52 52
17 25 22 17 30 32 32 33 32 25 31 35 36 37 35 36 37 38 39 40 40 39 39 40 40 41 41 43 45 47 47 48 49 50 51 50 49 50 49 49 49 50 50 50
15 19 14 30 35 36 34 35 35 33 34 36 37 37 37 36 36 38 39 40 40 39 40 40 40 41 42 43 43 44 44 45 46 47 48 48 47 47 46 47 48 47 47 48
16 13 26 29 32 32 30 32 35 34 35 36 37 36 36 39 38 37 38 40 40 39 40 39 39 40 41 41 41 42 42 42 43 45 45 45 45 45 44 41 41 44 45 46
18 17 20 29 33 37 36 27 36 36 35 35 35 30 32 38 39 40 41 41 40 40 40 40 39 39 39 39 39 39 41 42 43 43 44 43 43 42 42 42 42 41 44 44
16 16 25 32 36 37 25 31 36 37 36 35 33 35 38 39 39 39 40 41 40 39 38 38 39 39 38 38 38 39 40 41 42 42 42 42 42 41 40 40 40 40 41 42
19 16 21 36 35 31 37 34 36 37 37 36 37 37 37 38 38 38 38 39 39 39 39 39 39 38 37 37 38 39 40 41 41 41 41 42 41 40 39 38 38 38 39 39
28 29 37 37 38 39 38 38 37 37 38 38 38 37 38 38 36 37 38 39 40 38 38 38 38 37 37 37 37 38 39 39 40 41 41 41 40 39 38 38 37 37 37 37
32 34 34 39 40 39 39 39 40 39 39 38 37 37 37 37 36 36 37 38 39 38 38 37 36 37 36 36 37 38 38 38 39 41 43 44 44 42 41 41 40 40 39 38
28 34 34 37 37 40 39 39 39 38 39 38 37 36 36 35 36 36 36 37 38 38 37 37 37 36 36 36 36 36 37 37 38 40 42 42 43 40 41 42 42 41 41 41
33 39 40 40 38 38 38 38 38 37 36 37 37 36 36 36 36 36 35 36 37 37 37 37 38 37 37 40 38 36 36 36 37 39 40 41 40 40 44 44 44 43 43 43
44 38 38 36 37 37 37 37 38 37 37 35 36 37 37 37 37 38 36 36 36 37 37 37 37 38 38 41 40 39 37 35 35 36 35 37 37 36 36 40 43 43 43 43
41 37 37 35 39 37 37 37 41 36 36 36 36 37 37 37 39 39 41 40 37 36 37 38 40 40 39 40 39 39 39 40 38 38 36 36 36 36 36 35 35 36 41 42
41 41 46 37 36 35 35 35 34 33 34 34 35 36 36 36 35 36 37 38 39 39 39 39 38 39 40 40 38 38 37 37 37 37 36 37 35 34 35 34 34 35 36 38
38 38 39 37 36 34 33 33 34 34 34 34 35 35 35 34 34 34 35 35 34 33 34 35 36 36 38 37 36 37 37 37 37 33 32 33 33 33 33 33 32 32 34 35
35 33 32 32 35 35 34 37 38 36 35 35 35 36 36 39 39 38 36 35 36 36 36 36 35 34 34 34 35 34 30 30 34 29 28 32 32 31 31 32 31 32 34 35
45 47 43 42 39 38 35 35 35 35 36 37 37 36 37 37 36 37 37 36 35 33 30 31 31 32 33 34 34 34 32 29 29 28 28 29 30 32 32 31 31 31 32 33
41 41 41 42 39 40 38 35 35 36 36 37 36 34 37 37 37 37 35 29 26 24 29 30 34 33 30 31 33 33 32 29 27 27 28 30 26 28 31 31 31 32 33 32
36 38 39 38 37 38 35 36 36 35 36 35 34 34 34 34 30 29 28 27 27 28 30 30 31 29 29 30 33 28 28 27 26 25 26 26 24 25 26 29 30 29 32 32
35 35 36 35 34 36 36 36 36 34 34 34 33 34 33 29 28 28 26 26 29 30 30 32 29 28 28 30 30 27 27 26 26 24 24 23 23 23 24 25 26 27 29 28
33 33 34 34 33 32 33 35 36 34 33 31 32 32 28 27 27 27 29 28 28 34 30 27 26 28 31 35 31 30 29 23 25 28 25 21 21 21 21 22 21 24 25 24
33 33 32 33 33 33 31 33 33 34 32 31 32 28 27 27 26 26 26 28 28 30 28 27 30 35 36 27 23 22 22 22 24 28 28 26 23 21 21 21 21 22 21 21
32 32 32 33 32 33 30 30 31 31 31 31 29 29 28 26 25 26 27 31 32 31 28 28 30 34 35 22 20 19 20 21 27 27 28 30 27 24 23 22 21 21 20 22
28 28 28 31 32 34 32 27 26 26 27 26 27 27 28 27 27 26 25 26 31 27 24 28 30 31 25 22 20 20 19 20 21 27 27 27 26 26 24 23 23 22 21 20
28 30 31 32 34 32 31 30 28 27 27 26 25 25 25 25 26 24 25 26 24 25 21 20 22 24 22 22 21 21 20 19 20 20 24 25 27 26 26 24 23 23 23 22
27 32 27 28 29 30 30 30 29 26 29 27 25 24 25 24 25 25 25 21 21 21 18 18 18 20 20 20 19 19 17 17 19 18 18 18 20 22 25 25 24 24 24 22

GFSNGP_sfc_temp_126.txt.gz
Temp
26 27 29 29 29 30 19 24 16 23 26 31 34 34 34 35 38 39 39 41 41 40 41 42 42 44 45 47 49 52 53 54 54 55 56 55 55 55 55 55 55 55 57 57
15 30 28 27 31 30 31 31 29 29 28 34 33 36 36 36 37 37 38 39 40 40 40 40 39 41 43 45 45 49 49 50 52 53 53 52 52 52 52 52 51 52 52 52
16 24 21 17 30 31 31 32 31 25 31 34 34 36 36 37 37 37 38 39 38 38 38 39 39 40 40 42 44 45 45 46 47 48 48 47 48 48 48 48 49 49 50 50
16 17 16 30 33 34 33 34 34 33 33 36 36 37 38 38 35 37 38 39 39 38 38 39 39 39 40 41 41 42 42 42 43 44 46 47 46 45 45 45 46 47 47 47
15 12 25 26 30 31 30 32 33 33 34 35 36 34 36 39 38 36 36 38 38 38 39 38 38 38 39 39 39 40 40 41 42 42 43 43 43 43 43 41 40 43 45 45
17 17 20 28 32 35 34 28 36 34 34 34 34 28 32 36 39 39 39 40 39 39 39 38 37 38 38 37 38 38 39 40 41 42 42 42 42 42 41 41 41 41 43 43
15 15 25 32 35 36 23 32 35 35 35 34 32 35 37 39 38 38 38 38 38 37 37 37 37 38 37 37 36 37 39 40 41 40 41 40 40 39 39 39 40 39 40 41
18 15 22 35 33 31 38 33 36 35 36 35 36 36 36 38 38 39 39 37 38 38 38 37 38 37 36 36 36 38 39 39 39 40 41 40 39 38 38 38 37 37 38 39
28 30 37 35 38 39 37 38 37 36 38 38 37 36 37 37 37 38 38 37 38 37 37 37 37 36 36 36 36 37 38 38 38 39 40 40 39 38 37 38 38 40 40 40
31 33 34 38 40 37 39 38 40 39 39 37 37 37 36 36 36 35 36 36 37 37 36 36 36 36 35 35 36 36 36 36 37 38 40 40 40 39 38 38 39 40 40 39
29 34 36 38 38 40 39 39 38 39 39 38 37 36 36 35 35 35 35 36 36 36 36 36 36 36 35 36 35 35 35 36 36 37 38 38 40 40 38 38 40 40 40 40
39 45 43 45 40 39 38 37 39 38 36 37 37 36 36 35 35 35 34 34 35 36 36 36 36 36 36 36 36 34 34 34 34 35 34 35 35 36 42 43 43 43 43 42
47 41 42 41 39 38 38 38 37 38 38 36 35 36 36 35 35 37 34 34 35 36 36 36 36 36 37 38 37 36 35 35 35 36 34 34 35 36 35 39 42 42 42 42
45 37 39 38 42 39 38 38 40 36 36 36 36 35 36 36 37 37 36 37 36 36 36 36 36 38 41 40 39 39 39 39 38 37 36 33 33 34 35 34 33 35 39 40
42 41 47 40 38 37 35 34 34 33 34 33 34 35 35 35 35 35 36 36 36 37 39 39 39 39 40 39 38 37 37 37 37 34 32 33 30 30 31 33 32 33 34 36
41 41 38 38 41 36 34 33 34 35 34 34 34 34 35 35 34 34 34 34 34 35 37 36 34 35 35 34 33 35 36 36 36 30 29 28 30 31 32 31 32 32 32 33
35 34 32 31 35 38 35 38 38 38 36 35 35 35 34 33 33 33 32 33 34 36 37 36 37 35 33 35 36 35 33 32 33 29 27 27 28 27 27 31 31 31 32 34
43 46 41 39 40 38 37 37 36 36 36 37 36 35 34 34 34 36 37 36 36 35 33 31 31 32 31 32 32 31 33 32 30 28 28 27 27 27 27 27 29 30 31 33
40 41 41 38 39 39 40 38 38 37 37 37 35 35 35 35 35 37 36 34 33 25 29 30 34 34 31 31 32 30 30 31 29 27 27 29 26 25 25 26 26 27 28 29
36 36 36 36 36 37 37 37 38 36 36 36 36 32 32 32 34 34 32 28 28 28 30 30 31 30 29 30 33 28 27 27 26 25 26 25 24 24 24 27 27 26 26 28
35 35 34 34 33 34 35 35 35 35 36 36 35 34 32 31 33 31 26 25 28 30 30 32 29 28 28 30 30 29 28 27 28 27 25 23 26 26 25 24 24 25 25 26
33 33 33 33 31 31 32 32 34 35 35 35 33 32 31 30 30 26 28 27 29 35 30 28 27 29 29 34 24 23 22 21 20 20 20 21 23 26 26 24 22 23 23 22
32 32 32 31 31 30 30 31 32 33 34 34 33 31 31 31 26 25 25 29 28 31 28 27 29 34 35 24 21 19 19 19 20 20 20 20 27 27 26 24 23 23 22 21
31 31 31 31 30 30 28 29 30 32 32 32 33 32 30 26 25 26 29 32 32 32 27 28 30 33 32 20 17 15 15 16 16 18 20 28 27 27 26 25 24 23 22 23
28 26 25 26 28 29 28 27 27 27 29 29 29 29 29 28 28 26 25 26 33 27 25 29 30 29 23 21 19 18 16 14 12 15 18 19 20 22 23 25 25 23 23 21
24 26 28 29 30 29 28 29 29 26 27 27 27 27 27 27 27 25 24 26 25 26 23 22 22 22 21 20 20 19 18 16 17 16 18 16 15 16 19 21 22 21 21 23
23 30 24 27 27 28 29 29 28 26 28 28 26 26 26 25 26 24 25 22 23 22 20 19 17 19 17 18 17 16 15 14 16 16 15 12 13 14 16 17 19 22 22 22

GFSNGP_sfc_temp_129.txt.gz
Temp
26 28 29 28 29 31 19 26 21 27 27 33 36 37 38 38 39 40 41 42 42 42 42 43 43 45 47 48 50 53 53 52 52 54 55 55 54 54 55 55 55 56 57 57
15 29 28 27 30 30 31 31 29 29 29 36 38 38 39 38 39 39 39 40 41 41 42 42 41 42 44 45 47 49 50 50 51 52 52 52 52 52 52 52 52 54 53 53
17 25 20 18 28 31 33 33 33 27 34 36 37 38 38 39 39 39 39 40 40 40 40 41 41 42 42 43 45 46 46 47 47 49 50 50 50 51 50 50 52 51 51 52
17 17 18 31 35 35 34 34 34 34 35 37 38 40 40 40 40 40 40 41 41 40 41 41 41 42 43 43 44 44 44 44 45 46 47 48 48 48 48 48 48 49 49 49
17 14 26 29 32 32 31 33 35 35 35 37 38 38 38 41 40 41 41 42 41 41 41 41 40 41 42 42 42 42 42 43 44 45 45 45 45 45 45 42 41 45 46 47
17 18 22 32 34 37 36 29 37 35 35 36 36 32 36 39 40 41 42 42 42 42 41 41 40 41 41 41 41 40 41 42 43 44 44 43 43 43 43 43 42 44 45 45
17 17 26 33 36 38 26 34 38 36 36 34 34 38 40 40 40 41 41 42 42 41 40 40 40 41 40 40 39 40 41 43 43 44 43 43 43 43 43 43 44 44 44 45
19 17 23 35 34 34 40 36 39 36 37 37 39 37 38 39 39 40 40 41 41 40 40 40 40 41 39 39 39 40 41 42 42 43 43 43 43 42 42 43 43 43 44 45
30 33 39 37 41 40 39 40 38 38 38 39 38 37 38 37 37 38 39 40 40 39 39 39 39 39 40 39 38 39 41 40 41 42 42 42 42 41 42 42 42 42 43 43
32 38 38 40 41 37 39 39 40 40 40 38 38 38 37 37 37 37 38 38 38 38 37 38 38 38 39 39 39 39 39 39 40 41 42 42 42 41 41 40 42 42 41 41
28 35 36 41 39 41 41 41 38 39 40 39 38 37 37 36 36 36 36 37 37 37 37 38 38 38 38 38 38 38 38 38 39 39 39 39 40 41 41 41 42 41 41 41
38 45 43 46 44 41 38 39 40 38 36 38 38 39 37 36 36 36 35 35 35 36 36 37 37 37 38 38 38 38 37 37 37 38 38 38 38 39 41 42 43 42 42 42
46 46 42 48 42 42 40 40 39 37 38 37 37 38 37 36 36 37 35 35 35 36 36 37 37 37 39 40 39 38 38 38 38 39 38 38 37 36 34 38 40 41 40 40
45 41 39 38 43 40 40 41 42 38 37 36 38 36 36 36 37 36 36 37 36 36 36 37 37 37 39 40 40 39 40 40 39 38 37 35 34 34 33 32 32 34 38 39
43 42 46 50 37 39 38 37 35 36 36 34 35 37 36 35 35 36 36 36 36 36 36 39 40 40 41 40 39 38 37 37 38 37 34 34 32 32 33 32 32 32 34 36
39 42 39 38 40 37 36 35 36 37 35 36 36 35 36 36 35 35 35 35 34 35 37 39 38 38 37 37 35 35 37 37 37 33 32 32 31 31 31 31 31 31 31 32
34 33 33 32 35 37 35 39 39 41 37 35 37 37 35 35 34 33 33 33 34 35 38 38 38 38 36 36 36 36 35 35 34 33 30 30 30 30 30 30 30 30 31 33
41 44 42 39 40 37 35 36 37 38 36 38 37 35 35 34 35 33 33 33 34 36 36 37 35 33 32 33 33 32 32 32 32 30 30 30 30 30 29 29 29 29 30 31
36 39 39 38 37 37 37 36 35 37 37 36 35 35 37 37 35 35 34 33 34 34 35 32 34 33 32 32 33 32 31 30 31 30 29 31 29 29 28 28 28 28 29 29
34 35 35 35 35 35 35 35 35 34 35 35 35 34 34 35 35 34 34 33 35 35 32 31 32 31 31 31 34 30 30 29 28 28 29 30 30 29 28 29 29 29 28 28
34 34 34 34 33 33 33 33 33 32 32 34 34 34 34 34 35 33 31 32 32 31 31 33 30 29 29 31 31 29 29 28 28 27 26 26 25 25 26 27 28 28 26 26
32 33 33 33 31 31 31 31 31 31 31 32 32 32 32 32 32 32 33 33 31 35 31 29 28 31 29 33 27 26 25 26 24 23 22 22 23 23 24 27 26 26 25 25
32 33 32 32 31 31 30 29 30 30 30 30 31 31 33 32 32 30 28 30 30 33 29 28 31 33 35 26 25 24 24 23 21 21 21 21 22 23 25 25 27 27 26 25
29 31 31 31 29 29 29 28 28 29 30 30 31 31 30 27 26 28 31 34 33 33 28 29 32 34 29 25 23 22 21 20 18 16 18 23 19 21 22 22 23 24 24 24
28 26 25 25 28 28 25 25 24 25 27 27 28 28 28 29 28 27 28 30 34 28 27 32 31 29 25 24 23 22 20 18 15 17 17 16 16 15 17 18 19 21 23 24
24 26 28 29 29 29 27 26 25 24 26 25 24 25 25 26 28 26 26 28 27 28 23 23 24 23 23 22 21 20 18 17 16 15 17 15 14 14 14 15 16 17 19 21
23 30 25 26 27 27 27 28 26 25 28 27 24 24 24 24 25 25 26 23 22 22 21 20 21 22 20 20 18 17 16 14 16 16 14 12 12 12 13 13 14 16 17 17

GFSNGP_sfc_temp_132.txt.gz
Temp
37 39 36 35 36 38 29 36 31 39 36 46 50 48 48 49 49 49 50 50 50 50 52 53 54 55 55 53 54 57 56 52 53 55 55 55 54 54 55 55 55 56 58 58
26 35 36 33 38 38 38 38 36 38 38 50 51 50 49 49 47 47 48 49 50 50 51 51 52 53 54 54 54 57 56 56 57 58 58 55 54 54 55 54 54 54 54 54
32 32 29 28 38 39 41 42 42 35 47 48 47 47 49 49 48 47 47 48 49 49 49 50 50 51 52 54 55 55 55 55 56 57 56 56 57 57 56 56 57 55 54 54
31 29 31 41 43 43 42 45 45 45 47 48 49 51 50 52 51 50 49 48 49 50 50 50 51 52 53 53 54 53 53 53 53 55 54 55 55 54 54 54 54 55 54 54
30 33 40 40 40 41 40 45 48 46 49 49 48 47 49 53 53 53 52 52 51 51 51 51 51 51 52 52 53 52 51 51 52 53 53 53 52 52 52 45 48 52 53 53
29 28 33 46 44 46 46 41 51 47 49 47 46 42 51 52 53 52 52 52 51 51 51 51 51 52 52 51 51 49 49 49 51 52 52 51 50 50 50 51 50 52 52 53
34 33 41 47 45 47 39 48 51 49 51 47 44 52 51 50 50 52 52 51 51 50 51 51 50 51 50 50 48 47 49 50 50 51 50 51 51 51 51 53 54 54 54 55
32 30 33 45 41 42 55 50 53 49 51 48 50 52 50 49 49 49 49 49 50 50 49 50 49 49 49 48 46 48 49 50 50 51 50 50 51 51 51 52 52 51 52 52
43 47 49 48 54 52 53 55 51 52 51 50 49 50 50 49 50 50 49 49 50 49 48 48 48 49 48 47 47 47 49 49 50 50 50 50 49 49 51 50 49 47 46 45
43 52 49 48 51 51 51 49 53 52 53 51 50 50 50 50 50 50 50 49 49 48 48 48 49 47 49 48 47 48 48 48 49 49 49 49 50 49 49 49 48 47 46 45
42 49 49 51 51 54 54 51 49 50 50 50 50 50 51 50 49 50 49 49 48 48 48 48 49 48 49 47 47 47 47 46 47 48 48 48 48 48 48 49 46 45 46 45
45 58 55 58 60 56 52 51 50 49 46 48 50 50 51 50 51 49 48 47 46 46 46 48 48 48 48 47 47 47 46 46 47 47 48 47 47 47 43 42 42 42 42 41
52 58 58 58 57 55 53 54 53 51 50 49 48 48 50 49 50 48 48 47 45 46 46 47 47 46 47 47 46 44 45 44 44 43 44 43 44 42 38 43 40 40 40 40
55 55 50 53 50 55 53 53 51 50 50 48 49 48 47 46 47 46 45 46 47 46 45 46 46 46 48 47 46 45 43 40 42 44 42 41 42 39 39 37 37 39 41 39
52 52 52 55 55 53 53 49 46 47 49 48 46 46 45 44 44 45 46 46 45 45 45 45 45 45 46 46 44 43 42 43 43 42 40 40 40 38 38 37 37 37 39 39
49 51 51 47 47 48 49 46 45 48 49 49 47 45 46 47 47 45 45 44 42 41 44 44 45 45 41 40 40 40 40 39 38 38 38 39 38 37 37 37 37 37 37 37
42 42 43 43 43 46 47 46 47 47 49 48 48 48 45 45 44 43 42 43 44 44 44 44 44 40 38 38 38 38 38 39 38 36 36 37 37 36 37 36 36 36 36 37
47 49 51 50 48 47 45 45 46 46 46 47 47 46 43 42 42 43 43 42 41 40 41 43 40 38 39 40 39 40 39 39 37 36 36 36 36 36 35 35 34 34 35 36
49 47 47 46 47 46 46 46 45 46 46 46 44 42 42 42 44 43 40 37 37 36 38 39 37 37 38 38 38 38 38 37 35 34 33 34 34 34 33 33 34 34 34 33
42 42 42 42 43 42 43 44 44 43 43 42 42 40 38 39 41 39 39 38 40 42 38 37 36 36 36 36 37 37 36 35 33 33 33 33 33 33 33 32 32 32 32 30
41 40 40 40 40 41 41 42 41 40 41 41 39 39 39 41 40 41 38 38 39 39 37 35 35 35 34 35 36 35 34 33 33 33 31 31 30 30 31 31 31 31 30 29
41 40 40 40 39 40 40 40 40 40 39 39 39 40 39 37 39 39 42 41 38 37 36 36 35 34 34 35 34 33 33 32 31 30 28 29 29 29 29 29 29 30 30 30
39 39 40 39 39 39 38 37 38 38 37 37 37 37 38 38 39 36 34 36 37 36 36 35 34 35 35 33 32 31 30 29 28 27 27 26 27 26 26 26 27 28 28 28
37 37 38 38 37 36 37 37 36 36 37 36 37 37 36 35 35 38 39 36 36 35 34 34 35 36 32 30 29 28 27 26 25 24 25 24 23 23 23 23 23 24 24 26
36 36 34 34 35 37 35 34 32 32 33 34 34 35 37 40 39 35 36 35 35 33 33 35 35 32 30 28 27 26 25 24 23 24 23 22 21 20 21 21 21 21 22 22
35 38 39 37 39 37 36 34 34 33 33 32 32 33 34 34 34 34 35 34 32 32 32 31 30 28 27 27 25 24 22 22 21 21 21 20 20 19 19 19 19 19 20 20
33 35 35 34 33 33 34 34 33 31 33 33 30 31 31 31 32 32 32 30 29 27 27 27 26 25 25 24 22 21 20 20 19 20 20 19 18 18 19 19 18 18 18 19

GFSNGP_sfc_temp_135.txt.gz
Temp
40 43 43 39 39 40 32 36 31 43 40 49 53 55 55 54 53 53 54 54 54 54 56 57 57 57 57 57 57 57 54 52 53 53 54 54 53 53 54 54 55 56 56 57
28 40 40 37 41 42 41 41 39 41 40 54 56 56 53 54 52 51 52 53 54 54 55 55 55 55 57 57 57 59 58 56 55 54 55 54 54 54 54 53 52 53 53 53
34 37 33 29 38 41 44 46 44 38 50 54 51 51 52 54 53 52 53 53 53 53 54 54 54 54 55 56 58 57 56 57 57 57 56 56 58 56 55 56 57 54 53 54
32 34 31 44 47 49 46 49 50 48 51 53 53 56 56 56 55 55 54 53 53 54 54 54 55 55 56 56 56 55 54 54 55 56 55 56 55 54 53 54 55 54 54 54
31 37 46 49 44 43 42 47 54 50 53 55 56 53 51 56 57 57 57 57 56 56 55 54 54 55 56 55 55 54 52 52 54 55 54 54 53 52 52 47 49 52 53 53
34 30 35 49 48 52 50 41 56 55 54 54 52 43 54 58 59 57 58 57 55 55 55 54 55 55 55 54 54 51 51 52 53 53 53 51 51 51 52 52 51 52 53 54
34 34 45 53 49 51 41 48 56 55 55 54 48 54 54 55 55 57 56 55 55 54 54 55 54 53 53 53 50 50 52 52 52 52 51 52 52 52 53 54 54 53 54 55
38 34 32 51 46 46 57 58 58 56 56 54 55 57 56 53 54 53 53 53 53 52 52 54 52 51 51 50 49 51 52 52 52 52 51 52 51 51 52 53 53 51 51 51
46 46 53 53 58 57 58 59 56 57 56 55 53 54 56 53 54 53 53 53 53 52 51 52 51 51 50 51 50 50 51 51 51 52 52 52 49 49 51 51 50 49 48 47
47 54 56 53 55 58 59 57 58 58 58 57 53 54 55 56 55 54 54 53 53 52 51 50 52 51 52 52 51 50 50 50 50 50 50 51 52 50 50 49 49 49 47 46
47 53 55 56 58 59 59 59 56 56 56 55 55 54 55 54 55 55 55 54 53 51 51 51 53 52 52 51 51 49 50 49 49 49 49 49 49 48 47 48 43 42 44 42
46 58 58 59 64 63 59 57 57 55 54 54 54 53 55 54 55 54 53 53 51 51 51 51 52 51 51 51 50 49 48 48 49 48 48 48 47 47 43 42 41 41 42 41
53 60 61 61 61 62 59 57 57 56 56 54 56 54 54 54 55 53 53 52 50 49 50 50 50 50 51 50 49 48 48 47 47 44 46 45 45 44 40 43 41 40 40 40
58 58 54 57 56 60 58 57 57 56 55 54 54 55 53 52 53 52 50 50 50 49 49 49 49 49 51 50 48 47 45 42 43 42 42 42 43 42 40 39 37 39 41 40
57 59 57 59 59 58 59 56 52 50 52 53 53 52 52 49 49 50 51 51 49 48 48 48 48 48 50 49 47 46 45 44 44 44 42 41 40 39 39 38 37 37 39 40
56 55 55 54 54 53 53 52 50 49 51 52 53 52 50 51 51 50 50 49 46 44 46 46 46 48 47 45 44 43 43 42 41 38 37 38 39 38 37 37 37 36 36 36
48 46 48 47 49 52 52 53 52 50 50 52 53 53 51 49 49 49 48 48 47 47 47 46 46 45 42 42 40 40 39 38 39 39 36 37 37 37 36 36 35 35 35 37
54 53 54 53 51 51 50 51 51 51 49 50 50 51 49 48 46 47 47 46 46 46 45 45 44 41 40 40 39 38 37 38 38 37 36 36 35 36 35 34 34 33 34 34
54 52 53 53 52 50 50 50 50 50 50 49 48 46 46 46 46 47 46 42 41 40 40 42 38 39 39 39 39 39 38 37 36 35 34 35 34 34 33 33 33 33 33 33
48 47 47 49 48 45 46 47 47 46 46 46 45 43 41 42 43 42 42 40 41 43 41 39 39 39 38 37 38 37 36 36 35 34 34 33 33 33 33 33 32 32 32 32
45 43 41 41 43 42 42 45 44 42 44 44 43 42 42 43 43 43 39 39 42 41 40 38 38 37 37 36 37 36 35 34 34 33 32 32 31 30 30 30 30 30 30 30
46 44 43 41 40 41 42 43 43 42 43 42 41 41 40 39 40 40 42 42 40 39 38 37 37 36 36 37 35 34 33 33 32 31 30 29 29 28 28 28 28 28 28 28
42 42 42 43 42 43 41 41 40 40 39 38 38 39 39 40 40 38 36 39 38 38 37 37 37 36 37 35 34 33 32 31 30 29 28 27 26 26 25 24 25 25 24 24
40 41 42 41 40 40 39 39 39 39 38 37 37 38 38 38 39 41 40 39 38 37 36 36 36 37 36 33 32 30 29 28 27 25 25 26 24 23 23 22 22 22 22 22
39 38 37 36 36 37 37 36 34 33 35 36 35 36 38 39 37 37 37 36 36 35 34 36 37 36 32 31 29 28 27 26 24 24 24 22 22 21 21 21 21 20 21 21
37 38 39 38 38 38 38 36 36 37 36 34 34 35 35 36 36 36 36 35 34 35 33 34 32 30 29 29 28 27 26 24 23 23 22 21 20 19 20 20 20 20 20 19
35 38 36 35 35 35 35 36 35 34 35 34 33 33 33 33 34 34 34 32 31 30 29 29 28 28 27 26 25 24 23 22 22 21 21 20 19 19 20 20 20 20 19 18